[[{"header":{"parameterUnit":"m.s-1","parameterCategory":1,"la1":30.6,"la2":28.766,"lo1":-90.7593,"lo2":-88.6598,"dy":0.0162,"dx":0.0183,"nx":116,"ny":114,"refTime":"2023-04-26T18:00:00:Z","depth":0,"parameterNumber":2,"parameterNumberName":"U-component_of_WINDS"},"data":[0.0,0.0,0.0,0.0,0.0,0.0,0.0,0.0,0.0,0.0,0.0,0.0,0.0,0.0,0.0,0.0,0.0,0.0,0.0,0.0,0.0,0.0,0.0,0.0,0.0,0.0,0.0,0.0,0.0,0.0,0.0,0.0,0.0,0.0,0.0,0.0,0.0,0.0,0.0,0.0,0.0,0.0,0.0,0.0,0.0,0.0,0.0,0.0,0.0,0.0,0.0,0.0,0.0,0.0,0.0,0.0,0.0,0.0,0.0,0.0,0.0,0.0,0.0,0.0,0.0,0.0,0.0,0.0,0.0,0.0,0.0,0.0,0.0,0.0,0.0,0.0,0.0,0.0,0.0,0.0,0.0,0.0,0.0,0.0,0.0,0.0,0.0,0.0,0.0,0.0,0.0,0.0,0.0,0.0,0.0,0.0,0.0,0.0,0.0,0.0,0.0,0.0,0.0,0.0,0.0,0.0,0.0,0.0,0.0,0.0,0.0,0.0,0.0,0.0,0.0,0.0,0.0,0.0,0.0,0.0,0.0,0.0,0.0,0.0,0.0,0.0,0.0,0.0,0.0,0.0,0.0,0.0,0.0,0.0,0.0,0.0,0.0,0.0,0.0,0.0,0.0,0.0,0.0,0.0,0.0,0.0,0.0,0.0,0.0,0.0,0.0,0.0,0.0,0.0,0.0,0.0,0.0,0.0,0.0,0.0,0.0,0.0,0.0,0.0,0.0,0.0,0.0,0.0,0.0,0.0,0.0,0.0,0.0,0.0,0.0,0.0,0.0,0.0,0.0,0.0,0.0,0.0,0.0,0.0,0.0,0.0,0.0,0.0,0.0,0.0,0.0,0.0,0.0,0.0,0.0,0.0,0.0,0.0,0.0,0.0,0.0,0.0,0.0,0.0,0.0,0.0,0.0,0.0,0.0,0.0,0.0,0.0,0.0,0.0,0.0,0.0,0.0,0.0,0.0,0.0,0.0,0.0,0.0,0.0,0.0,0.0,0.0,0.0,0.0,0.0,0.0,0.0,0.0,0.0,0.0,0.0,0.0,0.0,0.0,0.0,0.0,0.0,0.0,0.0,0.0,0.0,0.0,0.0,0.0,0.0,0.0,0.0,0.0,0.0,0.0,0.0,0.0,0.0,0.0,0.0,0.0,0.0,0.0,0.0,0.0,0.0,0.0,0.0,0.0,0.0,0.0,0.0,0.0,0.0,0.0,0.0,0.0,0.0,0.0,0.0,0.0,0.0,0.0,0.0,0.0,0.0,0.0,0.0,0.0,0.0,0.0,0.0,0.0,0.0,0.0,0.0,0.0,0.0,0.0,0.0,0.0,0.0,0.0,0.0,0.0,0.0,0.0,0.0,0.0,0.0,0.0,0.0,0.0,0.0,0.0,0.0,0.0,0.0,0.0,0.0,0.0,0.0,0.0,0.0,0.0,0.0,0.0,0.0,0.0,0.0,0.0,0.0,0.0,0.0,0.0,0.0,0.0,0.0,0.0,0.0,0.0,0.0,0.0,0.0,0.0,0.0,0.0,0.0,0.0,0.0,0.0,0.0,0.0,0.0,0.0,0.0,0.0,0.0,0.0,0.0,0.0,0.0,0.0,0.0,0.0,0.0,0.0,0.0,0.0,0.0,0.0,0.0,0.0,0.0,0.0,0.0,0.0,0.0,0.0,0.0,0.0,0.0,0.0,0.0,0.0,0.0,0.0,0.0,0.0,0.0,0.0,0.0,0.0,0.0,0.0,0.0,0.0,0.0,0.0,0.0,0.0,0.0,0.0,0.0,0.0,0.0,0.0,0.0,0.0,0.0,0.0,0.0,0.0,0.0,0.0,0.0,0.0,0.0,0.0,0.0,0.0,0.0,0.0,0.0,0.0,0.0,0.0,0.0,0.0,0.0,0.0,0.0,0.0,0.0,0.0,0.0,0.0,0.0,0.0,0.0,0.0,0.0,0.0,0.0,0.0,0.0,0.0,0.0,0.0,0.0,0.0,0.0,0.0,0.0,0.0,0.0,0.0,0.0,0.0,0.0,0.0,0.0,0.0,0.0,0.0,0.0,0.0,0.0,0.0,0.0,0.0,0.0,0.0,0.0,0.0,0.0,0.0,0.0,0.0,0.0,0.0,0.0,0.0,0.0,0.0,0.0,0.0,0.0,0.0,0.0,0.0,0.0,0.0,0.0,0.0,0.0,0.0,0.0,0.0,0.0,0.0,0.0,0.0,0.0,0.0,0.0,0.0,0.0,0.0,0.0,0.0,0.0,0.0,0.0,0.0,0.0,0.0,0.0,0.0,0.0,0.0,0.0,0.0,0.0,0.0,0.0,0.0,0.0,0.0,0.0,0.0,0.0,0.0,0.0,0.0,0.0,0.0,0.0,0.0,0.0,0.0,0.0,0.0,0.0,0.0,0.0,0.0,0.0,0.0,0.0,0.0,0.0,0.0,0.0,0.0,0.0,0.0,0.0,0.0,0.0,0.0,0.0,0.0,0.0,0.0,0.0,0.0,0.0,0.0,0.0,0.0,0.0,0.0,0.0,0.0,0.0,0.0,0.0,0.0,0.0,0.0,0.0,0.0,0.0,0.0,0.0,0.0,0.0,0.0,0.0,0.0,0.0,0.0,0.0,0.0,0.0,0.0,0.0,0.0,0.0,0.0,0.0,0.0,0.0,0.0,0.0,0.0,0.0,0.0,0.0,0.0,0.0,0.0,0.0,0.0,0.0,0.0,0.0,0.0,0.0,0.0,0.0,0.0,0.0,0.0,0.0,0.0,0.0,0.0,0.0,0.0,0.0,0.0,0.0,0.0,0.0,0.0,0.0,0.0,0.0,0.0,0.0,0.0,0.0,0.0,0.0,0.0,0.0,0.0,0.0,0.0,0.0,0.0,0.0,0.0,0.0,0.0,0.0,0.0,0.0,0.0,0.0,0.0,0.0,0.0,0.0,0.0,0.0,0.0,0.0,0.0,0.0,0.0,0.0,0.0,0.0,0.0,0.0,0.0,0.0,0.0,0.0,0.0,0.0,0.0,0.0,0.0,0.0,0.0,0.0,0.0,0.0,0.0,0.0,0.0,0.0,0.0,0.0,0.0,0.0,0.0,0.0,0.0,0.0,0.0,0.0,0.0,0.0,0.0,0.0,0.0,0.0,0.0,0.0,0.0,0.0,0.0,0.0,0.0,0.0,0.0,0.0,0.0,0.0,0.0,0.0,0.0,0.0,0.0,0.0,0.0,0.0,0.0,0.0,0.0,0.0,0.0,0.0,0.0,0.0,0.0,0.0,0.0,0.0,0.0,0.0,0.0,0.0,0.0,0.0,0.0,0.0,0.0,0.0,0.0,0.0,0.0,0.0,0.0,0.0,0.0,0.0,0.0,0.0,0.0,0.0,0.0,0.0,0.0,0.0,0.0,0.0,0.0,0.0,0.0,0.0,0.0,0.0,0.0,0.0,0.0,0.0,0.0,0.0,0.0,0.0,0.0,0.0,0.0,0.0,0.0,0.0,0.0,0.0,0.0,0.0,0.0,0.0,0.0,0.0,0.0,0.0,0.0,0.0,0.0,0.0,0.0,0.0,0.0,0.0,0.0,0.0,0.0,0.0,0.0,0.0,0.0,0.0,0.0,0.0,0.0,0.0,0.0,0.0,0.0,0.0,0.0,0.0,0.0,0.0,0.0,0.0,0.0,0.0,0.0,0.0,0.0,0.0,0.0,0.0,0.0,0.0,0.0,0.0,0.0,0.0,0.0,0.0,0.0,0.0,0.0,0.0,0.0,0.0,0.0,0.0,0.0,0.0,0.0,0.0,0.0,0.0,0.0,0.0,0.0,0.0,0.0,0.0,0.0,0.0,0.0,0.0,0.0,0.0,0.0,0.0,0.0,0.0,0.0,0.0,0.0,0.0,0.0,0.0,0.0,0.0,0.0,0.0,0.0,0.0,0.0,0.0,0.0,0.0,0.0,0.0,0.0,0.0,0.0,0.0,0.0,0.0,0.0,0.0,0.0,0.0,0.0,0.0,0.0,0.0,0.0,0.0,0.0,0.0,0.0,0.0,0.0,0.0,0.0,0.0,0.0,0.0,0.0,0.0,0.0,0.0,0.0,0.0,0.0,0.0,0.0,0.0,0.0,0.0,0.0,0.0,0.0,0.0,0.0,0.0,0.0,0.0,0.0,0.0,0.0,0.0,0.0,0.0,0.0,0.0,0.0,0.0,0.0,0.0,0.0,0.0,0.0,0.0,0.0,0.0,0.0,0.0,0.0,0.0,0.0,0.0,0.0,0.0,0.0,0.0,0.0,0.0,0.0,0.0,0.0,0.0,0.0,0.0,0.0,0.0,0.0,0.0,0.0,0.0,0.0,0.0,0.0,0.0,0.0,0.0,0.0,0.0,0.0,0.0,0.0,0.0,0.0,0.0,0.0,0.0,0.0,0.0,0.0,0.0,0.0,0.0,0.0,0.0,0.0,0.0,0.0,0.0,0.0,0.0,0.0,0.0,0.0,0.0,0.0,0.0,0.0,0.0,0.0,0.0,0.0,0.0,0.0,0.0,0.0,0.0,0.0,0.0,0.0,0.0,0.0,0.0,0.0,0.0,0.0,0.0,0.0,0.0,0.0,0.0,0.0,0.0,0.0,0.0,0.0,0.0,0.0,0.0,0.0,0.0,0.0,0.0,0.0,0.0,0.0,0.0,0.0,0.0,0.0,0.0,0.0,0.0,0.0,0.0,0.0,0.0,0.0,0.0,0.0,0.0,0.0,0.0,0.0,0.0,0.0,0.0,0.0,0.0,0.0,0.0,0.0,0.0,0.0,0.0,0.0,0.0,0.0,0.0,0.0,0.0,0.0,0.0,0.0,0.0,0.0,0.0,0.0,0.0,0.0,0.0,0.0,0.0,0.0,0.0,0.0,0.0,0.0,0.0,0.0,0.0,0.0,0.0,0.0,0.0,0.0,0.0,0.0,0.0,0.0,0.0,0.0,0.0,0.0,0.0,0.0,0.0,0.0,0.0,0.0,0.0,0.0,0.0,0.0,0.0,0.0,0.0,0.0,0.0,0.0,0.0,0.0,0.0,0.0,0.0,0.0,0.0,0.0,0.0,0.0,0.0,0.0,0.0,0.0,0.0,0.0,0.0,0.0,0.0,0.0,0.0,0.0,0.0,0.0,0.0,0.0,0.0,0.0,0.0,0.0,0.0,0.0,0.0,0.0,0.0,0.0,0.0,0.0,0.0,0.0,0.0,0.0,0.0,0.0,0.0,0.0,0.0,0.0,0.0,0.0,0.0,0.0,0.0,0.0,0.0,0.0,0.0,0.0,0.0,0.0,0.0,0.0,0.0,0.0,0.0,0.0,0.0,0.0,0.0,0.0,0.0,0.0,0.0,0.0,0.0,0.0,0.0,0.0,0.0,0.0,0.0,0.0,0.0,0.0,0.0,0.0,0.0,0.0,0.0,0.0,0.0,0.0,0.0,0.0,0.0,0.0,0.0,0.0,0.0,0.0,0.0,0.0,0.0,0.0,0.0,0.0,0.0,0.0,0.0,0.0,0.0,0.0,0.0,0.0,0.0,0.0,0.0,0.0,0.0,0.0,0.0,0.0,0.0,0.0,0.0,0.0,0.0,0.0,0.0,0.0,0.0,0.0,0.0,0.0,0.0,0.0,0.0,0.0,0.0,0.0,0.0,0.0,0.0,0.0,0.0,0.0,0.0,0.0,0.0,0.0,0.0,0.0,0.0,0.0,0.0,0.0,0.0,0.0,0.0,0.0,0.0,0.0,0.0,0.0,0.0,0.0,0.0,0.0,0.0,0.0,0.0,0.0,0.0,0.0,0.0,0.0,0.0,0.0,0.0,0.0,0.0,0.0,0.0,0.0,0.0,0.0,0.0,0.0,0.0,0.0,0.0,0.0,0.0,0.0,0.0,0.0,0.0,0.0,0.0,0.0,0.0,0.0,0.0,0.0,0.0,0.0,0.0,0.0,0.0,0.0,0.0,0.0,0.0,0.0,0.0,0.0,0.0,0.0,0.0,0.0,0.0,0.0,0.0,0.0,0.0,0.0,0.0,0.0,0.0,0.0,0.0,0.0,0.0,0.0,0.0,0.0,0.0,3.8475,0.0,0.0,0.0,0.0,0.0,0.0,0.0,0.0,0.0,0.0,0.0,0.0,0.0,0.0,0.0,0.0,0.0,0.0,0.0,0.0,0.0,0.0,0.0,0.0,0.0,0.0,0.0,0.0,0.0,0.0,0.0,0.0,0.0,0.0,0.0,0.0,0.0,0.0,0.0,0.0,0.0,0.0,0.0,0.0,0.0,0.0,0.0,0.0,0.0,0.0,0.0,0.0,0.0,0.0,0.0,0.0,0.0,0.0,0.0,0.0,0.0,0.0,0.0,0.0,0.0,0.0,0.0,0.0,0.0,0.0,0.0,0.0,0.0,0.0,0.0,0.0,0.0,0.0,0.0,0.0,0.0,0.0,0.0,0.0,0.0,0.0,0.0,0.0,0.0,0.0,0.0,0.0,0.0,0.0,0.0,0.0,0.0,0.0,0.0,0.0,0.0,0.0,0.0,0.0,0.0,0.0,0.0,0.0,0.0,0.0,0.0,0.0,0.0,0.0,0.0,0.0,3.9258,0.0,0.0,0.0,0.0,0.0,0.0,0.0,0.0,0.0,0.0,0.0,0.0,0.0,0.0,0.0,0.0,0.0,0.0,0.0,0.0,0.0,0.0,0.0,0.0,0.0,0.0,0.0,0.0,0.0,0.0,0.0,0.0,0.0,0.0,0.0,0.0,0.0,0.0,0.0,0.0,0.0,0.0,0.0,0.0,0.0,0.0,0.0,0.0,0.0,0.0,0.0,0.0,0.0,0.0,0.0,0.0,0.0,0.0,0.0,0.0,0.0,0.0,0.0,0.0,0.0,0.0,0.0,0.0,0.0,0.0,0.0,0.0,0.0,0.0,0.0,0.0,0.0,0.0,0.0,0.0,0.0,0.0,0.0,0.0,0.0,0.0,0.0,0.0,0.0,0.0,0.0,0.0,0.0,0.0,0.0,0.0,0.0,0.0,0.0,0.0,0.0,0.0,0.0,0.0,0.0,0.0,0.0,0.0,3.9817,4.0247,4.0866,4.0866,4.1458,4.2422,4.0836,4.0529,4.1136,4.0438,0.0,0.0,0.0,0.0,0.0,0.0,0.0,0.0,0.0,0.0,0.0,0.0,0.0,0.0,0.0,0.0,0.0,0.0,0.0,0.0,0.0,0.0,0.0,0.0,0.0,0.0,0.0,0.0,0.0,0.0,0.0,0.0,0.0,0.0,0.0,0.0,0.0,0.0,0.0,0.0,0.0,0.0,0.0,0.0,0.0,0.0,0.0,0.0,0.0,0.0,0.0,0.0,0.0,0.0,0.0,0.0,0.0,0.0,0.0,0.0,0.0,0.0,0.0,0.0,0.0,0.0,0.0,0.0,0.0,0.0,0.0,0.0,0.0,0.0,0.0,0.0,0.0,0.0,0.0,0.0,0.0,0.0,0.0,0.0,0.0,0.0,3.3288,3.3389,0.0,0.0,0.0,0.0,0.0,0.0,0.0,0.0,0.0,0.0,0.0,0.0,0.0,3.8703,3.9276,4.0357,4.0856,4.0873,4.1908,4.2459,4.2567,4.2567,4.3039,4.3837,4.3581,0.0,4.2037,4.1914,0.0,0.0,0.0,0.0,0.0,0.0,0.0,0.0,0.0,0.0,0.0,0.0,0.0,0.0,0.0,0.0,0.0,0.0,0.0,0.0,0.0,0.0,0.0,0.0,0.0,0.0,0.0,0.0,0.0,0.0,0.0,0.0,0.0,0.0,0.0,0.0,0.0,0.0,0.0,0.0,0.0,0.0,0.0,0.0,0.0,0.0,0.0,0.0,0.0,0.0,0.0,0.0,0.0,0.0,0.0,0.0,0.0,0.0,0.0,0.0,0.0,0.0,0.0,0.0,0.0,0.0,0.0,0.0,0.0,0.0,0.0,0.0,0.0,0.0,0.0,0.0,0.0,0.0,0.0,0.0,0.0,0.0,0.0,0.0,0.0,3.3812,3.4167,3.4607,3.4928,3.5301,0.0,0.0,0.0,0.0,0.0,0.0,0.0,0.0,0.0,3.9591,3.9608,4.0144,4.13,4.2322,4.2796,4.2814,4.3782,4.424,4.424,4.424,4.444,4.4765,4.4765,4.4447,4.3926,4.368,4.3517,4.3399,0.0,0.0,0.0,0.0,4.3533,4.3633,0.0,0.0,0.0,0.0,0.0,0.0,0.0,0.0,0.0,0.0,0.0,0.0,0.0,0.0,0.0,0.0,0.0,0.0,0.0,0.0,0.0,0.0,0.0,0.0,0.0,0.0,0.0,0.0,0.0,0.0,0.0,0.0,0.0,0.0,0.0,0.0,0.0,0.0,0.0,0.0,0.0,0.0,0.0,0.0,0.0,0.0,0.0,0.0,0.0,0.0,0.0,0.0,0.0,0.0,0.0,0.0,0.0,0.0,0.0,0.0,0.0,0.0,0.0,0.0,0.0,0.0,0.0,0.0,0.0,0.0,0.0,0.0,0.0,0.0,0.0,0.0,0.0,3.4945,3.5284,3.5842,3.6079,3.6434,0.0,0.0,0.0,0.0,0.0,0.0,3.8176,3.8814,3.9728,4.0963,4.111,4.192,4.3498,4.4095,4.4403,4.4403,4.5001,4.5291,4.5291,4.5291,4.5417,4.5617,4.5617,4.5725,4.5848,4.5108,4.4825,4.4874,4.4483,4.4424,4.4489,4.4647,4.4693,4.4781,0.0,0.0,0.0,0.0,0.0,0.0,0.0,0.0,0.0,0.0,0.0,0.0,0.0,0.0,0.0,0.0,0.0,0.0,0.0,0.0,0.0,0.0,0.0,0.0,0.0,0.0,0.0,0.0,0.0,0.0,0.0,0.0,0.0,0.0,0.0,0.0,0.0,0.0,0.0,0.0,0.0,0.0,0.0,0.0,0.0,0.0,0.0,0.0,0.0,0.0,0.0,0.0,0.0,0.0,0.0,0.0,0.0,0.0,0.0,0.0,0.0,0.0,0.0,0.0,0.0,0.0,0.0,0.0,0.0,0.0,0.0,0.0,0.0,0.0,0.0,0.0,0.0,0.0,0.0,3.6721,3.7347,0.0,0.0,0.0,0.0,3.7905,3.8597,3.8986,3.8937,4.0035,4.1261,4.2562,4.2995,4.387,4.5182,4.5218,4.5236,4.5236,4.5273,4.5291,4.5291,4.5291,4.5725,4.645,4.645,4.6884,4.7464,4.5884,4.5402,4.5659,4.5615,4.5787,4.6042,4.6536,4.6738,4.6847,0.0,0.0,0.0,0.0,0.0,0.0,0.0,0.0,0.0,0.0,0.0,0.0,0.0,0.0,0.0,0.0,0.0,0.0,0.0,0.0,0.0,0.0,0.0,0.0,0.0,0.0,0.0,0.0,0.0,0.0,0.0,0.0,0.0,0.0,0.0,0.0,0.0,0.0,0.0,0.0,0.0,0.0,0.0,0.0,0.0,0.0,0.0,0.0,0.0,0.0,0.0,0.0,0.0,0.0,0.0,0.0,0.0,0.0,0.0,0.0,0.0,0.0,0.0,0.0,0.0,0.0,0.0,0.0,0.0,0.0,0.0,0.0,0.0,0.0,0.0,0.0,0.0,0.0,0.0,3.7499,3.7736,0.0,3.8565,3.8616,3.8802,3.9276,4.03,4.0709,4.0409,4.1902,4.2929,4.3395,4.3926,4.4516,4.5291,4.5816,4.6069,4.6087,4.6613,4.6848,4.6848,4.6848,4.7011,4.7283,4.7283,4.7446,4.7663,4.7083,4.691,4.6993,4.6993,4.7068,4.7151,4.7345,4.7407,4.745,0.0,0.0,0.0,0.0,0.0,0.0,0.0,0.0,0.0,0.0,0.0,0.0,0.0,0.0,0.0,0.0,0.0,0.0,0.0,0.0,0.0,0.0,0.0,0.0,0.0,0.0,0.0,0.0,0.0,0.0,0.0,0.0,0.0,0.0,0.0,0.0,0.0,0.0,0.0,0.0,0.0,0.0,3.3626,0.0,0.0,0.0,0.0,0.0,0.0,0.0,0.0,0.0,0.0,0.0,0.0,0.0,0.0,0.0,0.0,0.0,0.0,0.0,0.0,0.0,0.0,0.0,0.0,0.0,0.0,0.0,0.0,0.0,0.0,0.0,0.0,0.0,0.0,0.0,3.8278,3.8278,3.8481,3.892,3.9665,3.9732,4.0037,4.0781,4.1596,4.1971,4.1852,4.3079,4.4032,4.4481,4.4963,4.551,4.6106,4.6649,4.6902,4.692,4.7464,4.7717,4.7717,4.7717,4.7717,4.7717,4.7717,4.7717,4.7717,4.7717,4.7717,4.7717,4.7717,4.7717,4.7681,4.7409,4.7482,4.7717,0.0,0.0,0.0,0.0,0.0,0.0,0.0,0.0,0.0,0.0,0.0,0.0,0.0,0.0,0.0,0.0,0.0,0.0,0.0,0.0,0.0,0.0,0.0,0.0,0.0,0.0,0.0,0.0,0.0,0.0,0.0,0.0,0.0,0.0,0.0,0.0,0.0,0.0,0.0,0.0,0.0,0.0,3.5135,0.0,0.0,0.0,0.0,0.0,0.0,0.0,0.0,0.0,0.0,0.0,0.0,0.0,0.0,0.0,0.0,0.0,0.0,0.0,0.0,0.0,0.0,0.0,0.0,0.0,0.0,0.0,0.0,0.0,0.0,0.0,0.0,0.0,3.8041,3.8565,3.9039,3.9056,3.9681,4.0409,4.117,4.1238,4.1542,4.2289,4.2356,4.2567,4.3095,4.3633,4.4452,4.5793,4.6296,4.692,4.7699,4.7717,4.7717,4.7717,4.7717,4.7717,4.7717,4.7717,4.7717,4.7717,4.7717,4.7717,4.7753,4.7753,4.7753,4.7772,4.7753,4.7753,4.7663,4.6902,4.712,4.7772,0.0,0.0,0.0,0.0,0.0,0.0,0.0,0.0,0.0,0.0,0.0,0.0,0.0,0.0,0.0,0.0,0.0,0.0,0.0,0.0,0.0,0.0,0.0,0.0,0.0,0.0,0.0,0.0,0.0,0.0,0.0,0.0,0.0,0.0,0.0,0.0,0.0,0.0,0.0,0.0,0.0,0.0,3.5918,0.0,0.0,0.0,0.0,0.0,0.0,0.0,0.0,0.0,0.0,0.0,0.0,0.0,0.0,0.0,0.0,0.0,0.0,0.0,0.0,0.0,0.0,0.0,0.0,0.0,0.0,0.0,0.0,0.0,0.0,0.0,0.0,3.9529,3.8802,3.9326,3.9986,4.0527,4.0764,4.1187,4.1914,4.1999,4.2207,4.2859,4.3374,4.3735,4.3889,4.5264,4.6017,4.6023,4.6891,4.7482,4.7717,4.7717,4.7717,4.7717,4.7717,4.7717,4.7717,4.7717,4.7717,4.7717,4.7717,4.8043,4.8586,4.8586,4.8912,4.9365,4.8804,4.8586,4.8623,4.8985,4.9238,4.9347,0.0,0.0,0.0,0.0,0.0,0.0,0.0,0.0,0.0,0.0,0.0,0.0,0.0,0.0,0.0,0.0,0.0,0.0,0.0,0.0,0.0,0.0,0.0,0.0,0.0,0.0,0.0,0.0,0.0,0.0,0.0,0.0,0.0,0.0,0.0,0.0,0.0,0.0,0.0,0.0,0.0,0.0,3.7022,3.6423,3.6357,3.6492,3.5827,3.5622,3.5622,3.5622,0.0,0.0,0.0,0.0,0.0,0.0,0.0,0.0,0.0,0.0,0.0,0.0,0.0,0.0,0.0,0.0,0.0,0.0,0.0,0.0,0.0,0.0,0.0,0.0,4.0273,4.051,4.0392,4.0476,4.0832,4.1576,4.166,4.1948,4.2692,4.2957,4.3374,4.3975,4.461,4.5105,4.5303,4.6318,4.6863,4.6753,4.7363,4.7717,4.7717,4.7717,4.7717,4.7717,4.7717,4.7717,4.7717,4.8061,4.8206,4.8224,4.8568,4.8967,4.9401,4.9401,4.9673,0.0,0.0,0.0,0.0,0.0,4.9872,4.9582,0.0,0.0,0.0,0.0,0.0,0.0,0.0,0.0,0.0,0.0,0.0,2.7169,0.0,0.0,0.0,0.0,0.0,0.0,0.0,0.0,0.0,0.0,0.0,0.0,0.0,0.0,0.0,0.0,0.0,0.0,0.0,0.0,0.0,0.0,0.0,0.0,0.0,0.0,0.0,0.0,0.0,0.0,3.8251,3.735,3.7009,3.686,3.6054,3.5739,3.5739,3.5739,0.0,0.0,0.0,0.0,0.0,0.0,0.0,0.0,0.0,0.0,0.0,0.0,0.0,0.0,0.0,0.0,0.0,0.0,0.0,0.0,0.0,0.0,0.0,0.0,4.1322,4.1576,4.232,4.1863,4.1694,4.2337,4.2422,4.2726,4.347,4.4042,4.4596,4.5356,4.5918,4.6406,4.6863,0.0,0.0,0.0,0.0,4.7717,4.7717,4.7808,4.7844,4.7844,4.7935,4.7971,4.7989,4.8713,4.9057,4.9094,4.9782,5.0144,5.0234,5.0234,5.0271,5.0343,5.0253,5.0271,5.0361,5.0361,4.9908,4.942,0.0,0.0,0.0,0.0,0.0,0.0,0.0,0.0,0.0,2.725,2.7184,2.7375,2.8109,0.0,0.0,0.0,0.0,0.0,0.0,0.0,0.0,0.0,0.0,0.0,0.0,0.0,0.0,0.0,0.0,0.0,0.0,0.0,0.0,0.0,0.0,0.0,0.0,0.0,0.0,0.0,0.0,0.0,3.9082,3.8146,3.7623,3.7321,3.6821,3.6661,3.6661,3.6661,3.6661,3.662,3.6367,0.0,0.0,0.0,0.0,0.0,0.0,0.0,0.0,0.0,0.0,0.0,0.0,0.0,0.0,0.0,0.0,0.0,0.0,0.0,0.0,4.1965,4.2083,4.2337,4.3098,4.3081,4.3047,4.3183,4.32,4.3504,4.4282,4.4812,4.5355,4.59,4.6454,4.6799,4.6908,4.7302,4.7407,4.7062,4.745,4.7717,4.7717,4.8351,4.8677,4.8695,0.0,0.0,4.9637,4.9782,4.9854,4.9872,5.0017,5.0452,5.1049,5.1049,5.1448,5.1973,5.1303,5.1448,5.2027,5.2027,5.1937,5.1828,0.0,0.0,0.0,0.0,0.0,0.0,0.0,0.0,0.0,0.0,2.7184,2.7427,2.8316,0.0,0.0,0.0,0.0,0.0,0.0,0.0,0.0,0.0,0.0,0.0,0.0,0.0,0.0,0.0,0.0,0.0,0.0,0.0,0.0,0.0,0.0,0.0,0.0,0.0,0.0,0.0,0.0,0.0,4.042,3.9355,3.8581,3.8057,3.7637,3.7233,3.69,3.69,3.7163,3.7479,3.7479,3.7638,3.7833,0.0,0.0,0.0,0.0,0.0,0.0,0.0,0.0,0.0,0.0,0.0,0.0,0.0,0.0,4.0436,0.0,0.0,4.1893,4.2743,4.2861,4.3115,4.3893,4.3995,4.3995,4.3995,4.3995,4.4241,4.491,4.5425,4.59,4.6454,4.7017,4.7302,4.7302,4.7554,4.7753,4.7895,4.8168,4.8496,4.8894,4.9293,4.9492,4.951,4.9908,5.009,5.009,5.0506,5.0687,5.0705,5.1122,5.152,5.19,5.19,5.2136,5.2462,5.2063,5.2136,5.2498,5.2498,5.2498,5.2498,0.0,0.0,0.0,0.0,0.0,0.0,0.0,0.0,0.0,0.0,0.0,2.7702,2.8579,0.0,0.0,0.0,0.0,0.0,0.0,0.0,0.0,0.0,0.0,0.0,0.0,0.0,0.0,0.0,0.0,0.0,0.0,0.0,0.0,0.0,0.0,0.0,0.0,0.0,0.0,0.0,0.0,0.0,4.1813,4.0684,3.9636,3.8776,3.8472,3.7948,3.7397,3.7538,3.8037,3.8606,3.8839,3.9167,3.9376,3.9308,3.906,0.0,0.0,0.0,0.0,0.0,0.0,0.0,0.0,0.0,3.9807,3.9754,4.0391,4.098,4.1238,4.1866,4.2614,4.3466,4.3639,4.3859,4.4485,4.4587,4.4587,4.4587,4.4665,4.4906,4.525,4.585,4.6454,4.6863,4.7551,4.7935,4.7935,4.8079,4.846,4.9112,4.9148,4.9438,5.0071,5.0253,5.0325,5.0325,5.047,5.056,5.0578,5.123,5.152,5.1556,5.2208,5.2498,5.2498,5.2498,5.2498,5.2498,5.2498,5.2498,5.2498,5.2498,5.2498,5.2498,0.0,0.0,0.0,0.0,0.0,0.0,0.0,0.0,0.0,0.0,0.0,0.0,0.0,0.0,0.0,0.0,0.0,0.0,0.0,0.0,0.0,0.0,0.0,0.0,0.0,0.0,0.0,0.0,0.0,0.0,0.0,0.0,0.0,0.0,0.0,0.0,0.0,0.0,0.0,0.0,0.0,0.0,4.2665,4.1794,4.0583,3.9317,3.9264,3.921,3.9228,3.986,4.0149,4.0185,3.9851,3.9807,3.9807,3.9668,0.0,3.9593,3.9766,3.9783,0.0,4.002,4.0087,4.0037,0.0,0.0,4.0929,4.0718,4.1449,4.2264,4.2812,4.3124,4.35,4.4316,4.4451,4.4485,4.457,4.4587,4.4587,4.4587,4.4998,4.5267,4.5303,4.6213,4.6863,4.6908,4.8073,4.8786,4.8786,4.9438,4.9854,4.9945,4.9963,4.9999,5.009,5.0796,5.1158,5.1158,5.1882,5.2226,5.2226,5.2317,5.2371,5.2371,5.2462,5.2498,5.2498,5.2498,5.2498,5.2498,5.2498,5.2498,5.2498,5.2498,5.2498,5.2498,0.0,0.0,0.0,0.0,0.0,0.0,0.0,0.0,0.0,0.0,0.0,0.0,0.0,0.0,0.0,0.0,0.0,0.0,0.0,0.0,0.0,0.0,0.0,0.0,0.0,0.0,0.0,0.0,0.0,0.0,0.0,0.0,0.0,0.0,0.0,0.0,0.0,0.0,0.0,0.0,0.0,0.0,4.2158,4.185,4.1017,4.0004,3.9751,3.9623,0.0,0.0,4.0394,4.0827,4.0921,4.1074,4.1167,4.0832,4.055,0.0,4.0086,0.0,0.0,0.0,4.0679,4.0728,4.1167,4.1452,4.158,4.158,4.2206,4.2922,4.317,4.3664,4.4198,0.0,4.4587,4.4587,4.4587,4.4587,4.4587,4.4587,4.5284,4.5648,4.5303,4.642,4.724,4.7586,4.883,4.9601,4.9601,4.9908,5.0289,5.076,5.0796,5.1013,5.1484,5.1828,5.1991,5.1991,5.2335,5.2498,5.2498,5.2498,5.2498,5.2498,5.2498,5.2498,5.2498,5.2498,5.2498,5.2498,5.2498,5.2498,5.2498,5.2498,5.2498,5.2498,0.0,0.0,0.0,0.0,0.0,0.0,0.0,0.0,0.0,0.0,0.0,0.0,0.0,0.0,0.0,0.0,0.0,0.0,0.0,0.0,0.0,0.0,0.0,0.0,0.0,0.0,0.0,0.0,0.0,0.0,0.0,0.0,0.0,0.0,0.0,0.0,0.0,0.0,0.0,0.0,0.0,0.0,4.1705,4.1433,4.1215,4.0905,4.0331,4.0125,0.0,0.0,4.0659,4.122,4.1518,4.1832,4.1931,4.1437,4.0955,4.0531,4.0171,0.0,0.0,4.1068,4.1304,4.1521,4.2115,4.2294,4.2337,4.2391,4.3036,4.3613,4.3613,4.4142,4.4587,4.4587,4.4587,4.4626,4.4759,4.4814,4.4869,4.5015,4.5874,4.6283,4.5875,4.6991,4.7968,4.8611,4.9767,5.0416,5.0416,5.0633,5.1013,5.1611,5.1629,5.19,5.248,5.2498,5.2498,5.2498,5.2498,5.2498,5.2498,5.2498,5.2498,5.2498,5.2498,5.2498,5.2498,5.2498,5.2498,5.2516,5.2733,5.2824,5.286,5.3078,5.2878,5.2516,0.0,0.0,0.0,0.0,0.0,0.0,0.0,0.0,0.0,0.0,0.0,0.0,0.0,0.0,0.0,0.0,0.0,0.0,0.0,0.0,0.0,0.0,0.0,0.0,0.0,0.0,0.0,0.0,0.0,0.0,0.0,0.0,0.0,0.0,0.0,0.0,0.0,0.0,0.0,0.0,0.0,0.0,4.1633,4.0854,4.1209,4.2037,4.1252,0.0,0.0,0.0,4.1473,4.149,4.149,4.1508,0.0,4.0972,4.0483,0.0,0.0,0.0,4.117,4.1204,4.1728,4.2216,4.2142,4.2753,4.3331,4.3204,4.3883,4.4536,4.4536,4.457,4.4587,4.4587,4.4587,4.4759,4.5214,4.525,4.5459,4.6,4.6783,4.7239,0.0,4.8225,4.9177,4.9981,5.0796,5.1249,5.1249,5.1991,5.2426,5.2462,5.2462,5.248,5.2498,5.2498,5.2498,5.2498,5.2498,5.2498,5.2498,5.2498,5.2498,5.2498,5.2498,5.2498,5.2498,5.2498,5.2498,5.257,5.3367,5.3657,5.3766,5.4544,5.3838,5.2607,0.0,0.0,0.0,0.0,0.0,0.0,0.0,0.0,0.0,0.0,0.0,0.0,0.0,0.0,0.0,0.0,0.0,0.0,0.0,0.0,0.0,0.0,0.0,0.0,0.0,0.0,0.0,0.0,0.0,0.0,0.0,0.0,0.0,0.0,0.0,0.0,0.0,0.0,0.0,0.0,0.0,0.0,4.0944,4.1216,4.1335,4.1408,0.0,0.0,0.0,0.0,4.1019,4.1111,4.1393,0.0,0.0,4.0483,4.0578,4.0917,4.1235,0.0,4.2138,4.298,4.3095,4.3257,4.4038,4.4235,4.4275,4.4534,4.4627,4.4587,4.4587,4.4587,4.4587,4.4587,4.4852,4.5125,4.525,4.5614,4.611,4.6818,4.7462,0.0,0.0,0.0,0.0,5.0336,5.1455,5.21,5.21,5.2353,5.2498,5.2498,5.2498,5.2498,5.2498,5.2498,5.2498,5.2498,5.2498,5.2498,5.2498,5.2498,5.2498,5.2498,5.2498,5.2498,5.2534,5.3078,5.3295,5.3385,5.4182,5.4508,5.4544,5.4798,5.4562,5.4128,0.0,0.0,0.0,0.0,0.0,0.0,0.0,0.0,0.0,0.0,0.0,0.0,0.0,0.0,0.0,0.0,0.0,0.0,0.0,0.0,0.0,0.0,0.0,0.0,0.0,0.0,0.0,0.0,0.0,0.0,0.0,0.0,0.0,0.0,0.0,0.0,0.0,0.0,0.0,0.0,0.0,0.0,4.0742,4.1265,4.1239,0.0,0.0,0.0,0.0,0.0,0.0,4.0802,4.0955,4.0784,4.0583,4.0709,4.1103,4.168,4.2462,4.2987,4.3477,4.4264,4.444,4.4577,4.539,4.5178,4.4944,4.5267,4.4944,4.4587,4.4587,4.4587,4.4665,4.4797,4.5125,4.5459,4.58,4.6165,4.6754,4.7743,4.8429,4.9313,0.0,0.0,0.0,5.1227,5.2033,5.2498,5.2498,5.2498,5.2498,5.2498,5.2498,5.2498,5.2498,5.2498,5.2498,5.2498,5.2498,5.2498,5.2498,5.2498,5.2498,5.2516,5.2806,5.2933,5.2987,5.3802,5.4128,5.4218,5.4997,5.5287,5.5323,5.5631,5.5721,5.5685,0.0,0.0,0.0,0.0,0.0,0.0,0.0,0.0,0.0,0.0,0.0,0.0,0.0,0.0,0.0,0.0,0.0,0.0,0.0,0.0,0.0,0.0,0.0,0.0,0.0,0.0,0.0,0.0,0.0,0.0,0.0,0.0,0.0,0.0,0.0,0.0,0.0,0.0,0.0,0.0,0.0,0.0,4.0967,4.1002,0.0,0.0,0.0,0.0,0.0,0.0,0.0,0.0,0.0,0.0,4.0407,4.1684,4.2071,4.2358,4.3658,4.4542,4.5045,4.5093,4.5572,4.6116,4.6147,4.5716,4.5355,4.5355,4.4998,4.4626,0.0,0.0,4.4759,4.5214,4.5355,4.5767,4.6753,4.6908,4.7411,0.0,0.0,0.0,0.0,0.0,0.0,5.2498,0.0,5.2498,5.2498,5.2498,5.2498,5.2498,5.2498,5.2498,5.2498,5.2498,5.2498,5.2498,5.2498,5.2516,5.2552,5.2552,5.257,5.2661,5.344,5.3766,5.382,5.4635,5.4961,5.5033,5.5758,5.6047,5.6138,5.6917,5.7188,5.708,0.0,0.0,0.0,0.0,0.0,0.0,0.0,0.0,0.0,0.0,0.0,0.0,0.0,0.0,0.0,0.0,0.0,0.0,0.0,0.0,0.0,0.0,0.0,0.0,0.0,0.0,0.0,0.0,0.0,0.0,0.0,0.0,0.0,0.0,0.0,0.0,0.0,0.0,0.0,0.0,0.0,0.0,4.0199,0.0,0.0,0.0,0.0,0.0,0.0,0.0,0.0,0.0,0.0,4.1139,4.1324,4.2247,4.2923,4.3647,4.4973,4.557,4.5932,4.6312,4.6265,4.6196,4.6595,4.6262,4.6,4.6406,4.5767,4.5125,0.0,0.0,0.0,4.525,4.595,0.0,4.6863,4.7258,0.0,4.9619,0.0,5.0633,5.2063,5.2371,0.0,0.0,5.2498,5.2498,5.2498,5.2498,5.2498,5.2498,5.2498,5.2498,5.2498,5.2498,5.2498,5.2498,5.2498,5.2806,5.3385,5.3385,5.3729,5.4309,5.4508,5.4599,5.4653,5.5414,5.5721,5.5794,5.6591,5.688,5.6917,5.7116,5.7188,5.717,0.0,0.0,0.0,0.0,0.0,0.0,0.0,0.0,0.0,0.0,0.0,0.0,0.0,0.0,0.0,0.0,0.0,0.0,0.0,0.0,0.0,0.0,0.0,0.0,0.0,0.0,0.0,0.0,0.0,0.0,0.0,0.0,0.0,0.0,0.0,0.0,0.0,0.0,0.0,0.0,0.0,0.0,0.0,0.0,0.0,0.0,0.0,0.0,0.0,0.0,0.0,4.1481,4.1481,4.1754,4.2238,4.3253,0.0,4.4964,4.6273,4.6722,4.6863,4.7169,4.6999,4.6863,4.7169,4.6863,4.6454,4.6566,4.59,0.0,0.0,0.0,0.0,0.0,0.0,0.0,4.7214,4.7511,4.8297,0.0,5.009,0.0,5.2335,5.2498,5.2498,0.0,5.2498,5.2498,5.2498,5.2498,5.2498,5.2498,5.2498,5.2498,5.2498,5.2498,5.2679,5.3023,5.3023,5.3458,5.4237,5.4237,5.4472,5.4925,0.0,5.5377,5.5432,5.621,5.6518,5.6573,5.7025,5.7188,5.7188,5.7188,5.7188,5.7188,0.0,0.0,0.0,0.0,0.0,0.0,0.0,0.0,0.0,0.0,0.0,0.0,0.0,0.0,0.0,0.0,0.0,0.0,0.0,0.0,0.0,0.0,0.0,0.0,0.0,0.0,0.0,0.0,0.0,0.0,0.0,0.0,0.0,0.0,0.0,0.0,0.0,0.0,0.0,0.0,0.0,0.0,0.0,0.0,0.0,0.0,0.0,0.0,0.0,0.0,4.236,4.17,4.17,4.2247,4.3112,4.4339,4.5255,4.6147,4.738,4.7717,4.7717,4.7717,4.7717,4.7717,4.7717,4.7363,4.6845,4.631,0.0,4.5407,4.5407,4.5407,4.5749,4.6753,0.0,4.7151,4.7615,4.7717,4.8297,4.989,5.009,5.0723,5.2335,5.2498,5.2498,5.2498,5.2498,5.2498,5.2498,5.2498,5.2498,5.2498,5.2498,5.2498,5.2498,5.2607,5.3005,5.3693,5.382,5.4291,5.5051,5.5051,5.5106,5.5251,5.5884,5.6156,5.621,5.6899,5.7188,5.7188,5.7188,5.7188,5.7188,5.7188,5.7188,5.7188,0.0,0.0,0.0,0.0,0.0,0.0,0.0,0.0,0.0,0.0,3.013,2.9814,0.0,0.0,0.0,0.0,0.0,0.0,0.0,0.0,0.0,0.0,0.0,0.0,0.0,0.0,0.0,0.0,0.0,0.0,0.0,0.0,0.0,0.0,0.0,0.0,0.0,0.0,0.0,0.0,0.0,0.0,0.0,0.0,0.0,0.0,0.0,0.0,0.0,0.0,4.2788,4.2673,4.2673,4.3213,4.4025,4.4935,4.573,4.6584,4.744,4.7717,4.7717,4.7717,4.7717,4.7717,4.7717,4.7615,0.0,0.0,0.0,4.595,4.595,4.595,0.0,4.6799,0.0,0.0,0.0,0.0,4.8297,0.0,0.0,0.0,0.0,0.0,0.0,0.0,0.0,5.2498,5.2498,5.2498,5.2498,5.2498,5.2498,5.2498,5.2498,5.315,5.3566,5.3711,5.4381,5.5088,5.5812,5.5812,5.6156,5.6808,5.6935,0.0,5.6989,5.7134,5.7188,5.7188,5.7188,5.7188,5.7188,5.7188,5.7188,5.7188,0.0,0.0,0.0,0.0,0.0,0.0,0.0,3.1061,3.046,3.0318,2.981,2.9486,2.9486,2.9621,2.9913,0.0,0.0,0.0,0.0,0.0,0.0,0.0,0.0,0.0,0.0,0.0,0.0,0.0,0.0,0.0,0.0,0.0,0.0,0.0,0.0,0.0,0.0,0.0,0.0,0.0,0.0,0.0,0.0,0.0,0.0,0.0,0.0,0.0,0.0,0.0,4.2882,4.2882,4.2882,4.3733,4.4802,4.5182,4.6178,4.721,4.7609,4.7717,4.7717,4.7717,4.7717,4.7717,4.7717,0.0,0.0,0.0,0.0,4.6406,4.6165,0.0,0.0,0.0,0.0,0.0,0.0,0.0,0.0,0.0,0.0,0.0,0.0,0.0,0.0,0.0,0.0,5.2498,5.2498,5.2498,5.2498,5.2498,5.2915,5.3114,5.3114,5.3929,5.4526,5.4888,5.5287,5.5884,5.6609,5.6609,5.6826,5.7188,5.7188,5.7188,5.7188,5.7188,5.7188,5.7188,5.7188,5.7188,5.7188,5.7188,5.7188,5.7188,0.0,0.0,0.0,0.0,0.0,0.0,0.0,3.1044,3.0418,3.0175,2.9483,2.9121,2.9396,2.947,2.9722,0.0,0.0,0.0,0.0,0.0,0.0,0.0,0.0,0.0,0.0,0.0,0.0,0.0,0.0,0.0,0.0,0.0,0.0,0.0,0.0,0.0,0.0,0.0,0.0,0.0,0.0,0.0,0.0,0.0,0.0,0.0,0.0,0.0,0.0,0.0,4.2882,4.2882,4.2882,4.3878,4.5073,4.5254,4.6323,4.7482,4.7663,4.7717,4.7717,4.7717,4.7717,4.7717,4.7717,4.7717,0.0,0.0,0.0,4.6753,4.6358,0.0,0.0,0.0,0.0,0.0,0.0,0.0,0.0,0.0,0.0,0.0,0.0,0.0,0.0,0.0,0.0,5.2498,5.2498,5.2498,5.257,5.2752,5.3367,5.3784,5.3965,5.4744,5.5432,5.5993,5.6156,5.6591,5.7188,5.7188,5.7188,5.7188,5.7188,5.7188,5.7188,5.7188,5.7188,5.7188,5.7188,5.7188,5.7188,5.7188,5.7188,5.7188,0.0,0.0,0.0,0.0,0.0,0.0,0.0,3.0965,3.0435,3.0293,2.9393,2.8826,2.9121,2.9335,2.9766,0.0,0.0,0.0,0.0,0.0,0.0,0.0,0.0,0.0,0.0,0.0,0.0,0.0,0.0,0.0,0.0,0.0,0.0,0.0,0.0,0.0,0.0,0.0,0.0,0.0,0.0,0.0,0.0,0.0,0.0,0.0,0.0,0.0,0.0,0.0,0.0,4.2882,4.2882,4.3498,4.4349,4.5091,0.0,0.0,4.7518,4.7717,4.7717,4.7717,4.7717,4.7717,4.7717,0.0,0.0,0.0,4.6863,4.6908,4.6863,0.0,0.0,0.0,0.0,4.7717,0.0,0.0,0.0,0.0,0.0,0.0,0.0,0.0,0.0,0.0,0.0,5.2498,5.2498,5.2498,5.2824,5.3566,5.3657,5.4055,5.478,5.5522,5.5921,5.5993,5.6736,5.7134,5.7188,5.7188,5.7188,5.7188,5.7188,5.7188,0.0,5.7188,5.7188,5.7188,5.7188,5.7188,5.7188,5.7188,5.7188,5.7188,0.0,0.0,0.0,0.0,0.0,0.0,3.1709,3.1145,3.0649,3.0477,2.9717,2.9166,2.8873,2.9243,2.9605,2.9897,0.0,0.0,0.0,0.0,0.0,0.0,0.0,0.0,0.0,0.0,0.0,0.0,0.0,0.0,0.0,0.0,0.0,0.0,0.0,0.0,0.0,0.0,0.0,0.0,0.0,0.0,0.0,0.0,0.0,0.0,0.0,0.0,0.0,0.0,0.0,0.0,4.2882,4.3213,0.0,0.0,4.6214,4.7301,4.7627,4.7717,4.7717,4.7717,4.7717,4.7717,4.7717,0.0,0.0,4.7017,4.7169,4.7302,4.6954,4.7151,0.0,0.0,0.0,0.0,0.0,0.0,0.0,0.0,0.0,0.0,0.0,0.0,0.0,0.0,0.0,5.2498,5.2498,5.2498,5.286,5.3675,5.4182,5.4798,5.554,5.6319,5.6717,5.6717,5.7043,5.7188,5.7188,5.7188,5.7188,5.7188,5.7188,5.7188,0.0,5.7188,5.7188,5.7188,5.7188,5.7188,5.7188,5.7188,5.7188,5.7188,0.0,0.0,0.0,0.0,0.0,3.18,3.1746,3.1355,3.0931,3.0723,3.0123,2.9556,2.9136,2.9243,2.9473,2.9643,3.0363,0.0,0.0,0.0,0.0,0.0,0.0,0.0,0.0,0.0,0.0,0.0,0.0,0.0,0.0,0.0,0.0,0.0,0.0,0.0,0.0,0.0,0.0,0.0,0.0,0.0,0.0,0.0,0.0,0.0,0.0,0.0,0.0,0.0,0.0,0.0,0.0,0.0,0.0,0.0,4.6168,4.7204,4.7603,4.7717,4.7717,4.7717,4.7717,4.7717,0.0,0.0,4.7597,4.7214,4.7468,4.7554,4.7214,4.7468,4.7717,4.7717,4.7717,4.7717,4.7717,0.0,0.0,0.0,0.0,0.0,0.0,0.0,0.0,0.0,0.0,5.2498,5.2498,5.2733,5.3222,5.4037,5.4816,5.5595,5.6337,5.6917,5.7188,5.7188,5.7188,5.7188,5.7188,5.7188,5.7188,5.7188,5.7188,5.7188,0.0,5.7188,5.7188,5.7188,5.7188,5.7188,5.7188,5.7188,5.7188,5.7188,0.0,0.0,0.0,0.0,0.0,0.0,3.1617,3.1428,3.1274,3.119,3.0493,2.9968,2.9984,2.947,2.9324,2.9916,3.0482,0.0,0.0,0.0,0.0,0.0,0.0,0.0,0.0,0.0,0.0,0.0,0.0,0.0,0.0,0.0,0.0,0.0,0.0,0.0,0.0,0.0,0.0,0.0,0.0,0.0,0.0,0.0,0.0,0.0,0.0,0.0,0.0,0.0,0.0,0.0,0.0,0.0,0.0,0.0,4.5486,4.5998,4.7337,4.7717,4.7717,4.7717,4.7717,4.7717,0.0,0.0,4.7717,4.7699,4.7717,4.7717,4.7699,4.7717,4.7717,4.7717,4.7717,4.7717,4.7717,0.0,0.0,0.0,0.0,0.0,0.0,0.0,0.0,0.0,0.0,0.0,5.2498,5.3241,5.4055,5.487,5.5595,5.6373,5.717,5.7188,5.7188,5.7188,5.7188,5.7188,5.7188,5.7188,5.7188,5.7188,5.7188,5.7188,0.0,5.7188,5.7188,5.7188,5.7188,5.7188,5.7188,5.7188,5.7188,5.7188,0.0,0.0,0.0,0.0,0.0,0.0,0.0,3.1671,3.1559,3.1312,3.1061,3.0764,3.0393,3.0241,3.0205,3.0185,3.0446,0.0,0.0,0.0,0.0,0.0,0.0,0.0,0.0,0.0,0.0,3.1748,3.1608,0.0,0.0,0.0,0.0,0.0,0.0,0.0,0.0,0.0,0.0,0.0,0.0,0.0,0.0,0.0,0.0,0.0,0.0,0.0,0.0,0.0,0.0,0.0,0.0,0.0,0.0,0.0,0.0,0.0,4.7585,4.7717,4.7717,4.7717,4.7717,4.7717,4.7717,0.0,4.7717,4.7717,4.7717,4.7717,4.7717,4.7717,4.7717,4.7717,4.7717,4.7717,4.7717,0.0,0.0,0.0,0.0,0.0,0.0,0.0,0.0,0.0,5.2498,5.2498,5.2498,5.3784,5.4653,5.4907,5.5613,5.6373,5.7188,5.7188,5.7188,5.7188,5.7188,5.7188,5.7188,5.7188,5.7188,5.7188,5.7188,5.7188,5.7188,5.7188,5.7188,5.7188,5.7188,5.7188,5.7188,5.7188,5.7188,5.7188,0.0,0.0,0.0,0.0,0.0,0.0,0.0,3.18,3.1726,3.1504,3.1372,3.1179,3.0845,3.0477,3.0401,3.0593,3.0461,0.0,0.0,0.0,0.0,0.0,0.0,0.0,0.0,3.0206,3.0996,3.18,3.166,3.1559,3.1506,3.1365,0.0,0.0,0.0,0.0,0.0,0.0,0.0,0.0,0.0,0.0,3.7358,0.0,0.0,0.0,0.0,0.0,0.0,0.0,0.0,0.0,0.0,0.0,0.0,0.0,4.5783,0.0,0.0,4.7717,4.7717,4.7717,4.7717,0.0,0.0,0.0,4.7717,4.7717,4.7717,4.7717,4.7717,4.7717,4.7717,4.7717,4.7717,4.7717,4.7717,0.0,0.0,0.0,0.0,0.0,0.0,0.0,0.0,0.0,5.2498,5.2498,5.2498,5.4037,5.4907,5.4907,5.5903,5.6681,5.7188,5.7188,5.7188,5.7188,5.7188,5.7188,5.7188,5.7188,5.7188,5.7188,5.7188,5.7188,0.0,5.7188,5.7188,5.7188,5.7188,5.7188,5.7188,5.7188,5.7188,5.7188,0.0,0.0,0.0,0.0,0.0,0.0,0.0,3.18,3.18,3.18,3.1542,3.1334,3.1334,3.0385,3.0146,3.1122,0.0,0.0,0.0,0.0,0.0,0.0,0.0,0.0,0.0,3.0022,3.0839,3.1731,3.1765,3.1682,3.1528,3.1472,3.1404,0.0,0.0,0.0,0.0,0.0,0.0,0.0,0.0,0.0,0.0,0.0,0.0,0.0,0.0,0.0,0.0,0.0,0.0,0.0,0.0,0.0,0.0,0.0,0.0,0.0,0.0,0.0,0.0,0.0,0.0,0.0,0.0,0.0,0.0,0.0,4.7717,4.7717,4.7717,4.7717,4.7717,4.7717,4.7717,4.7717,4.7717,4.9094,0.0,0.0,0.0,0.0,0.0,0.0,0.0,5.2498,5.2498,5.2498,5.2498,5.3965,5.4852,5.4907,5.6337,5.7134,5.7188,5.7188,5.7188,5.7188,5.7188,5.7188,5.7188,5.7188,5.7188,0.0,5.7188,5.7188,5.7188,5.7188,5.7188,5.7188,5.7188,5.7188,5.7188,5.7188,5.7188,5.7188,0.0,0.0,0.0,0.0,0.0,0.0,0.0,0.0,0.0,0.0,3.1709,3.1671,3.1671,3.1372,3.1196,0.0,0.0,0.0,0.0,0.0,0.0,0.0,0.0,0.0,0.0,2.921,3.004,3.0805,3.1345,3.162,3.1551,3.1423,3.1312,3.1312,3.2086,0.0,0.0,0.0,0.0,0.0,0.0,0.0,0.0,0.0,0.0,0.0,3.9363,4.0438,0.0,0.0,0.0,0.0,0.0,0.0,0.0,0.0,4.476,4.595,4.732,0.0,4.7717,4.7717,4.7717,0.0,0.0,0.0,0.0,0.0,0.0,4.7717,4.7717,4.7717,4.7717,4.7717,4.7717,4.7717,4.7717,0.0,0.0,0.0,0.0,0.0,0.0,0.0,0.0,5.2498,5.2498,5.2498,5.2498,5.344,5.4273,5.4888,5.5794,5.6573,5.7188,5.7188,5.7188,5.7188,5.7188,5.7188,5.7188,5.7188,5.7188,5.7188,5.7188,5.7188,5.7188,5.7188,5.7188,5.7188,5.7188,5.7188,5.7188,5.7188,5.7188,5.7188,0.0,0.0,0.0,0.0,0.0,0.0,0.0,0.0,0.0,0.0,0.0,3.18,3.18,3.1487,0.0,0.0,0.0,0.0,0.0,0.0,0.0,0.0,0.0,0.0,2.8031,2.882,2.9681,3.0492,3.1259,3.1585,3.1593,3.1445,3.1351,3.1351,3.2187,0.0,0.0,0.0,0.0,0.0,3.6638,0.0,0.0,0.0,0.0,0.0,3.8819,3.9711,0.0,4.0864,4.1455,4.1717,0.0,0.0,0.0,0.0,4.4366,4.5868,4.6707,4.7169,4.7407,4.7657,4.7717,4.7717,0.0,0.0,0.0,0.0,0.0,0.0,4.7717,0.0,0.0,4.7717,4.7717,4.7971,0.0,0.0,0.0,0.0,0.0,0.0,0.0,0.0,5.2526,5.2554,5.2554,5.2554,5.2645,5.3316,5.4114,5.493,5.5644,5.6373,5.7188,5.7188,5.7239,5.7289,5.7289,5.7338,5.7388,5.7388,5.7356,5.7289,5.7289,5.7257,5.7188,5.7188,5.7188,5.7188,5.7188,5.7188,5.7188,5.7188,5.7239,5.7289,0.0,0.0,0.0,0.0,0.0,0.0,0.0,0.0,0.0,0.0,0.0,0.0,0.0,0.0,0.0,0.0,0.0,0.0,0.0,0.0,0.0,0.0,0.0,2.8835,2.7827,2.8673,2.9513,3.0321,3.117,3.1603,3.1614,3.1534,3.144,3.1406,3.2269,3.3315,0.0,0.0,0.0,0.0,3.6259,0.0,0.0,0.0,0.0,0.0,0.0,0.0,0.0,4.0662,4.1348,4.1303,4.0832,0.0,0.0,0.0,0.0,0.0,4.6165,4.6548,4.7017,4.7572,4.7717,4.7717,0.0,0.0,0.0,0.0,0.0,0.0,0.0,0.0,0.0,0.0,0.0,0.0,0.0,0.0,0.0,0.0,0.0,0.0,0.0,5.2599,5.2554,5.2654,5.2635,5.2698,5.2806,5.3354,5.4044,5.4989,5.5565,5.6265,5.7188,5.7188,5.7307,5.7388,5.7388,5.7486,5.7601,5.7601,5.7553,5.7455,0.0,0.0,5.7239,5.7239,5.7239,5.7239,5.7239,5.7239,5.7257,5.7206,5.7289,5.7406,0.0,0.0,0.0,0.0,0.0,0.0,0.0,0.0,0.0,0.0,0.0,0.0,0.0,0.0,0.0,0.0,0.0,0.0,0.0,0.0,0.0,0.0,2.9334,2.8612,2.7097,2.8399,2.9214,2.9464,3.0925,3.1671,3.1763,3.1593,3.1559,3.162,3.1509,3.2422,3.4042,3.3799,3.4868,3.6741,3.5985,0.0,0.0,0.0,0.0,0.0,0.0,0.0,0.0,3.9939,4.058,4.0849,4.0353,0.0,0.0,0.0,0.0,0.0,4.6501,4.6863,4.7017,4.7572,4.7717,4.7717,0.0,0.0,0.0,0.0,0.0,0.0,0.0,0.0,0.0,0.0,0.0,0.0,0.0,0.0,0.0,0.0,0.0,0.0,5.2761,5.2761,5.2779,5.2761,5.2761,5.2761,5.2806,5.2889,5.3572,5.4971,5.5087,5.5801,5.7188,5.7289,5.7388,5.7388,5.7504,5.7601,5.7601,5.7601,5.7601,5.7534,0.0,5.7437,5.7553,5.7406,5.7455,5.7553,5.7388,5.7356,5.7356,5.7239,5.7289,5.7388,0.0,0.0,0.0,0.0,0.0,0.0,0.0,0.0,0.0,0.0,0.0,0.0,0.0,0.0,0.0,0.0,0.0,0.0,0.0,0.0,0.0,2.9506,2.9403,2.8579,2.6944,2.8369,2.9168,2.9278,3.08,3.1614,3.18,3.1576,3.1596,3.1821,3.1815,3.2633,3.4037,3.4271,3.5059,3.6182,0.0,0.0,0.0,0.0,0.0,0.0,0.0,0.0,0.0,0.0,4.0254,4.0385,4.0171,0.0,0.0,0.0,0.0,0.0,4.6358,4.666,4.7017,4.7572,4.7717,0.0,0.0,0.0,0.0,0.0,0.0,0.0,0.0,0.0,0.0,0.0,0.0,0.0,0.0,0.0,0.0,0.0,0.0,0.0,5.2893,5.285,5.2806,5.2893,5.2912,5.2955,5.3017,5.2955,5.3642,5.5158,5.5166,5.5818,5.7388,5.7553,5.7601,5.7504,5.7601,5.7697,5.7792,5.7792,5.7792,5.7697,0.0,5.7601,5.7601,5.7553,5.7534,5.7601,5.7553,5.7504,5.7504,5.7504,5.7504,5.7553,0.0,0.0,0.0,0.0,0.0,0.0,0.0,0.0,0.0,0.0,0.0,0.0,0.0,0.0,0.0,0.0,0.0,0.0,0.0,0.0,3.0759,2.9541,2.9283,2.8442,2.6959,2.837,2.9151,2.9262,3.0782,3.1593,3.1746,3.1576,3.1596,3.1783,3.2134,3.2923,3.4037,3.4875,3.5469,3.5941,0.0,0.0,0.0,0.0,0.0,0.0,0.0,0.0,0.0,0.0,0.0,0.0,0.0,0.0,0.0,4.2377,4.3992,4.5888,4.6046,4.6595,4.7214,0.0,0.0,0.0,0.0,0.0,0.0,0.0,0.0,0.0,0.0,0.0,0.0,0.0,0.0,0.0,0.0,0.0,0.0,0.0,0.0,5.2912,5.3042,5.2955,5.2955,5.3042,5.3109,5.3193,5.3295,5.3235,5.3867,5.5482,5.5332,5.6025,5.7583,5.7697,5.7697,5.7649,5.7697,5.7792,5.7997,5.7997,5.795,5.7857,5.7792,5.7745,5.7697,5.7649,5.7726,5.7802,5.7679,5.7679,5.7755,5.7895,5.7895,5.7802,0.0,0.0,0.0,0.0,0.0,0.0,0.0,0.0,0.0,0.0,0.0,0.0,0.0,0.0,0.0,0.0,0.0,0.0,0.0,0.0,3.0244,2.9454,2.8801,2.7994,2.7024,2.8389,2.9102,2.9104,3.0728,3.1538,3.1617,3.1538,3.1445,3.1368,3.2015,3.2946,3.4064,3.4858,3.5821,3.6781,3.6451,0.0,0.0,0.0,0.0,0.0,0.0,0.0,0.0,0.0,0.0,0.0,0.0,0.0,4.1459,4.2083,4.363,4.522,4.5905,4.6845,4.7657,4.7699,0.0,0.0,0.0,0.0,0.0,0.0,0.0,0.0,0.0,0.0,0.0,0.0,0.0,0.0,0.0,0.0,0.0,0.0,0.0,5.3164,5.3164,5.3164,5.3164,5.3164,5.3484,5.3643,5.3643,5.3643,5.4327,5.5817,5.5563,5.6118,5.7583,5.7601,5.7697,5.7792,5.7904,5.7997,5.7997,5.7997,5.7997,5.7997,5.7839,5.7857,5.795,5.7857,5.8078,5.8461,5.7987,5.7923,5.8146,5.8295,5.8357,5.8357,0.0,0.0,0.0,0.0,0.0,0.0,0.0,0.0,0.0,0.0,0.0,0.0,0.0,0.0,0.0,0.0,0.0,0.0,0.0,0.0,3.0263,2.9489,2.8766,2.8199,2.7825,2.8715,2.9379,2.9782,3.097,3.1596,3.1617,3.1538,3.1423,3.1346,3.2466,3.3202,3.3748,3.5253,3.5983,3.6139,3.6516,3.6533,0.0,0.0,0.0,0.0,0.0,0.0,0.0,0.0,4.007,4.007,4.007,4.0595,4.1339,4.2066,4.3595,4.5198,4.6002,4.7017,4.7842,0.0,0.0,0.0,0.0,0.0,0.0,0.0,0.0,0.0,0.0,0.0,0.0,0.0,0.0,0.0,0.0,0.0,0.0,0.0,5.3164,5.3206,5.3206,5.3206,5.3272,5.3502,5.3623,5.3833,5.4052,5.4088,5.4671,5.598,5.5891,5.6466,5.7839,5.7857,5.7886,5.7932,5.7886,5.7904,5.7997,5.7997,5.7997,5.7997,5.795,5.795,5.8042,5.8213,5.8437,5.8586,5.8669,5.8713,5.8833,5.8872,5.8891,5.8912,0.0,0.0,0.0,0.0,0.0,0.0,0.0,0.0,0.0,0.0,0.0,0.0,0.0,0.0,0.0,0.0,0.0,0.0,0.0,3.0731,2.9972,2.9111,2.8404,2.8249,2.863,2.9007,2.9515,3.0207,3.1107,3.1596,3.1617,3.1538,3.1619,3.1935,3.3059,3.3799,3.4271,3.5832,3.6308,3.6054,3.6661,3.6759,0.0,0.0,0.0,0.0,0.0,0.0,0.0,0.0,4.0221,4.0303,4.0121,4.0443,4.1086,4.2192,4.3573,4.4976,4.6236,4.724,4.7947,0.0,0.0,0.0,0.0,0.0,0.0,0.0,0.0,0.0,0.0,0.0,0.0,0.0,0.0,0.0,0.0,0.0,0.0,5.3206,5.3206,5.3206,5.3206,5.3206,5.3336,5.3682,5.3833,5.4052,5.443,5.4364,5.4978,5.6444,5.6134,5.6681,5.8168,5.807,5.7997,5.7997,5.7904,5.7904,5.7997,5.7997,5.7997,5.7997,5.7997,5.807,5.8213,5.8479,5.8669,5.8812,5.9233,5.9397,5.9397,5.9397,5.9397,5.9397,0.0,0.0,0.0,0.0,0.0,0.0,0.0,0.0,0.0,0.0,0.0,0.0,0.0,0.0,0.0,0.0,0.0,0.0,0.0,2.9868,2.9093,2.8236,2.7614,2.7973,2.9385,2.928,2.9532,3.0207,3.1066,3.1538,3.1617,3.1538,3.2084,3.3127,3.3723,3.4679,3.5867,3.6584,3.69,3.69,3.69,3.69,3.686,0.0,0.0,0.0,0.0,0.0,0.0,0.0,4.0385,4.0707,4.0254,4.0138,4.0527,4.2513,4.358,4.4536,4.6543,4.7542,0.0,0.0,0.0,0.0,0.0,0.0,0.0,0.0,0.0,0.0,0.0,0.0,0.0,0.0,0.0,0.0,0.0,0.0,5.3206,5.3206,5.3206,5.3206,5.3206,5.3206,5.3336,5.3682,5.4088,5.443,5.4776,5.4495,5.5235,5.722,5.6211,5.6571,5.8549,5.8213,5.7997,5.7997,5.7997,5.7997,5.7997,5.7997,5.7997,5.7997,5.7997,5.8213,5.8586,5.8628,5.8852,5.9233,5.9639,5.9809,5.9809,5.9809,5.9809,5.9809,0.0,0.0,0.0,0.0,0.0,0.0,0.0,0.0,0.0,0.0,0.0,0.0,0.0,0.0,0.0,0.0,0.0,0.0,0.0,2.9903,2.9145,2.8387,2.8163,2.8523,2.9472,3.036,3.0916,3.11,3.1359,3.1538,3.1617,3.1785,3.2293,3.3147,0.0,3.4984,3.5927,3.6605,3.6939,3.6999,3.7228,3.7152,3.697,0.0,0.0,0.0,0.0,0.0,0.0,0.0,0.0,0.0,4.0676,4.1133,4.1977,4.3236,4.4509,4.5745,4.6855,4.765,0.0,0.0,0.0,0.0,0.0,0.0,0.0,0.0,0.0,0.0,0.0,0.0,0.0,0.0,0.0,0.0,0.0,5.3206,5.3206,5.3206,5.3206,5.3206,5.3206,5.3206,5.344,5.4088,5.4228,5.4578,5.5187,5.5132,5.5474,5.6349,5.6643,5.7208,5.8109,5.8611,5.871,5.8394,5.8394,5.8257,5.7997,5.7997,5.7997,5.8042,5.8301,5.8479,5.8628,5.9196,5.9673,6.0068,6.0178,6.0207,6.0207,6.0207,6.0207,6.0207,0.0,0.0,0.0,0.0,0.0,0.0,0.0,0.0,0.0,0.0,0.0,0.0,0.0,0.0,0.0,0.0,0.0,0.0,0.0,0.0,2.9041,2.8006,2.823,2.8852,2.9868,3.0959,3.15,3.1538,3.15,3.1614,3.1839,3.2298,3.3018,3.4005,0.0,3.5793,3.6592,3.7013,3.7208,3.7228,3.7414,3.7665,3.7947,0.0,0.0,0.0,0.0,0.0,0.0,0.0,0.0,0.0,4.0724,4.1432,4.2603,4.368,4.5027,4.6392,4.7331,0.0,0.0,0.0,0.0,0.0,0.0,0.0,0.0,0.0,0.0,0.0,0.0,0.0,0.0,0.0,0.0,0.0,0.0,5.3621,5.3582,5.34,5.34,5.3336,5.3206,5.3206,5.3521,5.4228,5.4315,5.461,5.5377,5.526,5.5474,5.6216,5.6759,5.7408,5.8132,5.8837,5.9103,5.8831,5.8831,5.8628,5.8213,5.807,5.7997,5.8042,5.8586,5.893,5.9122,5.9758,6.0178,6.0389,6.0389,6.0389,6.0389,6.0389,6.0389,6.0389,0.0,0.0,0.0,0.0,0.0,0.0,0.0,0.0,0.0,0.0,0.0,0.0,0.0,0.0,0.0,0.0,0.0,0.0,0.0,0.0,2.8868,2.7454,2.8211,2.9282,3.0587,3.1233,3.1614,3.1654,3.1538,3.1746,3.2232,0.0,3.3988,3.5354,0.0,3.6932,3.7578,3.7685,3.7685,3.7578,3.7578,3.8277,3.9299,3.8976,0.0,0.0,0.0,0.0,0.0,0.0,0.0,0.0,4.0741,4.1484,4.2921,4.4077,4.5419,4.6726,0.0,0.0,0.0,0.0,0.0,0.0,0.0,0.0,0.0,0.0,0.0,0.0,0.0,0.0,0.0,0.0,0.0,0.0,0.0,5.4315,5.4158,5.3795,5.3758,5.3623,5.3355,5.3314,5.3582,5.4296,5.4349,5.4642,5.5377,5.5038,5.5361,5.6454,5.6627,5.7243,5.842,5.8955,5.9195,5.9233,5.9233,5.9046,5.8628,5.8213,5.807,5.8142,5.887,5.9467,5.9874,6.0237,6.0389,6.0389,6.0389,6.0389,6.0389,6.0389,6.0389,6.0389,0.0,0.0,0.0,0.0,0.0,0.0,0.0,0.0,0.0,0.0,0.0,0.0,0.0,0.0,0.0,0.0,0.0,0.0,0.0,0.0,2.911,2.8196,2.9739,3.0872,3.1504,3.1861,3.2073,3.2144,3.1709,0.0,0.0,0.0,0.0,3.549,0.0,3.7443,3.8201,3.8171,3.8204,3.8201,3.8104,3.8366,3.8921,3.9788,4.0579,0.0,0.0,0.0,0.0,0.0,0.0,0.0,4.1753,4.2992,4.4759,4.52,4.6549,4.7913,0.0,0.0,0.0,0.0,0.0,0.0,0.0,0.0,0.0,0.0,0.0,0.0,0.0,0.0,0.0,0.0,0.0,0.0,0.0,5.4315,5.4281,5.4193,5.4158,5.4123,5.4071,5.4071,5.4228,5.4654,5.4685,5.4903,5.5358,5.5332,5.5382,5.5651,5.6262,5.7054,5.8006,5.8768,5.9323,5.9692,5.9692,5.9467,5.9065,5.8669,5.8628,5.8949,5.9122,5.9605,6.0285,6.0342,6.0389,6.0389,6.0389,6.0389,6.0389,6.0389,6.0389,6.0389,0.0,0.0,0.0,0.0,0.0,0.0,0.0,0.0,0.0,0.0,0.0,0.0,0.0,0.0,0.0,0.0,0.0,0.0,0.0,0.0,0.0,2.9166,3.0464,3.1444,3.2038,3.2144,3.2249,3.2283,0.0,0.0,0.0,0.0,0.0,3.639,0.0,3.8,3.8382,3.8368,3.8354,3.8391,3.8658,3.9137,3.9752,4.0709,4.1467,4.2111,4.2411,0.0,0.0,0.0,0.0,0.0,0.0,0.0,4.5312,4.543,4.6811,4.8306,0.0,0.0,0.0,0.0,0.0,0.0,0.0,0.0,0.0,0.0,0.0,0.0,0.0,0.0,0.0,0.0,0.0,0.0,5.4784,5.4833,5.4754,5.456,5.4528,5.4463,5.4315,5.4315,5.443,5.4776,5.4806,5.4962,5.5377,5.5403,5.5403,5.5403,5.6186,5.6816,5.7275,5.8498,5.9216,5.946,5.9889,5.9874,5.9467,5.9084,5.9122,5.9502,5.9502,5.9823,6.0389,6.0389,6.0389,6.0389,6.0389,6.0389,6.0389,6.0389,6.0389,6.0389,0.0,0.0,0.0,0.0,0.0,0.0,0.0,0.0,0.0,0.0,0.0,0.0,0.0,0.0,0.0,0.0,0.0,0.0,0.0,0.0,0.0,0.0,3.1014,3.1735,3.23,3.23,3.2335,0.0,0.0,0.0,0.0,0.0,0.0,3.7326,0.0,3.8478,3.8415,3.8415,3.846,3.8561,3.9184,4.0,4.0978,4.1542,4.2304,4.3104,4.2994,4.2938,4.2844,4.2555,0.0,0.0,0.0,0.0,4.5449,4.5555,4.6903,4.8306,0.0,0.0,0.0,0.0,0.0,0.0,0.0,0.0,0.0,0.0,0.0,0.0,0.0,0.0,0.0,0.0,0.0,5.5038,5.5358,5.5403,5.5286,5.4962,5.4914,5.4795,5.4514,5.4482,5.461,5.4884,5.4914,5.5038,5.5377,5.5403,5.5403,5.5403,5.6052,5.6454,5.6587,5.7982,5.8822,5.9109,5.9969,6.0237,5.9906,5.9571,5.9537,5.9791,5.9791,6.0019,6.0389,6.0389,6.0389,6.0389,6.0389,6.0389,6.0389,6.0389,6.0389,6.0389,0.0,0.0,0.0,0.0,0.0,0.0,0.0,0.0,0.0,0.0,0.0,0.0,0.0,0.0,0.0,0.0,0.0,0.0,2.8644,0.0,0.0,3.1001,3.2019,3.2479,3.2318,3.2586,3.2731,0.0,0.0,0.0,0.0,0.0,0.0,3.7326,0.0,0.0,3.8478,3.8415,3.8802,3.9425,3.9467,4.0397,4.1741,4.1886,4.245,0.0,0.0,0.0,4.2862,4.2631,4.2824,0.0,0.0,0.0,4.5957,4.6671,4.7552,0.0,0.0,0.0,0.0,0.0,0.0,0.0,0.0,0.0,0.0,0.0,0.0,0.0,0.0,0.0,0.0,0.0,5.4419,5.5332,5.5403,5.5403,5.5377,5.5332,5.5332,5.5305,5.526,5.526,5.526,5.5332,5.5332,5.5332,5.5403,5.5403,5.5403,5.5403,5.5498,5.588,5.6587,5.6816,5.7657,5.9109,5.9969,6.0389,6.0313,6.0266,6.0099,5.9791,5.9791,6.0019,6.0389,6.0389,6.0389,6.0389,6.0389,6.0389,6.0389,6.0389,6.0389,6.0389,0.0,0.0,0.0,0.0,0.0,0.0,0.0,0.0,0.0,0.0,0.0,0.0,0.0,0.0,0.0,3.0713,3.0282,2.973,2.9058,3.0051,3.0826,3.1177,3.2243,3.2749,3.2586,3.2731,3.289,0.0,0.0,0.0,0.0,3.6529,3.7168,0.0,0.0,0.0,0.0,0.0,0.0,3.9743,4.0081,4.0955,0.0,0.0,0.0,0.0,0.0,0.0,0.0,0.0,4.316,4.3433,4.42,0.0,0.0,0.0,0.0,0.0,0.0,0.0,0.0,0.0,0.0,0.0,0.0,0.0,0.0,0.0,0.0,0.0,0.0,0.0,0.0,0.0,5.4486,5.5403,5.5403,5.5403,5.5403,5.5403,5.5403,5.5403,5.5403,5.5403,5.5403,5.5403,5.5403,5.5403,5.5403,5.5403,5.5403,5.5403,5.5403,5.5575,5.5919,5.6358,5.7447,5.9109,5.9491,5.9931,6.0389,6.0389,6.0313,6.0129,6.0129,6.0237,6.0389,6.0389,6.0389,6.0389,6.0389,6.0389,6.0389,6.0389,6.0389,6.0389,0.0,0.0,0.0,0.0,0.0,0.0,0.0,0.0,0.0,0.0,0.0,0.0,0.0,0.0,0.0,0.0,3.0024,2.9834,2.9937,3.0828,3.1396,3.159,3.2382,3.2795,3.2795,3.2795,0.0,0.0,0.0,0.0,3.6615,3.7202,3.7918,0.0,3.8707,0.0,0.0,0.0,0.0,0.0,0.0,0.0,0.0,0.0,0.0,0.0,0.0,0.0,0.0,0.0,0.0,0.0,0.0,0.0,0.0,0.0,0.0,0.0,0.0,0.0,0.0,0.0,0.0,0.0,0.0,0.0,0.0,0.0,0.0,0.0,0.0,0.0,0.0,5.3034,5.4245,5.5154,5.5365,5.5403,5.5403,5.5403,5.5403,5.5403,5.5403,5.5403,5.5403,5.5403,5.5403,5.5403,5.5403,5.5403,5.5403,5.5403,5.5403,5.5403,5.5403,5.6205,5.7218,5.8479,5.8899,5.9434,6.0083,6.0293,6.0389,6.0389,6.0389,6.0389,6.0389,6.0389,6.0389,6.0389,6.0389,6.0389,6.0389,6.0389,6.0389,6.0389,0.0,0.0,0.0,0.0,0.0,0.0,0.0,0.0,0.0,0.0,0.0,0.0,0.0,3.1532,3.1145,2.9696,3.0213,3.0786,3.1091,3.1466,3.1992,3.2674,3.2777,0.0,3.2795,0.0,0.0,0.0,0.0,0.0,3.7452,3.7489,3.7918,3.8707,3.8707,3.8707,3.8762,0.0,0.0,0.0,0.0,4.2589,0.0,0.0,0.0,0.0,0.0,0.0,0.0,0.0,0.0,0.0,0.0,0.0,0.0,0.0,0.0,0.0,0.0,0.0,0.0,0.0,0.0,0.0,0.0,0.0,0.0,0.0,0.0,0.0,0.0,0.0,0.0,5.2229,5.337,5.4467,5.5288,5.5403,5.5403,5.5403,5.5403,5.5403,5.5403,5.5403,5.5403,5.5403,5.5403,5.5403,5.5403,5.5403,5.5403,5.5403,5.5403,5.5403,5.5403,5.6205,5.6625,5.674,5.8345,5.9128,5.9205,6.0007,6.0389,6.0389,6.0389,6.0389,6.0389,6.0389,6.0389,6.0389,6.0389,6.0389,6.0389,6.0389,6.0389,6.0389,0.0,0.0,0.0,0.0,0.0,0.0,0.0,0.0,0.0,0.0,0.0,0.0,0.0,3.1737,3.1269,3.0935,3.1197,3.16,3.2175,3.2339,3.2509,3.2795,3.2795,3.289,3.3124,0.0,0.0,0.0,0.0,3.6909,3.7526,3.8028,3.8414,3.8707,3.8707,3.8707,3.8762,3.9538,0.0,0.0,4.1941,4.2748,0.0,0.0,0.0,0.0,0.0,0.0,0.0,0.0,0.0,0.0,0.0,0.0,0.0,0.0,0.0,0.0,0.0,0.0,0.0,0.0,0.0,0.0,0.0,0.0,0.0,0.0,0.0,0.0,0.0,0.0,5.1269,5.177,5.266,5.3569,5.4448,5.4581,5.4772,5.5326,5.5403,5.5403,5.5403,5.5403,5.5403,5.5403,5.5403,5.5403,5.5403,5.5403,5.5403,5.5403,5.5403,5.5403,5.5403,5.5689,5.6091,5.6606,5.7199,5.8058,5.9109,5.9415,5.9873,6.0389,6.0389,6.0389,6.0389,6.0389,6.0389,6.0389,6.0389,6.0389,6.0389,6.0389,6.0389,6.0389,0.0,0.0,0.0,0.0,0.0,0.0,0.0,0.0,0.0,0.0,0.0,0.0,0.0,0.0,3.1841,3.2045,3.2076,3.2322,3.2934,3.297,3.297,3.297,3.297,3.3219,3.3701,0.0,0.0,0.0,0.0,0.0,0.0,0.0,3.8707,3.8707,3.8982,0.0,0.0,0.0,0.0,4.1589,0.0,4.302,4.3497,0.0,0.0,0.0,0.0,0.0,0.0,0.0,0.0,0.0,0.0,0.0,0.0,0.0,0.0,0.0,0.0,0.0,0.0,0.0,0.0,0.0,0.0,0.0,0.0,0.0,0.0,0.0,0.0,0.0,5.1002,5.152,5.2059,5.269,5.3531,5.3913,5.4314,5.4887,5.5231,5.5403,5.5403,5.5403,5.5403,5.5403,5.5403,0.0,5.5403,5.5403,5.5403,5.5403,5.5403,5.5403,5.5403,5.5403,5.567,5.6205,5.6473,5.7179,5.8288,5.8842,5.9415,5.9969,6.0255,6.0389,6.0389,6.0389,6.0389,6.0389,6.0389,6.0389,6.0389,6.0389,6.0389,6.0389,0.0,0.0,0.0,0.0,0.0,0.0,0.0,0.0,0.0,0.0,0.0,0.0,0.0,0.0,0.0,3.2827,3.2827,3.297,3.3273,3.3339,3.3357,3.3357,3.3375,3.3737,3.4546,0.0,0.0,0.0,0.0,0.0,0.0,0.0,3.8707,0.0,3.9551,3.9918,4.001,0.0,4.1589,4.2378,0.0,4.3532,4.3513,0.0,0.0,0.0,4.3513,4.3513,0.0,0.0,0.0,0.0,0.0,0.0,0.0,0.0,0.0,0.0,0.0,0.0,0.0,0.0,0.0,0.0,0.0,0.0,0.0,0.0,0.0,0.0,0.0,5.0302,5.0588,5.1429,5.1563,5.1849,5.2652,5.3492,5.4046,5.4065,5.4811,5.5326,5.5365,5.5365,5.5365,5.5403,5.5403,5.5403,5.5403,5.5403,5.5403,5.5403,5.5403,5.5403,5.5403,5.5403,5.5403,5.5422,5.6186,5.6568,5.6645,5.8288,5.9052,5.9166,5.9988,6.037,6.0389,6.0389,6.0389,6.0389,6.0389,6.0389,6.0389,6.0389,6.0389,6.0389,0.0,0.0,0.0,0.0,0.0,0.0,0.0,0.0,0.0,0.0,0.0,0.0,0.0,0.0,3.3522,3.3522,3.3522,3.355,3.3652,3.3964,3.4261,3.453,3.4836,3.5272,3.5802,0.0,0.0,0.0,0.0,0.0,0.0,0.0,0.0,0.0,3.979,4.0543,4.1644,4.1882,0.0,0.0,4.3167,4.3649,0.0,0.0,0.0,0.0,0.0,4.3878,4.3888,0.0,4.4525,4.4947,0.0,0.0,0.0,0.0,0.0,0.0,4.8306,0.0,0.0,0.0,0.0,0.0,0.0,0.0,0.0,0.0,0.0,0.0,5.0236,5.0302,5.0378,5.0627,5.0665,5.0971,5.1811,5.2136,5.2518,5.3091,5.3359,5.376,5.4409,5.4467,5.4715,0.0,5.5403,5.5403,5.5403,5.5403,5.5403,5.5403,5.5403,5.5403,5.5403,5.5403,5.5403,5.5403,5.5632,5.6033,5.6606,5.7084,5.7944,5.9109,5.9357,5.9816,6.0389,6.0389,6.0389,6.0389,6.0389,6.0389,6.0389,6.0389,6.0389,6.0389,0.0,0.0,0.0,0.0,0.0,0.0,0.0,0.0,0.0,0.0,0.0,0.0,0.0,0.0,0.0,3.4284,3.4302,3.4449,3.4816,3.5086,3.5341,3.5522,3.578,3.6218,3.678,0.0,0.0,0.0,0.0,0.0,0.0,0.0,0.0,0.0,0.0,0.0,0.0,0.0,0.0,0.0,4.3465,0.0,0.0,4.4121,4.426,0.0,0.0,0.0,4.4085,4.4705,4.5256,0.0,4.7205,0.0,0.0,0.0,0.0,0.0,0.0,0.0,0.0,0.0,0.0,0.0,4.89,4.9015,0.0,0.0,0.0,5.0076,5.0259,5.0302,5.0302,5.0302,5.0302,5.0474,5.099,5.1372,5.1773,5.2251,5.2594,5.2996,5.3511,5.355,5.3913,5.4791,5.4868,5.5021,5.5384,5.5403,5.5403,5.5403,5.5403,5.5403,5.5403,5.5403,5.5403,5.5403,5.5403,5.5651,5.611,5.6454,5.7332,5.8631,5.8956,5.9587,6.0389,6.0389,6.0389,6.0389,6.0389,6.0389,6.0389,6.0389,6.0389,6.0389,0.0,0.0,0.0,3.3807,3.3807,3.3807,0.0,0.0,0.0,0.0,0.0,0.0,0.0,0.0,0.0,0.0,3.5137,3.5477,3.6248,3.6376,3.6431,3.6431,3.6523,3.689,3.7606,3.8322,0.0,0.0,0.0,0.0,0.0,0.0,0.0,0.0,0.0,0.0,0.0,0.0,0.0,4.3582,4.3878,4.4036,0.0,0.0,4.4484,0.0,4.4438,4.4335,4.4296,4.5175,4.6292,4.7463,4.8143,4.8382,0.0,0.0,4.8306,0.0,0.0,0.0,0.0,0.0,0.0,0.0,4.9048,4.9209,4.9363,0.0,0.0,5.0144,5.0169,5.0188,5.0212,5.0236,5.0236,5.0259,5.0302,5.0971,5.1467,5.1467,5.2098,5.2556,5.2652,5.2671,5.3034,5.3894,5.4046,5.4486,5.5345,5.5403,5.5403,5.5403,5.5403,5.5403,5.5403,5.5403,5.5403,5.5403,5.5403,5.5403,5.5422,5.6129,5.6988,5.7944,5.867,5.951,6.0389,6.0389,6.0389,6.0389,6.0389,6.0389,6.0389,6.0389,6.0389,6.0389,0.0,0.0,0.0,3.3788,3.3807,3.3807,0.0,0.0,0.0,0.0,0.0,0.0,0.0,0.0,0.0,0.0,3.6046,3.6119,3.6285,3.689,3.7257,3.7257,3.7881,3.8303,3.8469,3.8615,3.8707,0.0,0.0,0.0,0.0,0.0,0.0,0.0,0.0,0.0,0.0,0.0,0.0,4.391,4.3974,0.0,4.465,4.4701,4.4887,4.5087,4.4819,4.4952,4.5477,0.0,4.7923,4.8842,0.0,0.0,0.0,0.0,0.0,0.0,0.0,0.0,0.0,0.0,0.0,0.0,4.8458,4.8495,4.8623,0.0,4.908,4.9177,4.9453,4.9483,4.957,4.9857,4.9903,4.9981,5.0259,5.0455,5.055,5.055,5.0684,5.1066,5.1773,5.183,5.2174,5.2996,5.3702,5.4486,5.5345,5.5403,5.5403,5.5403,5.5403,5.5403,5.5403,5.5403,5.5403,5.5403,5.5403,5.5403,5.5422,5.5556,5.6454,5.7905,5.8077,5.8994,6.0389,6.0389,6.0389,6.0389,6.0389,6.0389,6.0389,6.0389,6.0389,6.0389,3.3972,0.0,0.0,3.3807,3.3807,3.3807,3.3842,0.0,0.0,0.0,0.0,0.0,0.0,0.0,0.0,0.0,0.0,0.0,0.0,3.7863,3.8102,3.8102,3.8487,3.8707,3.8707,3.8707,3.8707,0.0,0.0,0.0,0.0,0.0,0.0,0.0,0.0,0.0,0.0,0.0,4.4279,4.4402,4.4402,0.0,4.4819,4.5,4.5132,4.5335,4.5567,4.6285,4.7184,4.7679,4.8375,0.0,0.0,4.8694,4.8532,0.0,4.8306,4.8306,0.0,0.0,0.0,4.8306,0.0,0.0,0.0,4.8569,4.864,4.8982,4.9048,4.9113,4.9252,0.0,4.9363,4.9512,4.9702,4.9857,5.0025,5.0193,5.0302,5.0302,5.0302,5.0474,5.0913,5.0951,5.1295,5.2136,5.3378,5.4295,5.4734,5.5174,5.5403,5.5403,5.5403,5.5403,5.5403,5.5403,5.5403,5.5403,5.5403,5.5403,5.5403,5.5403,5.632,5.7905,5.7905,5.8842,6.0389,6.0389,6.0389,6.0389,6.0389,6.0389,6.0389,6.0389,6.0389,6.0389,0.0,0.0,0.0,0.0,3.3842,3.386,3.3895,0.0,0.0,0.0,0.0,0.0,0.0,0.0,0.0,0.0,0.0,0.0,0.0,0.0,3.8762,3.8707,3.8707,3.8707,3.8707,3.8854,3.8927,3.8927,0.0,0.0,0.0,0.0,0.0,0.0,0.0,0.0,0.0,0.0,0.0,4.4825,0.0,4.491,4.4934,4.5194,4.5392,4.566,4.6568,4.7672,4.8674,4.8494,0.0,4.9001,4.8934,4.8711,0.0,0.0,0.0,0.0,0.0,0.0,0.0,0.0,0.0,4.8364,0.0,0.0,0.0,4.9048,4.9113,0.0,0.0,0.0,0.0,0.0,0.0,0.0,0.0,5.0024,0.0,5.0278,5.0302,5.0302,5.0302,5.0302,5.0665,5.1544,5.2862,5.376,5.4085,5.4772,5.5231,5.5403,5.5403,5.5403,5.5403,5.5384,5.5409,5.5409,5.5409,5.5409,5.5409,5.5403,5.6224,5.7657,5.7829,5.8765,6.016,6.0332,6.0389,6.0389,6.0389,6.0389,6.0389,6.0389,6.0389,6.0389,3.4023,3.3998,0.0,0.0,3.3972,3.3972,3.3998,0.0,0.0,0.0,0.0,0.0,0.0,0.0,0.0,0.0,0.0,0.0,3.9044,0.0,0.0,3.8689,3.8707,3.8707,3.8707,3.9405,3.9753,3.9753,0.0,0.0,0.0,0.0,0.0,0.0,4.3812,0.0,0.0,0.0,4.4849,0.0,4.5216,4.5317,0.0,4.5297,4.5736,4.6555,4.7859,4.8656,4.9105,0.0,4.9654,4.9627,0.0,4.924,4.908,0.0,0.0,0.0,0.0,0.0,0.0,0.0,4.8306,0.0,0.0,0.0,4.8364,4.8402,0.0,0.0,0.0,0.0,0.0,0.0,0.0,0.0,5.0297,4.9845,4.9627,5.0236,5.0302,5.0302,5.0302,5.0302,5.0665,5.1544,5.1792,5.2537,5.4027,5.4199,5.46,5.5384,5.5403,5.5403,5.5403,5.5396,5.5383,5.5383,5.5383,5.5383,5.5402,5.5409,5.5899,5.6778,5.7562,5.8402,5.9319,6.0083,6.0389,6.0389,6.0389,6.0389,6.0389,6.0389,6.0389,6.0389,3.4074,0.0,0.0,0.0,3.3998,3.4023,3.4049,0.0,0.0,0.0,0.0,0.0,0.0,0.0,0.0,0.0,0.0,3.9099,0.0,0.0,0.0,0.0,3.9405,3.9606,4.0084,4.0432,4.0598,4.0598,4.1405,0.0,0.0,0.0,0.0,0.0,4.4194,0.0,4.4833,0.0,0.0,0.0,0.0,0.0,0.0,4.6258,4.6866,4.8105,4.8662,4.9277,4.982,0.0,4.9955,0.0,0.0,0.0,0.0,0.0,0.0,0.0,0.0,0.0,0.0,0.0,0.0,0.0,4.8326,0.0,4.8306,0.0,0.0,0.0,0.0,0.0,0.0,0.0,4.8898,0.0,0.0,0.0,4.9405,0.0,0.0,0.0,5.0278,5.012,5.0228,5.0794,5.1129,5.191,5.3282,5.3836,5.4505,5.5365,5.5403,5.5409,5.5396,5.5402,5.5432,5.5456,5.5456,5.5456,5.5456,5.5421,5.5855,5.6722,5.7576,5.8372,5.9166,6.0081,6.0444,6.0389,6.0444,6.0444,6.0389,6.0444,6.0444,6.0389,0.0,0.0,0.0,0.0,0.0,0.0,0.0,0.0,0.0,0.0,0.0,0.0,3.8748,3.8892,0.0,0.0,0.0,3.9364,0.0,0.0,3.9829,0.0,0.0,0.0,0.0,4.1379,4.1442,4.1442,4.2231,0.0,0.0,0.0,0.0,0.0,0.0,4.4795,4.5258,0.0,0.0,4.6724,4.6724,4.7376,4.8277,4.7583,4.8077,4.9143,4.9379,4.9835,5.0325,5.0325,5.0076,0.0,4.9803,0.0,0.0,0.0,0.0,0.0,4.8676,0.0,0.0,0.0,0.0,0.0,0.0,0.0,0.0,0.0,0.0,0.0,0.0,0.0,0.0,0.0,0.0,4.8732,0.0,0.0,0.0,0.0,0.0,0.0,0.0,4.983,4.9849,5.0169,5.0589,5.1319,5.2451,5.3312,5.4192,5.5046,5.5295,5.5396,5.5408,5.5432,5.5456,5.5527,5.5527,5.5527,5.5527,5.5456,5.5777,5.6428,5.7538,5.8336,5.8915,6.0059,6.0499,6.0472,6.0525,6.0525,6.0472,6.0499,6.0499,6.0444,3.4197,3.4197,0.0,0.0,0.0,0.0,0.0,0.0,0.0,0.0,0.0,0.0,0.0,0.0,0.0,0.0,0.0,4.0081,4.0081,0.0,4.1121,0.0,0.0,4.1567,0.0,0.0,4.2268,4.2268,4.3057,0.0,0.0,0.0,0.0,0.0,0.0,4.465,4.4938,4.5263,4.5956,4.6801,4.6801,4.7799,4.9239,0.0,4.9097,4.9207,5.0134,0.0,0.0,5.0412,5.0125,0.0,0.0,0.0,0.0,0.0,0.0,0.0,0.0,0.0,0.0,4.8781,0.0,0.0,0.0,0.0,4.8306,0.0,0.0,0.0,0.0,0.0,0.0,4.9407,0.0,0.0,0.0,0.0,0.0,0.0,0.0,0.0,0.0,4.9431,4.9627,4.9884,5.0038,5.0588,5.1686,5.2571,5.3388,5.4197,5.5006,5.5408,5.5408,5.5456,5.5527,5.5596,5.5596,5.5596,5.5596,5.5527,5.5523,5.5638,5.7345,5.8111,5.8265,5.9933,6.0604,6.0604,6.068,6.0635,6.0604,6.0604,6.0604,6.0604,0.0,0.0,0.0,0.0,0.0,0.0,0.0,3.7991,0.0,0.0,0.0,0.0,0.0,0.0,3.966,0.0,0.0,4.0882,4.0882,4.1684,0.0,0.0,0.0,4.2866,0.0,0.0,4.331,4.3075,0.0,0.0,0.0,0.0,0.0,0.0,0.0,4.4966,0.0,0.0,0.0,0.0,0.0,4.9702,5.0161,0.0,0.0,5.0076,5.0446,5.0521,0.0,5.0412,5.0325,5.0193,5.0144,5.0144,5.0076,4.973,4.973,0.0,0.0,0.0,4.9522,4.9252,0.0,0.0,0.0,0.0,0.0,0.0,0.0,0.0,0.0,0.0,4.8456,4.8975,4.8623,0.0,0.0,0.0,0.0,0.0,0.0,0.0,0.0,0.0,4.9589,5.0019,5.0025,5.0517,5.1647,5.2532,5.3372,5.423,5.5035,5.548,5.5527,5.5551,5.5596,5.5682,5.5682,5.5682,5.5662,5.5596,5.5573,5.5669,5.7416,5.8141,5.8226,5.9964,6.0655,6.0604,6.066,6.0704,6.068,6.068,6.0655,6.0604,3.6953,0.0,0.0,0.0,0.0,0.0,0.0,0.0,0.0,0.0,3.9683,0.0,4.0125,0.0,4.0494,0.0,4.1571,4.1953,4.1953,4.2738,0.0,4.3634,4.3839,0.0,0.0,4.4173,4.3999,0.0,0.0,4.3809,0.0,0.0,0.0,0.0,0.0,0.0,4.5956,0.0,4.7798,0.0,0.0,5.0663,0.0,0.0,5.0603,5.0542,0.0,5.0603,5.0521,5.0478,5.0457,5.0435,5.0371,5.0348,5.0283,5.0076,5.0032,5.0032,4.9811,4.9891,0.0,4.9664,4.9504,0.0,4.908,0.0,0.0,0.0,0.0,0.0,0.0,0.0,0.0,4.8781,4.8623,4.8439,0.0,4.8306,0.0,0.0,0.0,0.0,0.0,0.0,4.9541,5.0051,5.0062,5.0455,5.1291,5.2156,5.2998,5.384,5.4683,5.5263,5.5596,5.5596,5.5618,5.5703,5.5703,5.5703,5.5703,5.566,5.566,5.5737,5.7463,5.8208,5.8299,6.0037,6.0729,6.068,6.0729,6.0753,6.0753,6.0753,6.0704,6.068,0.0,0.0,0.0,0.0,3.7986,0.0,0.0,0.0,3.9819,0.0,3.9857,4.0176,4.095,4.1319,4.1781,4.2564,4.2945,0.0,4.3162,4.3912,0.0,0.0,4.4862,4.5118,4.5096,4.4519,0.0,0.0,0.0,0.0,0.0,0.0,0.0,0.0,4.5982,0.0,4.6916,4.778,4.8664,4.9529,5.0356,5.0702,5.0702,5.0702,5.0663,5.0603,5.0682,5.0643,5.0603,5.0603,5.0562,5.05,5.05,5.0457,5.0412,5.0412,5.0412,5.0412,5.0412,5.024,5.0019,5.0019,4.9773,0.0,0.0,0.0,4.9405,0.0,0.0,0.0,0.0,0.0,0.0,4.8866,4.8816,4.864,0.0,0.0,0.0,0.0,0.0,0.0,0.0,4.908,4.9453,5.0043,5.0159,5.0358,0.0,5.1452,5.2258,5.308,5.3944,5.4789,5.5596,5.5596,5.566,5.5703,5.5703,5.5703,5.5703,5.5703,5.5703,5.5799,5.755,5.83,5.8434,6.0108,6.08,6.08,6.08,6.08,6.08,6.08,6.08,6.08,3.9193,3.9507,3.97,0.0,3.9605,3.9872,0.0,0.0,0.0,0.0,4.0711,4.1151,4.1549,4.2234,4.2748,4.2942,4.359,0.0,0.0,0.0,0.0,4.5259,4.5342,4.5302,4.5096,4.4896,0.0,4.458,0.0,0.0,4.4695,0.0,0.0,0.0,0.0,0.0,4.7818,4.8702,4.9586,5.0375,5.0606,5.0702,0.0,0.0,5.0683,5.0682,5.0683,5.0702,5.0682,5.0623,5.0582,5.0582,5.0521,5.05,5.0478,5.0478,5.05,5.0562,5.0562,5.0523,5.0523,5.0459,5.0202,4.9924,0.0,0.0,0.0,0.0,0.0,0.0,0.0,0.0,0.0,0.0,0.0,0.0,0.0,0.0,0.0,4.8457,0.0,0.0,4.8694,4.9171,4.9589,4.9865,5.0087,5.0358,5.0683,0.0,5.2091,5.3144,5.4028,5.4855,5.5662,5.5662,5.5662,5.5703,5.5703,5.5703,5.5703,5.5703,5.5703,5.5799,5.755,5.83,5.8434,6.0108,6.08,6.08,6.08,6.08,6.08,6.08,6.08,6.08,4.0101,0.0,0.0,4.0321,0.0,0.0,4.0379,0.0,0.0,4.105,4.1694,0.0,4.2838,4.3335,4.3778,4.4162,4.4605,0.0,4.4874,0.0,0.0,4.5586,4.5568,4.5457,4.5322,4.518,0.0,4.5033,0.0,0.0,4.5668,0.0,0.0,0.0,0.0,4.8664,0.0,4.9606,5.024,5.0702,5.0702,0.0,0.0,5.0702,5.0702,5.0702,5.0702,5.0702,5.0683,5.0643,5.0643,5.0643,5.0603,5.0582,5.0542,5.0542,5.0582,5.0603,5.0603,5.0643,5.0683,5.0643,5.0502,5.0336,5.0291,5.0111,5.0038,0.0,0.0,0.0,0.0,0.0,0.0,0.0,0.0,0.0,0.0,0.0,0.0,0.0,4.8837,0.0,4.8714,4.9405,4.9827,4.9784,5.0062,5.0294,5.0483,0.0,5.1622,5.3164,5.3683,5.4491,5.5684,5.5703,5.5703,5.5703,5.5703,5.5703,5.5703,5.5703,5.5703,5.5799,5.755,5.83,5.8434,6.0108,6.08,6.08,6.08,6.08,6.08,6.08,6.08,6.08,0.0,0.0,0.0,0.0,0.0,0.0,0.0,4.147,0.0,4.197,0.0,4.3528,4.422,4.4393,4.4778,4.5528,0.0,4.5586,4.5586,4.5586,4.5586,4.5586,4.5586,4.5586,4.5586,4.5362,0.0,0.0,0.0,0.0,0.0,0.0,0.0,0.0,0.0,0.0,0.0,5.0375,5.0702,5.0702,5.0702,5.0702,5.0702,5.0702,5.0702,5.0702,5.0702,5.0702,5.0702,5.0702,5.0702,5.0702,5.0702,5.0663,5.0603,5.0603,5.0603,5.0603,5.0603,5.0663,5.0702,5.0702,5.0702,5.0683,5.0623,5.0603,5.0603,5.0521,5.0521,5.0521,0.0,0.0,0.0,0.0,0.0,0.0,0.0,0.0,0.0,0.0,0.0,0.0,4.8822,4.9589,5.0012,4.9776,4.9943,5.0135,5.0206,0.0,5.1101,5.3124,5.3203,5.401,5.5684,5.5703,5.5703,5.5703,5.5703,5.5703,5.5703,5.5703,5.5703,5.5799,5.755,5.83,5.8434,6.0108,6.08,6.08,6.08,6.08,6.08,6.08,6.08,6.08,0.0,0.0,0.0,0.0,0.0,4.2807,4.2668,4.2755,4.2874,4.2874,4.3585,4.4143,4.4278,4.4932,4.5432,4.5586,4.5586,0.0,0.0,0.0,0.0,4.5586,4.5586,4.5586,4.5586,4.5568,4.5896,0.0,0.0,0.0,0.0,0.0,0.0,0.0,0.0,0.0,5.0471,5.0625,0.0,5.0702,5.0702,5.0702,5.0702,5.0702,5.0702,5.0702,5.0702,5.0702,5.0702,5.0702,5.0702,5.0702,5.0702,5.0683,5.0683,5.0683,5.0683,5.0683,5.0683,5.0683,5.0702,5.0702,5.0702,5.0702,5.0702,5.0683,5.0663,5.0603,5.0582,5.0582,5.0521,0.0,0.0,0.0,0.0,0.0,0.0,0.0,0.0,0.0,0.0,4.9431,0.0,4.9283,4.9529,4.9488,4.9499,4.9721,0.0,0.0,5.0893,0.0,5.3203,0.0,0.0,0.0,5.5703,5.5703,5.5703,5.5703,5.5703,5.5703,5.5703,5.5799,5.755,5.83,5.8434,6.0108,6.08,6.08,6.08,6.08,6.08,6.08,6.08,6.08,0.0,0.0,0.0,0.0,0.0,0.0,0.0,4.4168,0.0,4.383,4.4468,4.5143,4.5605,4.6028,4.6432,4.6855,4.6894,4.6894,4.6894,4.6894,4.6701,4.6297,4.6278,0.0,4.5605,4.6028,4.649,4.6913,0.0,0.0,0.0,0.0,0.0,0.0,0.0,5.0702,0.0,0.0,0.0,5.0702,5.0702,5.0702,5.0702,5.0702,5.0702,5.0702,5.0702,5.0702,5.0702,5.0702,5.0702,5.0702,5.0702,5.0702,5.0702,5.0702,5.0702,5.0702,5.0702,5.0702,5.0702,5.0702,5.0702,5.0702,5.0702,5.0702,5.0683,5.0643,5.0643,5.0623,5.0563,5.0418,0.0,0.0,0.0,0.0,0.0,0.0,0.0,0.0,0.0,0.0,0.0,0.0,0.0,0.0,0.0,0.0,0.0,0.0,5.0843,0.0,0.0,0.0,5.5684,0.0,5.5703,5.5703,5.5703,5.5703,5.5703,5.5703,5.5703,5.5799,5.755,5.83,5.8434,6.0108,6.08,6.08,6.08,6.08,6.08,6.08,6.08,6.08,0.0,4.3366,0.0,0.0,4.4234,0.0,4.4828,4.5519,4.5696,4.48,4.5387,4.6142,4.6835,4.7048,4.7413,4.8048,4.8105,4.8105,4.8105,4.8105,4.7817,4.7182,4.7163,4.6836,4.6144,4.6797,4.7259,0.0,0.0,0.0,0.0,0.0,0.0,0.0,0.0,0.0,0.0,0.0,5.0702,5.0702,5.0702,5.0702,5.0702,5.0702,5.0702,5.0702,5.0702,5.0702,5.0702,5.0702,5.0702,5.0702,5.0702,5.0702,5.0702,5.0702,5.0702,5.0702,5.0702,5.0702,5.0702,5.0702,5.0702,5.0702,5.0702,5.0702,5.0702,5.0702,5.0702,5.0663,5.0603,5.0622,0.0,0.0,0.0,0.0,0.0,0.0,0.0,0.0,0.0,0.0,4.9499,0.0,0.0,0.0,0.0,0.0,5.0087,0.0,0.0,0.0,0.0,5.399,5.5599,0.0,5.5703,5.5703,5.5703,5.5703,5.5703,5.5703,5.5703,5.5799,5.755,5.8511,5.8934,6.0262,6.08,6.08,6.08,6.08,6.08,6.08,6.08,6.08,0.0,0.0,0.0,0.0,0.0,0.0,4.587,4.6602,4.6772,4.5715,4.6268,4.6812,4.6889,4.7547,4.8029,4.8086,4.8105,4.8105,4.8105,4.8105,4.8067,4.799,4.799,4.7952,4.7875,4.7952,4.8375,0.0,0.0,4.9721,0.0,0.0,0.0,0.0,0.0,0.0,0.0,5.0702,5.0702,5.0702,5.0702,5.0702,5.0702,5.0702,5.0702,5.0702,5.0702,5.0702,5.0702,5.0702,5.0702,5.0702,5.0702,5.0702,5.0702,5.0702,5.0702,5.0702,5.0702,5.0702,5.0702,5.0702,5.0702,5.0702,5.0702,5.0702,5.0702,5.0702,5.0702,5.0682,5.0622,5.0663,5.0663,0.0,0.0,0.0,0.0,0.0,0.0,0.0,0.0,0.0,0.0,4.9558,0.0,0.0,4.9529,0.0,0.0,0.0,0.0,5.2695,5.3039,5.3884,5.532,5.5573,5.5703,5.5703,5.5703,5.5703,5.5703,5.5703,5.5703,5.5799,5.755,5.9165,6.0569,6.0742,6.08,6.08,6.08,6.08,6.08,6.08,6.08,6.08,0.0,0.0,0.0,0.0,0.0,0.0,0.0,4.7135,4.7378,4.7436,4.7641,4.7976,4.8409,4.8757,4.9143,4.9606,4.9663,4.9663,4.9663,4.9663,4.9433,4.8894,4.8875,4.8644,4.8105,4.8606,4.9048,0.0,0.0,0.0,0.0,0.0,0.0,0.0,0.0,5.0702,5.0702,5.0702,5.0702,5.0702,5.0702,5.0702,5.0702,5.0702,5.0702,5.0702,5.0702,5.0702,5.0702,5.0702,5.0702,5.0702,5.0702,5.0702,5.0702,5.0702,5.0702,5.0702,5.0702,5.0702,5.0702,5.0702,5.0702,5.0702,5.0702,5.0702,5.0702,5.0702,5.0702,5.0683,5.0643,5.0663,5.0702,5.0642,0.0,0.0,0.0,0.0,0.0,0.0,0.0,0.0,0.0,0.0,0.0,0.0,0.0,0.0,0.0,0.0,0.0,5.2938,0.0,5.3949,5.5512,5.564,5.5703,5.5703,5.5703,5.5703,5.5703,5.5703,5.6261,5.73,5.8011,5.9242,6.08,6.08,6.08,6.08,6.08,6.08,6.08,6.08,6.08,6.08,4.5987,0.0,4.6119,0.0,4.6359,4.6752,4.7359,4.7878,4.8412,4.8938,4.9147,4.9351,4.9577,4.9793,5.0124,5.0721,5.0721,5.0702,5.0683,5.0702,5.0433,4.9798,4.9779,0.0,4.8875,4.9471,4.9779,4.9779,5.0394,0.0,0.0,0.0,0.0,0.0,5.0702,5.0702,5.0702,5.0702,5.0702,5.0702,5.0702,5.0702,5.0702,5.0702,5.0702,5.0702,5.0702,5.0702,5.0702,5.0702,5.0702,5.0702,5.0702,5.0702,5.0702,5.0702,5.0702,5.0702,5.0702,5.0702,5.0702,5.0702,5.0702,5.0702,5.0702,5.0702,5.0702,5.0702,5.0702,5.0702,5.0702,5.0702,5.0702,5.0702,0.0,0.0,0.0,0.0,0.0,0.0,5.0702,5.0604,5.0358,5.0087,0.0,0.0,0.0,0.0,0.0,0.0,0.0,0.0,0.0,0.0,5.5577,5.5662,5.5703,5.5703,5.5703,5.5703,5.5703,5.5972,5.6896,5.8319,5.855,5.9473,6.08,6.08,6.08,6.08,6.08,6.08,6.08,6.08,6.08,6.08,4.6098,4.6141,4.6201,4.6201,4.6963,4.7592,4.7606,4.9055,5.0114,4.9997,5.0736,5.0913,5.0008,5.0497,5.0874,5.0895,5.0779,5.0702,5.0683,5.0702,5.0702,0.0,0.0,5.0664,5.0664,5.0664,5.0683,5.0683,0.0,0.0,5.0702,0.0,5.0702,5.0702,5.0702,5.0702,5.0702,5.0702,5.0702,5.0702,5.0702,5.0702,5.0702,5.0702,5.0702,5.0702,5.0702,5.0702,5.0702,5.0702,5.0702,5.0702,5.0702,5.0702,5.0702,5.0702,5.0702,5.0702,5.0702,5.0702,5.0702,5.0702,5.0702,5.0702,5.0702,5.0702,5.0702,5.0702,5.0702,5.0702,5.0702,5.0702,5.0702,5.0702,0.0,0.0,0.0,0.0,0.0,0.0,5.0702,5.0702,5.0683,5.038,0.0,0.0,0.0,0.0,0.0,0.0,0.0,5.2646,5.3037,0.0,5.5295,5.5573,5.5703,5.5703,5.5703,5.5703,5.5722,5.6588,5.7473,5.8338,5.9146,5.9992,6.08,6.08,6.08,6.08,6.08,6.08,6.08,6.08,6.08,6.08,4.6239,4.6241,4.646,4.7045,4.7393,4.8007,4.919,4.9834,5.0381,5.0889,5.1203,5.1252,5.0958,5.0994,5.1043,0.0,5.1009,5.0951,0.0,5.0873,5.0836,5.0844,5.074,5.0702,5.0702,5.0702,5.0702,5.0702,0.0,0.0,0.0,5.0702,5.0702,5.0702,5.0702,5.0702,5.0702,5.0702,5.0702,5.0702,5.0702,5.0702,5.0702,5.0702,5.0702,5.0702,5.0702,5.0702,5.0702,5.0702,5.0702,5.0702,5.0702,5.0702,5.0702,5.0702,5.0702,5.0702,5.0702,5.0702,5.0702,5.0702,5.0702,5.0702,5.0702,5.0702,5.0702,5.0702,5.0702,5.0702,5.0702,5.0702,5.0702,5.0702,5.0702,0.0,0.0,0.0,0.0,0.0,5.0702,5.0702,5.0702,5.0399,0.0,0.0,0.0,0.0,0.0,0.0,0.0,0.0,5.3719,0.0,5.5554,5.5662,5.5703,5.5703,5.5703,5.5703,5.5722,5.6588,5.7473,5.8338,5.9146,5.9992,6.08,6.08,6.08,6.08,6.08,6.08,6.08,6.08,6.08,6.08,4.6719,4.6797,4.7051,4.7949,4.8359,4.8945,5.0039,5.0469,5.082,5.1328,5.1406,5.1403,5.1401,5.1299,0.0,5.1141,5.1114,5.1078,5.1037,5.0981,5.0929,5.0902,5.0831,5.074,5.0683,5.0702,0.0,5.0702,5.0702,5.0702,5.0702,5.0702,5.0702,5.0702,5.0702,5.0702,5.0702,5.0702,5.0702,5.0702,5.0702,5.0702,5.0702,5.0702,5.0702,5.0702,5.0702,5.0702,5.0702,5.0702,5.0702,5.0702,5.0702,5.0702,5.0702,5.0702,5.0702,5.0702,5.0702,5.0702,5.0702,5.0702,5.0702,5.0702,5.0702,5.0702,5.0702,5.0702,5.0702,5.0702,5.0702,5.0702,5.0702,5.0702,5.0702,5.0702,5.0702,0.0,0.0,0.0,0.0,0.0,0.0,5.0504,5.038,0.0,0.0,0.0,0.0,0.0,0.0,5.3164,5.4049,5.4895,5.5684,5.5703,5.5703,5.5703,5.5703,5.5703,5.5742,5.6934,5.778,5.8357,5.9492,6.03,6.08,6.08,6.08,6.08,6.08,6.08,6.08,6.08,6.08,6.08,4.7441,4.7656,4.7969,0.0,4.9668,0.0,5.0273,5.0918,5.1406,5.1406,5.1406,5.1406,5.1406,5.1406,5.1348,5.1211,0.0,0.0,0.0,5.1053,5.1,5.0911,5.0919,5.0844,5.0721,5.0721,5.0702,5.0702,5.0702,5.0702,5.0701,5.0701,5.0701,5.0701,5.0701,5.0702,5.0702,5.0702,5.0702,5.0721,5.0683,5.0683,5.0702,5.0683,5.0702,5.0702,5.0702,5.0702,5.0702,5.0702,5.0702,5.0702,5.0702,5.0702,5.0702,5.0702,5.0702,5.0702,5.0702,5.0702,5.0702,5.0702,5.0702,5.0702,5.0702,5.0702,5.0702,5.0702,5.0702,5.0702,5.0702,5.0702,5.0702,5.0702,5.0702,5.0702,5.0702,0.0,0.0,0.0,0.0,0.0,5.0702,5.0702,5.0702,0.0,0.0,0.0,0.0,0.0,5.2181,5.326,5.4126,5.4934,5.5684,5.5703,5.5703,5.5703,5.5703,5.5722,5.5838,5.753,5.8338,5.8473,6.0108,6.08,6.08,6.08,6.08,6.08,6.08,6.08,6.08,6.08,6.08,6.08,0.0,0.0,4.8867,4.9746,5.0058,5.041,5.1016,5.1289,5.1406,5.1406,5.1406,5.1406,5.1406,5.1406,5.1387,5.1367,5.1344,5.134,5.1338,5.122,5.1141,5.1133,5.099,5.0891,5.0854,5.0795,5.0794,5.0794,5.0794,5.0775,5.0775,5.0775,5.0775,5.0775,5.0775,5.0775,5.0757,5.072,5.072,5.0776,5.0721,5.0683,5.0702,5.0702,5.0702,5.0702,5.0702,5.0702,5.0702,5.0702,5.0702,5.0702,5.0702,5.0702,5.0702,5.0702,5.0702,5.0702,5.0702,5.0702,5.0702,5.0702,5.0702,5.0702,5.0702,5.0702,5.0702,5.0702,5.0702,5.0702,5.0702,5.0702,5.0702,5.0702,5.0702,5.0702,5.0702,5.0702,5.0702,0.0,5.0702,5.0702,5.0702,5.0702,5.0702,0.0,0.0,0.0,5.1895,5.3103,5.3911,5.4184,5.4991,5.5511,5.5703,5.5703,5.5703,5.5703,5.5703,5.6049,5.6722,5.7819,5.8646,5.9281,6.0339,6.08,6.08,6.08,6.08,6.08,6.08,6.08,6.08,6.08,6.08,6.08,4.8633,4.918,4.9766,5.0605,5.0742,5.0898,5.1328,5.1406,5.1406,5.1406,5.1406,5.1406,5.1406,5.1406,5.1406,5.1406,5.1406,5.1406,5.1406,5.1328,5.1267,5.1193,5.1098,5.1024,5.1005,5.0906,5.0829,5.0793,5.0793,5.0829,5.0846,5.0846,5.0846,5.0846,5.0846,5.0829,5.0793,5.0775,5.0775,5.0793,5.0758,5.074,5.0701,5.0683,5.0702,5.0702,5.0702,5.0702,5.0702,5.0702,5.0702,5.0702,5.0702,5.0702,5.0702,5.0702,5.0702,5.0702,5.0702,5.0702,5.0702,5.0702,5.0702,5.0702,5.0702,5.0702,5.0702,5.0702,5.0702,5.0702,5.0702,5.0702,5.0702,5.0702,5.0702,5.0702,5.0702,5.0702,5.0702,5.0702,5.0702,5.0702,5.0702,5.0702,5.0837,5.1221,5.1664,0.0,5.3049,5.3991,5.4491,5.4491,5.528,5.5703,5.5703,5.5703,5.5703,5.5703,5.5703,5.6145,5.703,5.7896,5.8742,5.955,6.0416,6.08,6.08,6.08,6.08,6.08,6.08,6.08,6.08,6.08,6.08,6.08,4.9902,5.0293,5.0605,5.1289,5.1406,5.1406,5.1406,5.1406,5.1406,5.1406,5.1406,5.1406,5.1406,5.1406,5.1406,5.1406,5.1406,5.1406,5.1406,5.1406,5.1347,5.1244,5.1224,5.1193,5.1138,5.0996,5.0902,5.0866,5.0846,5.0844,5.0916,5.0916,5.0916,5.0916,5.0916,5.0863,5.081,5.081,5.081,5.081,5.081,5.0775,5.072,5.0738,5.0718,5.072,5.0738,5.072,5.072,5.072,5.0721,5.0702,5.0702,5.0702,5.0702,5.0702,5.0702,5.0702,5.0702,5.0702,5.0702,5.0702,5.0702,5.0702,5.0702,5.0702,5.0702,5.0702,5.0702,5.0702,5.0702,5.0702,5.0702,5.0702,5.0702,5.0702,5.0702,0.0,5.0702,5.0702,5.0702,5.0702,5.0702,5.0798,5.1164,5.1856,5.2145,5.2953,5.4414,5.4626,5.4684,5.4684,5.5338,5.5703,5.5703,5.5703,5.5703,5.5703,5.5703,5.6222,5.7223,5.7953,5.8819,5.9742,6.0473,6.08,6.08,6.08,6.08,6.08,6.08,6.08,6.08,6.08,6.08,6.08,5.0156,5.0742,5.125,5.1387,5.1406,5.1406,5.1406,5.1406,5.1406,5.1406,5.1406,5.1406,5.1406,5.1406,5.1406,5.1406,5.1406,5.1406,5.1406,5.1406,5.1387,5.1367,5.1308,5.1288,5.1269,5.1139,5.1064,5.1064,5.0948,5.089,5.089,5.089,5.089,5.089,5.089,5.089,5.0874,5.088,5.0877,5.0874,5.0827,5.0829,5.0863,5.0867,5.0819,5.0791,5.0851,5.0822,5.0777,5.0779,5.076,5.0702,5.0702,5.0702,5.0702,5.0702,5.0702,5.0702,5.0702,5.0702,5.0702,5.0702,5.0702,5.0702,5.0702,5.0702,5.0702,5.0702,5.0702,5.0702,5.0702,5.0702,5.0702,5.0702,5.0702,5.0702,5.0702,0.0,5.0702,5.0702,5.0702,5.0702,5.0702,5.1318,5.1779,5.1895,5.326,5.4203,5.4491,5.5145,5.5511,5.5511,5.5626,5.5703,5.5703,5.5703,5.5703,5.5703,5.5703,5.653,5.8107,5.8242,5.9146,6.0608,6.0742,6.08,6.08,6.08,6.08,6.08,6.08,6.08,6.08,6.08,6.08,6.08,5.0762,5.1152,5.1406,5.1406,5.1406,5.1406,5.1406,5.1406,5.1406,5.1406,5.1406,5.1406,5.1406,5.1406,5.1406,5.1406,5.1406,5.1406,5.1406,5.1406,5.1406,5.1406,5.1367,5.1344,5.1301,5.1232,5.1181,5.1157,5.1061,5.1041,5.1061,5.0964,5.0945,5.1003,5.0945,5.0906,5.0906,5.0893,5.0909,5.089,5.0935,5.0957,5.0957,5.0983,5.099,5.0966,5.1003,5.0974,5.0921,5.0906,5.0835,5.0741,5.0741,5.0721,5.0702,5.0741,5.0721,5.0702,5.0702,5.0702,5.0702,5.0702,5.0702,5.0702,5.0702,5.0702,5.0702,5.0702,5.0702,5.0702,5.0702,5.0702,5.0702,5.0702,5.0702,0.0,5.0702,5.0702,5.0702,5.0702,5.1087,5.1356,5.1356,5.2106,5.2799,5.328,5.4049,5.4684,5.5126,5.5491,5.5703,5.5703,5.5703,5.5703,5.5703,5.5703,5.5703,5.5703,5.6165,5.7069,5.8319,5.8742,5.9627,6.08,6.08,6.08,6.08,6.08,6.08,6.08,6.08,6.08,6.08,6.08,6.08,6.08,5.1289,5.1406,5.1406,5.1406,5.1406,5.1406,5.1406,5.1406,5.1406,5.1406,5.1406,5.1406,5.1406,5.1406,5.1406,5.1406,5.1406,5.1406,5.1406,5.1406,5.1406,5.1406,5.1406,5.1387,5.1328,5.1308,5.1277,5.1229,5.1166,5.1155,5.1196,5.1039,5.1005,5.1099,5.1003,5.0945,5.0906,5.0906,5.0906,5.0925,5.1061,5.1067,5.1032,5.1121,5.1134,5.1128,5.1127,5.1083,5.1022,5.1022,5.0941,5.0817,5.0817,5.0778,5.0721,5.0779,5.0741,5.0702,5.0702,5.0702,5.0702,5.0702,5.0702,5.0702,5.0702,5.0702,5.0702,5.0702,5.0702,5.0702,5.0702,5.0702,5.0702,5.0702,0.0,5.0702,5.0702,5.0702,5.076,5.0952,5.1529,5.1991,5.2183,5.2991,5.378,5.4453,5.4664,5.5049,5.5665,5.5703,5.5703,5.5703,5.5703,5.5703,5.5703,5.5703,5.5703,5.5703,5.6569,5.7453,5.8338,5.9127,5.9973,6.08,6.08,6.08,6.08,6.08,6.08,6.08,6.08,6.08,6.08,6.08,6.08,6.08,5.1387,5.1406,5.1406,5.1406,5.1406,5.1406,5.1406,5.1406,5.1406,5.1406,5.1406,5.1406,5.1406,5.1406,5.1406,5.1406,5.1406,5.1406,5.1406,5.1406,5.1406,5.1406,5.1406,5.1406,5.1387,5.1328,5.1308,5.1286,5.1232,5.1197,5.1196,5.1169,5.1159,5.1099,5.1099,5.1022,5.0906,5.0906,5.0906,5.0925,5.1061,5.1099,5.1111,5.1249,5.1245,5.1203,5.1249,5.1198,5.1099,5.1099,5.0987,5.0874,5.0874,5.0835,5.08,5.0798,5.0741,5.0702,5.0702,5.0702,5.0702,5.0702,5.0702,5.0702,5.0702,5.0702,5.0702,5.0702,5.0702,5.0702,5.0702,5.0702,5.0702,5.0702,0.0,0.0,5.0702,5.0702,5.0971,5.1722,5.1875,5.2222,5.3029,5.3895,5.4434,5.4491,5.5184,5.5645,5.5703,5.5703,5.5703,5.5703,5.5703,5.5703,5.5703,5.5703,5.5703,5.5703,5.6569,5.7453,5.8338,5.9127,5.9973,6.08,6.08,6.08,6.08,6.08,6.08,6.08,6.08,6.08,6.08,6.08,6.08,6.08,5.1406,5.1406,5.1406,5.1406,5.1406,5.1406,5.1406,5.1406,5.1406,5.1406,5.1406,5.1406,5.1406,5.1406,5.1406,5.1406,5.1406,5.1406,5.1406,5.1406,5.1406,5.1406,5.1406,5.1406,5.1406,5.1387,5.1367,5.1367,5.1281,5.1277,5.131,5.1238,5.1206,5.1226,5.1192,5.1138,5.108,5.1041,5.1022,5.1041,5.1119,5.1157,5.1179,5.131,5.1349,5.1333,5.1344,5.1271,5.1147,5.1172,5.1061,5.0906,5.0906,5.0887,5.0851,5.0805,5.0808,5.0812,5.076,5.0721,5.0702,5.0702,5.0702,5.0702,5.0702,5.0702,5.0702,5.0702,5.0702,5.0702,5.0702,5.0702,5.0702,5.0702,0.0,5.0702,5.0702,5.1125,5.1568,5.1875,5.2856,5.3645,5.3972,5.4761,5.5241,5.5241,5.553,5.5703,5.5703,5.5703,5.5703,5.5703,5.5703,5.5703,5.5703,5.5703,5.5703,5.5722,5.7126,5.7973,5.8357,5.9685,6.0492,6.08,6.08,6.08,6.08,6.08,6.08,6.08,6.08,6.08,6.08,6.08,6.08,6.08,5.1402,5.1406,5.1406,5.1406,5.1406,5.1406,5.1406,5.1406,5.1406,5.1406,5.1406,5.1406,5.1406,5.1406,5.1406,5.1406,5.1406,5.1406,5.1406,5.1406,5.1406,5.1406,5.1406,5.1406,5.1406,5.1406,5.1406,5.1406,5.1348,5.1348,5.1406,5.132,5.1285,5.1308,5.125,5.1212,5.1196,5.1157,5.1138,5.1138,5.1196,5.1235,5.1252,5.1355,5.1406,5.1406,5.1406,5.1338,5.1232,5.1224,5.1119,5.0964,5.0964,5.0945,5.0906,5.0848,5.0867,5.0893,5.0833,5.0777,5.072,5.0721,5.0721,5.0702,5.0702,5.0702,5.0702,5.0702,5.0702,5.0702,5.0702,5.0702,5.0702,5.0702,5.0702,5.0779,5.1029,5.1548,5.2106,5.2664,5.378,5.4607,5.4857,5.5376,5.5703,5.5703,5.5703,5.5703,5.5703,5.5703,5.5703,5.5703,5.5703,5.5703,5.5703,5.5703,5.5838,5.6126,5.7607,5.8434,5.8723,6.0146,6.08,6.08,6.08,6.08,6.08,6.08,6.08,6.08,6.08,6.08,6.08,6.08,6.08,6.08,5.1394,5.14,5.1406,5.1406,5.1406,5.1406,5.1406,5.1406,5.1406,5.1406,5.1406,5.1406,5.1406,5.1406,5.1406,5.1406,5.1406,5.1406,5.1406,5.1406,5.1406,5.1406,5.1406,5.1406,5.1406,5.1406,5.1406,5.1406,5.1406,5.1406,5.1406,5.1406,5.1367,5.1308,5.1308,5.1258,5.1196,5.1196,5.1196,5.1196,5.127,5.1308,5.131,5.1375,5.1406,5.1406,5.1406,5.1356,5.1308,5.1308,5.1215,5.1099,5.1099,5.1022,5.0906,5.0906,5.0906,5.0906,5.0906,5.0848,5.08,5.0798,5.076,5.0683,5.0702,5.0702,5.0702,5.0702,5.0702,5.0702,5.0702,5.0702,5.0702,5.0702,5.0702,5.0991,5.1798,5.1914,5.2568,5.428,5.4511,5.4818,5.5607,5.5703,5.5703,5.5703,5.5703,5.5703,5.5703,5.5703,5.5703,5.5703,5.5703,5.5703,5.5703,5.5703,5.6126,5.6992,5.7877,5.8723,5.9531,6.0396,6.08,6.08,6.08,6.08,6.08,6.08,6.08,6.08,6.08,6.08,6.08,6.08,6.08,6.08,5.1394,5.1405,5.1396,5.1406,5.1406,5.1406,5.1406,5.1406,5.1406,5.1406,5.1406,5.1406,5.1406,5.1406,5.1406,5.1406,5.1406,5.1406,5.1406,5.1406,5.1406,5.1406,5.1406,5.1406,5.1406,5.1406,5.1406,5.1406,5.1406,5.1406,5.1406,5.1406,5.1387,5.1367,5.1367,5.1361,5.1342,5.1284,5.1264,5.1264,5.1284,5.1303,5.1308,5.1364,5.1406,5.1406,5.1406,5.1359,5.1303,5.1303,5.124,5.1157,5.1119,5.108,5.1022,5.0945,5.0906,5.0906,5.0906,5.0906,5.0871,5.0822,5.0786,5.0771,5.076,5.076,5.076,5.0702,5.0702,5.0702,5.0702,5.0702,5.0702,5.0702,5.1163,5.1625,5.1855,5.2953,5.3914,5.4434,5.4991,5.5434,5.5684,5.5703,5.5703,5.5703,5.5703,5.5703,5.5703,5.5703,5.5703,5.5703,5.5703,5.5703,5.5703,5.5703,5.6126,5.6992,5.7877,5.8723,5.9531,6.0396,6.08,6.08,6.08,6.08,6.08,6.08,6.08,6.08,6.08,6.08,6.08,6.08,6.08,6.08,5.1394,5.1394,5.1405,5.1403,5.1406,5.1406,5.1406,5.1406,5.1406,5.1406,5.1406,5.1406,5.1406,5.1406,5.1406,5.1406,5.1406,5.1406,5.1406,5.1406,5.1406,5.1406,5.1406,5.1406,5.1406,5.1406,5.1406,5.1406,5.1406,5.1406,5.1406,5.1406,5.1406,5.1406,5.1406,5.1406,5.1406,5.1367,5.1348,5.1348,5.1348,5.1348,5.1348,5.1387,5.1406,5.1406,5.1406,5.1367,5.1348,5.1348,5.1273,5.1181,5.1123,5.1049,5.1003,5.0925,5.0906,5.0906,5.0906,5.0906,5.0906,5.0848,5.0848,5.0835,5.085,5.0815,5.0776,5.0738,5.0739,5.074,5.0702,5.0702,5.0702,5.0702,5.1105,5.1663,5.2317,5.3318,5.4222,5.4895,5.5395,5.5703,5.5703,5.5703,5.5703,5.5703,5.5703,5.5703,5.5703,5.5703,5.5703,5.5703,5.5703,5.5703,5.5703,5.5703,5.6299,5.7511,5.8053,5.8921,6.0076,6.0638,6.0869,6.0846,6.0846,6.0823,6.08,6.08,6.08,6.08,6.08,6.08,6.08,6.08,6.08,6.08,5.1394,5.1394,5.1398,5.1394,5.1404,5.1406,5.1406,5.1406,5.1406,5.1406,5.1406,5.1406,5.1406,5.1406,5.1406,5.1406,5.1406,5.1406,5.1406,5.1406,5.1406,5.1406,5.1406,5.1406,5.1406,5.1406,5.1406,5.1406,5.1406,5.1406,5.1406,5.1406,5.1406,5.1406,5.1406,5.1406,5.1406,5.1406,5.1406,5.1406,5.1406,5.1406,5.1406,5.1406,5.1406,5.1406,5.1406,5.1406,5.1406,5.1406,5.1328,5.1211,5.113,5.102,5.0925,5.0925,5.0906,5.0906,5.0906,5.0906,5.0906,5.0906,5.0906,5.0906,5.0906,5.0848,5.0813,5.0813,5.0822,5.0794,5.0721,5.0702,5.0721,5.0702,5.0779,5.1356,5.297,5.328,5.3914,5.5511,5.5703,5.5703,5.5703,5.5703,5.5703,5.5703,5.5703,5.5703,5.5703,5.5703,5.5703,5.5703,5.5703,5.5703,5.5703,5.5703,5.6569,5.83,5.8289,5.9216,6.0911,6.0976,6.0955,6.0911,6.0911,6.0846,6.08,6.08,6.08,6.08,6.08,6.08,6.08,6.08,6.08,6.08,5.1394,5.1394,5.1394,5.1398,5.1394,5.1403,5.1406,5.1406,5.1406,5.1406,5.1406,5.1406,5.1406,5.1406,5.1406,5.1406,5.1406,5.1406,5.1406,5.1406,5.1406,5.1406,5.1406,5.1406,5.1406,5.1406,5.1406,5.1406,5.1406,5.1406,5.1406,5.1406,5.1406,5.1406,5.1406,5.1406,5.1406,5.1406,5.1406,5.1406,5.1406,5.1406,5.1406,5.1406,5.1406,5.1406,5.1406,5.1406,5.1406,5.1406,5.1387,5.1343,5.1211,5.1164,5.1099,5.0964,5.0906,5.0906,5.0906,5.0906,5.0906,5.0906,5.0906,5.0906,5.0906,5.0906,5.089,5.088,5.0883,5.0849,5.0794,5.0795,5.0759,5.0702,5.1279,5.2069,5.3068,5.3799,5.4587,5.5568,5.5703,5.5703,5.5703,5.5703,5.5703,5.5703,5.5703,5.5703,5.5703,5.5703,5.5703,5.5703,5.5703,5.5703,5.5703,5.5703,5.6571,5.8289,5.8291,5.9237,6.0976,6.0976,6.0955,6.0911,6.0911,6.0846,6.08,6.08,6.08,6.08,6.08,6.08,6.08,6.08,6.08,6.08,5.1394,5.1394,5.1394,5.1394,5.1402,5.1391,5.1398,5.1403,5.1405,5.1406,5.1406,5.1406,5.1406,5.1406,5.1406,5.1406,5.1406,5.1406,5.1406,5.1406,5.1406,5.1406,5.1406,5.1406,5.1406,5.1406,5.1406,5.1406,5.1406,5.1406,5.1406,5.1406,5.1406,5.1406,5.1406,5.1406,5.1406,5.1406,5.1406,5.1406,5.1406,5.1406,5.1406,5.1406,5.1406,5.1406,5.1406,5.1406,5.1406,5.1406,5.1387,5.1346,5.1258,5.1202,5.1138,5.1041,5.0964,5.0906,5.0906,5.0906,5.0906,5.0906,5.0906,5.0906,5.0906,5.0906,5.089,5.0897,5.0897,5.088,5.0846,5.0846,5.0829,5.0775,5.1488,5.2337,5.3128,5.3995,5.4862,5.571,5.5806,5.5806,5.5806,5.5806,5.5766,5.5745,5.5745,5.5745,5.5745,5.5745,5.5766,5.5787,5.5766,5.5745,5.5745,5.5724,5.6592,5.8352,5.8352,5.928,6.1,6.1021,6.1,6.0959,6.0959,6.0916,6.0891,6.0846,6.0846,6.0846,6.0823,6.08,6.08,6.08,6.08,6.08,5.1394,5.1394,5.1394,5.1394,5.1394,5.1394,5.1394,5.1408,5.1398,5.1405,5.1406,5.1406,5.1406,5.1406,5.1406,5.1406,5.1406,5.1406,5.1406,5.1406,5.1406,5.1406,5.1406,5.1406,5.1406,5.1406,5.1406,5.1406,5.1406,5.1406,5.1406,5.1406,5.1406,5.1406,5.1406,5.1406,5.1406,5.1406,5.1406,5.1406,5.1406,5.1406,5.1406,5.1406,5.1406,5.1406,5.1406,5.1406,5.1406,5.1406,5.1367,5.1328,5.1308,5.1218,5.1119,5.1099,5.1022,5.0906,5.0906,5.0906,5.0906,5.0906,5.0906,5.0906,5.0906,5.0906,5.0906,5.0906,5.0906,5.0909,5.0897,5.0893,5.0932,5.102,5.1638,5.2429,5.3396,5.413,5.4921,5.5808,5.5905,5.5905,5.5905,5.5905,5.5885,5.5826,5.5826,5.5826,5.5826,5.5826,5.5846,5.5905,5.5846,5.5807,5.5787,5.5745,5.6536,5.82,5.8316,5.9321,6.1022,6.108,6.106,6.1002,6.1002,6.1,6.1017,6.0933,6.0933,6.0911,6.0846,6.0823,6.0823,6.08,6.08,6.08,5.1394,5.1394,5.1394,5.1394,5.1394,5.1394,5.1394,5.1398,5.1398,5.1402,5.1402,5.1406,5.1406,5.1406,5.1406,5.1406,5.1406,5.1406,5.1406,5.1406,5.1406,5.1406,5.1406,5.1406,5.1406,5.1406,5.1406,5.1406,5.1406,5.1406,5.1406,5.1406,5.1406,5.1406,5.1406,5.1406,5.1406,5.1406,5.1406,5.1406,5.1406,5.1406,5.1406,5.1406,5.1406,5.1406,5.1406,5.1406,5.1406,5.1406,5.1387,5.1387,5.1328,5.1238,5.1177,5.1119,5.1022,5.0906,5.0906,5.0906,5.0906,5.0906,5.0906,5.0906,5.0906,5.0906,5.0906,5.0906,5.0906,5.089,5.089,5.089,5.1122,5.1807,5.202,5.264,5.4206,5.4516,5.4921,5.5808,5.5905,5.5905,5.5905,5.5905,5.5905,5.5885,5.5885,5.5885,5.5885,5.5885,5.5885,5.5905,5.5885,5.5846,5.5787,5.5787,5.6308,5.7351,5.8065,5.9341,6.108,6.1099,6.106,6.1002,6.1002,6.1,6.0997,6.0976,6.0976,6.0976,6.0911,6.0888,6.0869,6.0823,6.08,6.08,5.1394,5.1394,5.1394,5.1394,5.1394,5.1394,5.1394,5.1394,5.1394,5.1394,5.1408,5.1398,5.1403,5.1406,5.1406,5.1406,5.1406,5.1406,5.1406,5.1406,5.1406,5.1406,5.1406,5.1406,5.1406,5.1406,5.1406,5.1406,5.1406,5.1406,5.1406,5.1406,5.1406,5.1406,5.1406,5.1406,5.1406,5.1406,5.1406,5.1406,5.1406,5.1406,5.1406,5.1406,5.1406,5.1406,5.1406,5.1406,5.1406,5.1406,5.1406,5.1387,5.1367,5.1277,5.1196,5.1157,5.1041,5.0906,5.0906,5.0906,5.0906,5.0906,5.0906,5.0906,5.0906,5.0906,5.0906,5.0906,5.0906,5.0906,5.0906,5.1312,5.1738,5.2108,5.2962,5.387,5.4607,5.5109,5.5516,5.5902,5.596,5.596,5.596,5.596,5.596,5.5962,5.5962,5.5962,5.5962,5.5962,5.5961,5.596,5.5961,5.5924,5.5905,5.5866,5.631,5.7197,5.7564,5.8684,6.0441,6.0905,6.108,6.1061,6.1061,6.1061,6.1041,6.1021,6.1,6.1,6.0935,6.0869,6.0846,6.0823,6.08,6.08]},{"header":{"parameterUnit":"m.s-1","parameterCategory":1,"la1":30.6,"la2":28.766,"lo1":-90.7593,"lo2":-88.6598,"dy":0.0162,"dx":0.0183,"nx":116,"ny":114,"refTime":"2023-04-26T18:00:00:Z","depth":0,"parameterNumber":3,"parameterNumberName":"V-component_of_WINDS"},"data":[0.0,0.0,0.0,0.0,0.0,0.0,0.0,0.0,0.0,0.0,0.0,0.0,0.0,0.0,0.0,0.0,0.0,0.0,0.0,0.0,0.0,0.0,0.0,0.0,0.0,0.0,0.0,0.0,0.0,0.0,0.0,0.0,0.0,0.0,0.0,0.0,0.0,0.0,0.0,0.0,0.0,0.0,0.0,0.0,0.0,0.0,0.0,0.0,0.0,0.0,0.0,0.0,0.0,0.0,0.0,0.0,0.0,0.0,0.0,0.0,0.0,0.0,0.0,0.0,0.0,0.0,0.0,0.0,0.0,0.0,0.0,0.0,0.0,0.0,0.0,0.0,0.0,0.0,0.0,0.0,0.0,0.0,0.0,0.0,0.0,0.0,0.0,0.0,0.0,0.0,0.0,0.0,0.0,0.0,0.0,0.0,0.0,0.0,0.0,0.0,0.0,0.0,0.0,0.0,0.0,0.0,0.0,0.0,0.0,0.0,0.0,0.0,0.0,0.0,0.0,0.0,0.0,0.0,0.0,0.0,0.0,0.0,0.0,0.0,0.0,0.0,0.0,0.0,0.0,0.0,0.0,0.0,0.0,0.0,0.0,0.0,0.0,0.0,0.0,0.0,0.0,0.0,0.0,0.0,0.0,0.0,0.0,0.0,0.0,0.0,0.0,0.0,0.0,0.0,0.0,0.0,0.0,0.0,0.0,0.0,0.0,0.0,0.0,0.0,0.0,0.0,0.0,0.0,0.0,0.0,0.0,0.0,0.0,0.0,0.0,0.0,0.0,0.0,0.0,0.0,0.0,0.0,0.0,0.0,0.0,0.0,0.0,0.0,0.0,0.0,0.0,0.0,0.0,0.0,0.0,0.0,0.0,0.0,0.0,0.0,0.0,0.0,0.0,0.0,0.0,0.0,0.0,0.0,0.0,0.0,0.0,0.0,0.0,0.0,0.0,0.0,0.0,0.0,0.0,0.0,0.0,0.0,0.0,0.0,0.0,0.0,0.0,0.0,0.0,0.0,0.0,0.0,0.0,0.0,0.0,0.0,0.0,0.0,0.0,0.0,0.0,0.0,0.0,0.0,0.0,0.0,0.0,0.0,0.0,0.0,0.0,0.0,0.0,0.0,0.0,0.0,0.0,0.0,0.0,0.0,0.0,0.0,0.0,0.0,0.0,0.0,0.0,0.0,0.0,0.0,0.0,0.0,0.0,0.0,0.0,0.0,0.0,0.0,0.0,0.0,0.0,0.0,0.0,0.0,0.0,0.0,0.0,0.0,0.0,0.0,0.0,0.0,0.0,0.0,0.0,0.0,0.0,0.0,0.0,0.0,0.0,0.0,0.0,0.0,0.0,0.0,0.0,0.0,0.0,0.0,0.0,0.0,0.0,0.0,0.0,0.0,0.0,0.0,0.0,0.0,0.0,0.0,0.0,0.0,0.0,0.0,0.0,0.0,0.0,0.0,0.0,0.0,0.0,0.0,0.0,0.0,0.0,0.0,0.0,0.0,0.0,0.0,0.0,0.0,0.0,0.0,0.0,0.0,0.0,0.0,0.0,0.0,0.0,0.0,0.0,0.0,0.0,0.0,0.0,0.0,0.0,0.0,0.0,0.0,0.0,0.0,0.0,0.0,0.0,0.0,0.0,0.0,0.0,0.0,0.0,0.0,0.0,0.0,0.0,0.0,0.0,0.0,0.0,0.0,0.0,0.0,0.0,0.0,0.0,0.0,0.0,0.0,0.0,0.0,0.0,0.0,0.0,0.0,0.0,0.0,0.0,0.0,0.0,0.0,0.0,0.0,0.0,0.0,0.0,0.0,0.0,0.0,0.0,0.0,0.0,0.0,0.0,0.0,0.0,0.0,0.0,0.0,0.0,0.0,0.0,0.0,0.0,0.0,0.0,0.0,0.0,0.0,0.0,0.0,0.0,0.0,0.0,0.0,0.0,0.0,0.0,0.0,0.0,0.0,0.0,0.0,0.0,0.0,0.0,0.0,0.0,0.0,0.0,0.0,0.0,0.0,0.0,0.0,0.0,0.0,0.0,0.0,0.0,0.0,0.0,0.0,0.0,0.0,0.0,0.0,0.0,0.0,0.0,0.0,0.0,0.0,0.0,0.0,0.0,0.0,0.0,0.0,0.0,0.0,0.0,0.0,0.0,0.0,0.0,0.0,0.0,0.0,0.0,0.0,0.0,0.0,0.0,0.0,0.0,0.0,0.0,0.0,0.0,0.0,0.0,0.0,0.0,0.0,0.0,0.0,0.0,0.0,0.0,0.0,0.0,0.0,0.0,0.0,0.0,0.0,0.0,0.0,0.0,0.0,0.0,0.0,0.0,0.0,0.0,0.0,0.0,0.0,0.0,0.0,0.0,0.0,0.0,0.0,0.0,0.0,0.0,0.0,0.0,0.0,0.0,0.0,0.0,0.0,0.0,0.0,0.0,0.0,0.0,0.0,0.0,0.0,0.0,0.0,0.0,0.0,0.0,0.0,0.0,0.0,0.0,0.0,0.0,0.0,0.0,0.0,0.0,0.0,0.0,0.0,0.0,0.0,0.0,0.0,0.0,0.0,0.0,0.0,0.0,0.0,0.0,0.0,0.0,0.0,0.0,0.0,0.0,0.0,0.0,0.0,0.0,0.0,0.0,0.0,0.0,0.0,0.0,0.0,0.0,0.0,0.0,0.0,0.0,0.0,0.0,0.0,0.0,0.0,0.0,0.0,0.0,0.0,0.0,0.0,0.0,0.0,0.0,0.0,0.0,0.0,0.0,0.0,0.0,0.0,0.0,0.0,0.0,0.0,0.0,0.0,0.0,0.0,0.0,0.0,0.0,0.0,0.0,0.0,0.0,0.0,0.0,0.0,0.0,0.0,0.0,0.0,0.0,0.0,0.0,0.0,0.0,0.0,0.0,0.0,0.0,0.0,0.0,0.0,0.0,0.0,0.0,0.0,0.0,0.0,0.0,0.0,0.0,0.0,0.0,0.0,0.0,0.0,0.0,0.0,0.0,0.0,0.0,0.0,0.0,0.0,0.0,0.0,0.0,0.0,0.0,0.0,0.0,0.0,0.0,0.0,0.0,0.0,0.0,0.0,0.0,0.0,0.0,0.0,0.0,0.0,0.0,0.0,0.0,0.0,0.0,0.0,0.0,0.0,0.0,0.0,0.0,0.0,0.0,0.0,0.0,0.0,0.0,0.0,0.0,0.0,0.0,0.0,0.0,0.0,0.0,0.0,0.0,0.0,0.0,0.0,0.0,0.0,0.0,0.0,0.0,0.0,0.0,0.0,0.0,0.0,0.0,0.0,0.0,0.0,0.0,0.0,0.0,0.0,0.0,0.0,0.0,0.0,0.0,0.0,0.0,0.0,0.0,0.0,0.0,0.0,0.0,0.0,0.0,0.0,0.0,0.0,0.0,0.0,0.0,0.0,0.0,0.0,0.0,0.0,0.0,0.0,0.0,0.0,0.0,0.0,0.0,0.0,0.0,0.0,0.0,0.0,0.0,0.0,0.0,0.0,0.0,0.0,0.0,0.0,0.0,0.0,0.0,0.0,0.0,0.0,0.0,0.0,0.0,0.0,0.0,0.0,0.0,0.0,0.0,0.0,0.0,0.0,0.0,0.0,0.0,0.0,0.0,0.0,0.0,0.0,0.0,0.0,0.0,0.0,0.0,0.0,0.0,0.0,0.0,0.0,0.0,0.0,0.0,0.0,0.0,0.0,0.0,0.0,0.0,0.0,0.0,0.0,0.0,0.0,0.0,0.0,0.0,0.0,0.0,0.0,0.0,0.0,0.0,0.0,0.0,0.0,0.0,0.0,0.0,0.0,0.0,0.0,0.0,0.0,0.0,0.0,0.0,0.0,0.0,0.0,0.0,0.0,0.0,0.0,0.0,0.0,0.0,0.0,0.0,0.0,0.0,0.0,0.0,0.0,0.0,0.0,0.0,0.0,0.0,0.0,0.0,0.0,0.0,0.0,0.0,0.0,0.0,0.0,0.0,0.0,0.0,0.0,0.0,0.0,0.0,0.0,0.0,0.0,0.0,0.0,0.0,0.0,0.0,0.0,0.0,0.0,0.0,0.0,0.0,0.0,0.0,0.0,0.0,0.0,0.0,0.0,0.0,0.0,0.0,0.0,0.0,0.0,0.0,0.0,0.0,0.0,0.0,0.0,0.0,0.0,0.0,0.0,0.0,0.0,0.0,0.0,0.0,0.0,0.0,0.0,0.0,0.0,0.0,0.0,0.0,0.0,0.0,0.0,0.0,0.0,0.0,0.0,0.0,0.0,0.0,0.0,0.0,0.0,0.0,0.0,0.0,0.0,0.0,0.0,0.0,0.0,0.0,0.0,0.0,0.0,0.0,0.0,0.0,0.0,0.0,0.0,0.0,0.0,0.0,0.0,0.0,0.0,0.0,0.0,0.0,0.0,0.0,0.0,0.0,0.0,0.0,0.0,0.0,0.0,0.0,0.0,0.0,0.0,0.0,0.0,0.0,0.0,0.0,0.0,0.0,0.0,0.0,0.0,0.0,0.0,0.0,0.0,0.0,0.0,0.0,0.0,0.0,0.0,0.0,0.0,0.0,0.0,0.0,0.0,0.0,0.0,0.0,0.0,0.0,0.0,0.0,0.0,0.0,0.0,0.0,0.0,0.0,0.0,0.0,0.0,0.0,0.0,0.0,0.0,0.0,0.0,0.0,0.0,0.0,0.0,0.0,0.0,0.0,0.0,0.0,0.0,0.0,0.0,0.0,0.0,0.0,0.0,0.0,0.0,0.0,0.0,0.0,0.0,0.0,0.0,0.0,0.0,0.0,0.0,0.0,0.0,0.0,0.0,0.0,0.0,0.0,0.0,0.0,0.0,0.0,0.0,0.0,0.0,0.0,0.0,0.0,0.0,0.0,0.0,0.0,0.0,0.0,0.0,0.0,0.0,0.0,0.0,0.0,0.0,0.0,0.0,0.0,0.0,0.0,0.0,0.0,0.0,0.0,0.0,0.0,0.0,0.0,0.0,0.0,0.0,0.0,0.0,0.0,0.0,0.0,0.0,0.0,0.0,0.0,0.0,0.0,0.0,0.0,0.0,0.0,0.0,0.0,0.0,0.0,0.0,0.0,0.0,0.0,0.0,0.0,0.0,0.0,0.0,0.0,0.0,0.0,0.0,0.0,0.0,0.0,0.0,0.0,0.0,0.0,0.0,0.0,0.0,0.0,0.0,0.0,0.0,0.0,0.0,0.0,0.0,0.0,0.0,0.0,0.0,0.0,0.0,0.0,0.0,0.0,0.0,0.0,0.0,0.0,0.0,0.0,0.0,0.0,0.0,0.0,0.0,0.0,0.0,0.0,0.0,0.0,0.0,0.0,0.0,0.0,0.0,0.0,0.0,0.0,0.0,0.0,0.0,0.0,0.0,0.0,0.0,0.0,0.0,0.0,0.0,0.0,0.0,0.0,0.0,0.0,0.0,0.0,0.0,0.0,0.0,0.0,0.0,0.0,0.0,0.0,0.0,0.0,0.0,0.0,0.0,0.0,0.0,0.0,0.0,0.0,0.0,0.0,0.0,0.0,0.0,0.0,0.0,0.0,0.0,0.0,0.0,0.0,0.0,0.0,0.0,0.0,0.0,0.0,0.0,0.0,0.0,0.0,0.0,0.0,0.0,0.0,0.0,0.0,0.0,0.0,0.0,0.0,0.0,0.0,0.0,0.0,0.0,0.0,0.0,0.0,0.0,0.0,0.0,0.0,0.0,0.0,0.0,0.0,0.0,0.0,0.0,0.0,0.0,0.0,0.0,0.0,0.0,0.0,0.0,0.0,0.0,0.0,0.0,0.0,0.0,0.0,0.0,0.0,0.0,0.0,0.0,0.0,0.0,0.0,0.0,0.0,0.0,0.0,0.0,0.0,0.0,0.0,0.0,0.0,0.0,0.0,0.0,0.0,0.0,0.0,0.0,0.0,0.0,0.0,0.0,0.0,0.0,0.0,0.0,0.0,0.0,0.0,0.0,0.0,0.0,0.0,0.0,0.0,0.0,0.0,0.0,0.0,0.0,0.0,0.0,0.0,0.0,0.0,0.0,0.0,0.0,0.0,0.0,0.0,0.0,0.0,0.0,-1.9393,0.0,0.0,0.0,0.0,0.0,0.0,0.0,0.0,0.0,0.0,0.0,0.0,0.0,0.0,0.0,0.0,0.0,0.0,0.0,0.0,0.0,0.0,0.0,0.0,0.0,0.0,0.0,0.0,0.0,0.0,0.0,0.0,0.0,0.0,0.0,0.0,0.0,0.0,0.0,0.0,0.0,0.0,0.0,0.0,0.0,0.0,0.0,0.0,0.0,0.0,0.0,0.0,0.0,0.0,0.0,0.0,0.0,0.0,0.0,0.0,0.0,0.0,0.0,0.0,0.0,0.0,0.0,0.0,0.0,0.0,0.0,0.0,0.0,0.0,0.0,0.0,0.0,0.0,0.0,0.0,0.0,0.0,0.0,0.0,0.0,0.0,0.0,0.0,0.0,0.0,0.0,0.0,0.0,0.0,0.0,0.0,0.0,0.0,0.0,0.0,0.0,0.0,0.0,0.0,0.0,0.0,0.0,0.0,0.0,0.0,0.0,0.0,0.0,0.0,0.0,0.0,-1.9573,0.0,0.0,0.0,0.0,0.0,0.0,0.0,0.0,0.0,0.0,0.0,0.0,0.0,0.0,0.0,0.0,0.0,0.0,0.0,0.0,0.0,0.0,0.0,0.0,0.0,0.0,0.0,0.0,0.0,0.0,0.0,0.0,0.0,0.0,0.0,0.0,0.0,0.0,0.0,0.0,0.0,0.0,0.0,0.0,0.0,0.0,0.0,0.0,0.0,0.0,0.0,0.0,0.0,0.0,0.0,0.0,0.0,0.0,0.0,0.0,0.0,0.0,0.0,0.0,0.0,0.0,0.0,0.0,0.0,0.0,0.0,0.0,0.0,0.0,0.0,0.0,0.0,0.0,0.0,0.0,0.0,0.0,0.0,0.0,0.0,0.0,0.0,0.0,0.0,0.0,0.0,0.0,0.0,0.0,0.0,0.0,0.0,0.0,0.0,0.0,0.0,0.0,0.0,0.0,0.0,0.0,0.0,0.0,-1.8779,-1.8875,-1.9165,-1.9165,-1.9003,-1.8666,-1.8718,-1.8684,-1.853,-2.0052,0.0,0.0,0.0,0.0,0.0,0.0,0.0,0.0,0.0,0.0,0.0,0.0,0.0,0.0,0.0,0.0,0.0,0.0,0.0,0.0,0.0,0.0,0.0,0.0,0.0,0.0,0.0,0.0,0.0,0.0,0.0,0.0,0.0,0.0,0.0,0.0,0.0,0.0,0.0,0.0,0.0,0.0,0.0,0.0,0.0,0.0,0.0,0.0,0.0,0.0,0.0,0.0,0.0,0.0,0.0,0.0,0.0,0.0,0.0,0.0,0.0,0.0,0.0,0.0,0.0,0.0,0.0,0.0,0.0,0.0,0.0,0.0,0.0,0.0,0.0,0.0,0.0,0.0,0.0,0.0,0.0,0.0,0.0,0.0,0.0,0.0,-1.9219,-1.9277,0.0,0.0,0.0,0.0,0.0,0.0,0.0,0.0,0.0,0.0,0.0,0.0,0.0,-1.9934,-1.905,-1.8498,-1.8297,-1.8305,-1.7789,-1.7587,-1.7632,-1.7632,-1.7717,-1.7934,-1.794,0.0,-1.8716,-1.8991,0.0,0.0,0.0,0.0,0.0,0.0,0.0,0.0,0.0,0.0,0.0,0.0,0.0,0.0,0.0,0.0,0.0,0.0,0.0,0.0,0.0,0.0,0.0,0.0,0.0,0.0,0.0,0.0,0.0,0.0,0.0,0.0,0.0,0.0,0.0,0.0,0.0,0.0,0.0,0.0,0.0,0.0,0.0,0.0,0.0,0.0,0.0,0.0,0.0,0.0,0.0,0.0,0.0,0.0,0.0,0.0,0.0,0.0,0.0,0.0,0.0,0.0,0.0,0.0,0.0,0.0,0.0,0.0,0.0,0.0,0.0,0.0,0.0,0.0,0.0,0.0,0.0,0.0,0.0,0.0,0.0,0.0,0.0,0.0,0.0,-1.9521,-1.9727,-1.998,-2.0166,-2.0381,0.0,0.0,0.0,0.0,0.0,0.0,0.0,0.0,0.0,-1.9955,-1.9964,-1.9363,-1.8065,-1.7964,-1.7946,-1.7953,-1.7912,-1.7874,-1.7874,-1.7874,-1.7955,-1.8086,-1.8086,-1.8297,-1.8533,-1.9106,-1.9947,-2.0933,0.0,0.0,0.0,0.0,-2.1942,-2.1873,0.0,0.0,0.0,0.0,0.0,0.0,0.0,0.0,0.0,0.0,0.0,0.0,0.0,0.0,0.0,0.0,0.0,0.0,0.0,0.0,0.0,0.0,0.0,0.0,0.0,0.0,0.0,0.0,0.0,0.0,0.0,0.0,0.0,0.0,0.0,0.0,0.0,0.0,0.0,0.0,0.0,0.0,0.0,0.0,0.0,0.0,0.0,0.0,0.0,0.0,0.0,0.0,0.0,0.0,0.0,0.0,0.0,0.0,0.0,0.0,0.0,0.0,0.0,0.0,0.0,0.0,0.0,0.0,0.0,0.0,0.0,0.0,0.0,0.0,0.0,0.0,0.0,-2.0176,-2.0371,-2.0693,-2.083,-2.1035,0.0,0.0,0.0,0.0,0.0,0.0,-2.2041,-2.1184,-2.0461,-1.9869,-1.9608,-1.8883,-1.7574,-1.7816,-1.794,-1.794,-1.8182,-1.8299,-1.8299,-1.8299,-1.835,-1.843,-1.843,-1.8474,-1.864,-1.9147,-1.9607,-1.9979,-2.0743,-2.1189,-2.1459,-2.1176,-2.1078,-2.112,0.0,0.0,0.0,0.0,0.0,0.0,0.0,0.0,0.0,0.0,0.0,0.0,0.0,0.0,0.0,0.0,0.0,0.0,0.0,0.0,0.0,0.0,0.0,0.0,0.0,0.0,0.0,0.0,0.0,0.0,0.0,0.0,0.0,0.0,0.0,0.0,0.0,0.0,0.0,0.0,0.0,0.0,0.0,0.0,0.0,0.0,0.0,0.0,0.0,0.0,0.0,0.0,0.0,0.0,0.0,0.0,0.0,0.0,0.0,0.0,0.0,0.0,0.0,0.0,0.0,0.0,0.0,0.0,0.0,0.0,0.0,0.0,0.0,0.0,0.0,0.0,0.0,0.0,0.0,-2.1201,-2.1562,0.0,0.0,0.0,0.0,-2.1885,-2.2172,-2.2395,-2.248,-2.1964,-2.1365,-2.0644,-1.9821,-1.8962,-1.8255,-1.8269,-1.8277,-1.8277,-1.8291,-1.8299,-1.8299,-1.8299,-1.8474,-1.8767,-1.8767,-1.8942,-1.9177,-1.8655,-1.9155,-2.0329,-2.0428,-2.1229,-2.2332,-2.133,-2.0931,-2.0735,0.0,0.0,0.0,0.0,0.0,0.0,0.0,0.0,0.0,0.0,0.0,0.0,0.0,0.0,0.0,0.0,0.0,0.0,0.0,0.0,0.0,0.0,0.0,0.0,0.0,0.0,0.0,0.0,0.0,0.0,0.0,0.0,0.0,0.0,0.0,0.0,0.0,0.0,0.0,0.0,0.0,0.0,0.0,0.0,0.0,0.0,0.0,0.0,0.0,0.0,0.0,0.0,0.0,0.0,0.0,0.0,0.0,0.0,0.0,0.0,0.0,0.0,0.0,0.0,0.0,0.0,0.0,0.0,0.0,0.0,0.0,0.0,0.0,0.0,0.0,0.0,0.0,0.0,0.0,-2.165,-2.1787,0.0,-2.2266,-2.2295,-2.2402,-2.2676,-2.2454,-2.2682,-2.333,-2.2163,-2.1404,-2.1165,-2.0134,-1.9241,-1.8299,-1.8511,-1.8613,-1.8621,-1.8833,-1.8928,-1.8928,-1.8928,-1.8994,-1.9103,-1.9103,-1.9169,-1.9257,-1.9023,-1.9191,-1.9706,-1.9706,-1.9979,-2.038,-1.9975,-1.9879,-1.9776,0.0,0.0,0.0,0.0,0.0,0.0,0.0,0.0,0.0,0.0,0.0,0.0,0.0,0.0,0.0,0.0,0.0,0.0,0.0,0.0,0.0,0.0,0.0,0.0,0.0,0.0,0.0,0.0,0.0,0.0,0.0,0.0,0.0,0.0,0.0,0.0,0.0,0.0,0.0,0.0,0.0,0.0,-1.6949,0.0,0.0,0.0,0.0,0.0,0.0,0.0,0.0,0.0,0.0,0.0,0.0,0.0,0.0,0.0,0.0,0.0,0.0,0.0,0.0,0.0,0.0,0.0,0.0,0.0,0.0,0.0,0.0,0.0,0.0,0.0,0.0,0.0,0.0,0.0,-2.21,-2.21,-2.2217,-2.2471,-2.29,-2.2939,-2.3115,-2.3545,-2.3176,-2.3145,-2.3438,-2.2187,-2.1239,-2.0978,-2.0019,-1.9201,-1.8628,-1.8847,-1.895,-1.8957,-1.9177,-1.9279,-1.9279,-1.9279,-1.9279,-1.9279,-1.9279,-1.9279,-1.9279,-1.9279,-1.9279,-1.9279,-1.9279,-1.9279,-1.9264,-1.9155,-1.9184,-1.9279,0.0,0.0,0.0,0.0,0.0,0.0,0.0,0.0,0.0,0.0,0.0,0.0,0.0,0.0,0.0,0.0,0.0,0.0,0.0,0.0,0.0,0.0,0.0,0.0,0.0,0.0,0.0,0.0,0.0,0.0,0.0,0.0,0.0,0.0,0.0,0.0,0.0,0.0,0.0,0.0,0.0,0.0,-1.5827,0.0,0.0,0.0,0.0,0.0,0.0,0.0,0.0,0.0,0.0,0.0,0.0,0.0,0.0,0.0,0.0,0.0,0.0,0.0,0.0,0.0,0.0,0.0,0.0,0.0,0.0,0.0,0.0,0.0,0.0,0.0,0.0,0.0,-2.1963,-2.2266,-2.2539,-2.2549,-2.291,-2.333,-2.3769,-2.3809,-2.3984,-2.4293,-2.4331,-2.3961,-2.2914,-2.1873,-2.1084,-2.0269,-1.9295,-1.8957,-1.9272,-1.9279,-1.9279,-1.9279,-1.9279,-1.9279,-1.9279,-1.9279,-1.9279,-1.9279,-1.9279,-1.9279,-1.9294,-1.9294,-1.9294,-1.9301,-1.9294,-1.9294,-1.9257,-1.895,-1.9038,-1.9301,0.0,0.0,0.0,0.0,0.0,0.0,0.0,0.0,0.0,0.0,0.0,0.0,0.0,0.0,0.0,0.0,0.0,0.0,0.0,0.0,0.0,0.0,0.0,0.0,0.0,0.0,0.0,0.0,0.0,0.0,0.0,0.0,0.0,0.0,0.0,0.0,0.0,0.0,0.0,0.0,0.0,0.0,-1.618,0.0,0.0,0.0,0.0,0.0,0.0,0.0,0.0,0.0,0.0,0.0,0.0,0.0,0.0,0.0,0.0,0.0,0.0,0.0,0.0,0.0,0.0,0.0,0.0,0.0,0.0,0.0,0.0,0.0,0.0,0.0,0.0,-2.2822,-2.2402,-2.2705,-2.3086,-2.3398,-2.3535,-2.3779,-2.4199,-2.4248,-2.4002,-2.3271,-2.355,-2.3623,-2.3336,-2.1833,-2.1336,-2.1829,-2.0146,-1.9184,-1.9279,-1.9279,-1.9279,-1.9279,-1.9279,-1.9279,-1.9279,-1.9279,-1.9279,-1.9279,-1.9279,-1.9411,-1.963,-1.963,-1.9762,-1.9945,-1.9718,-1.963,-1.9645,-1.9791,-1.9894,-1.9938,0.0,0.0,0.0,0.0,0.0,0.0,0.0,0.0,0.0,0.0,0.0,0.0,0.0,0.0,0.0,0.0,0.0,0.0,0.0,0.0,0.0,0.0,0.0,0.0,0.0,0.0,0.0,0.0,0.0,0.0,0.0,0.0,0.0,0.0,0.0,0.0,0.0,0.0,0.0,0.0,0.0,0.0,-1.6002,-1.7276,-1.8127,-1.8895,-2.0167,-2.0566,-2.0566,-2.0566,0.0,0.0,0.0,0.0,0.0,0.0,0.0,0.0,0.0,0.0,0.0,0.0,0.0,0.0,0.0,0.0,0.0,0.0,0.0,0.0,0.0,0.0,0.0,0.0,-2.3252,-2.3389,-2.332,-2.3369,-2.3574,-2.4004,-2.4053,-2.4219,-2.4648,-2.4304,-2.3796,-2.3382,-2.3223,-2.2858,-2.2464,-2.1476,-2.0987,-2.1183,-1.9983,-1.9279,-1.9279,-1.9279,-1.9279,-1.9279,-1.9279,-1.9279,-1.9279,-1.9418,-1.9477,-1.9484,-1.9623,-1.9784,-1.9959,-1.9959,-2.0069,0.0,0.0,0.0,0.0,0.0,-2.015,-2.0033,0.0,0.0,0.0,0.0,0.0,0.0,0.0,0.0,0.0,0.0,0.0,-1.4675,0.0,0.0,0.0,0.0,0.0,0.0,0.0,0.0,0.0,0.0,0.0,0.0,0.0,0.0,0.0,0.0,0.0,0.0,0.0,0.0,0.0,0.0,0.0,0.0,0.0,0.0,0.0,0.0,0.0,0.0,-1.5649,-1.7416,-1.7951,-1.8078,-1.9678,-2.0323,-2.0323,-2.0323,0.0,0.0,0.0,0.0,0.0,0.0,0.0,0.0,0.0,0.0,0.0,0.0,0.0,0.0,0.0,0.0,0.0,0.0,0.0,0.0,0.0,0.0,0.0,0.0,-2.3857,-2.4004,-2.4434,-2.417,-2.4072,-2.4443,-2.4492,-2.4668,-2.5098,-2.4162,-2.3712,-2.3863,-2.2894,-2.1887,-2.0987,0.0,0.0,0.0,0.0,-1.9279,-1.9279,-1.9316,-1.933,-1.933,-1.9367,-1.9381,-1.9389,-1.9681,-1.982,-1.9835,-2.0113,-2.0259,-2.0296,-2.0296,-2.0311,-2.034,-2.0303,-2.0311,-2.0347,-2.0347,-2.0164,-1.9967,0.0,0.0,0.0,0.0,0.0,0.0,0.0,0.0,0.0,-1.4565,-1.4606,-1.4786,-1.4946,0.0,0.0,0.0,0.0,0.0,0.0,0.0,0.0,0.0,0.0,0.0,0.0,0.0,0.0,0.0,0.0,0.0,0.0,0.0,0.0,0.0,0.0,0.0,0.0,0.0,0.0,0.0,0.0,0.0,-1.5989,-1.7788,-1.7845,-1.7107,-1.8158,-1.8479,-1.8479,-1.8479,-1.8479,-1.8559,-1.9134,0.0,0.0,0.0,0.0,0.0,0.0,0.0,0.0,0.0,0.0,0.0,0.0,0.0,0.0,0.0,0.0,0.0,0.0,0.0,0.0,-2.4228,-2.4297,-2.4443,-2.4883,-2.4873,-2.4853,-2.4932,-2.4941,-2.5117,-2.5566,-2.4585,-2.361,-2.2885,-2.1785,-2.1081,-2.0885,-2.0078,-1.9879,-2.0585,-1.9776,-1.9279,-1.9279,-1.9535,-1.9667,-1.9674,0.0,0.0,-2.0055,-2.0113,-2.0142,-2.015,-2.0208,-2.0384,-2.0625,-2.0625,-2.0786,-2.0998,-2.0728,-2.0786,-2.102,-2.102,-2.0984,-2.094,0.0,0.0,0.0,0.0,0.0,0.0,0.0,0.0,0.0,0.0,-1.4606,-1.4814,-1.5056,0.0,0.0,0.0,0.0,0.0,0.0,0.0,0.0,0.0,0.0,0.0,0.0,0.0,0.0,0.0,0.0,0.0,0.0,0.0,0.0,0.0,0.0,0.0,0.0,0.0,0.0,0.0,0.0,0.0,-1.6536,-1.7728,-1.7684,-1.7044,-1.7952,-1.816,-1.7997,-1.7997,-1.8126,-1.828,-1.828,-1.8663,-1.9277,0.0,0.0,0.0,0.0,0.0,0.0,0.0,0.0,0.0,0.0,0.0,0.0,0.0,0.0,-2.4057,0.0,0.0,-2.4431,-2.4678,-2.4746,-2.4893,-2.5342,-2.54,-2.54,-2.54,-2.54,-2.5286,-2.4894,-2.3899,-2.2885,-2.1785,-2.0688,-2.0078,-2.0078,-1.9576,-1.9658,-2.033,-1.9829,-1.9594,-1.9755,-1.9916,-1.9996,-2.0003,-2.0164,-2.0237,-2.0237,-2.0406,-2.0479,-2.0486,-2.0655,-2.0815,-2.0969,-2.0969,-2.1064,-2.1196,-2.1035,-2.1064,-2.1211,-2.1211,-2.1211,-2.1211,0.0,0.0,0.0,0.0,0.0,0.0,0.0,0.0,0.0,0.0,0.0,-1.4963,-1.5517,0.0,0.0,0.0,0.0,0.0,0.0,0.0,0.0,0.0,0.0,0.0,0.0,0.0,0.0,0.0,0.0,0.0,0.0,0.0,0.0,0.0,0.0,0.0,0.0,0.0,0.0,0.0,0.0,0.0,-1.7,-1.7374,-1.7337,-1.7062,-1.7736,-1.7796,-1.7638,-1.7704,-1.7838,-1.8003,-1.7496,-1.7953,-1.8887,-1.9385,-2.0009,0.0,0.0,0.0,0.0,0.0,0.0,0.0,0.0,0.0,-2.4155,-2.4242,-2.451,-2.4745,-2.4656,-2.4784,-2.4977,-2.5222,-2.5195,-2.5322,-2.5684,-2.5742,-2.5742,-2.5742,-2.5528,-2.502,-2.4187,-2.2985,-2.1785,-2.0987,-1.994,-1.9367,-1.9367,-1.9425,-1.9579,-1.9842,-1.9857,-1.9974,-2.023,-2.0303,-2.0333,-2.0333,-2.0391,-2.0428,-2.0435,-2.0698,-2.0815,-2.083,-2.1094,-2.1211,-2.1211,-2.1211,-2.1211,-2.1211,-2.1211,-2.1211,-2.1211,-2.1211,-2.1211,-2.1211,0.0,0.0,0.0,0.0,0.0,0.0,0.0,0.0,0.0,0.0,0.0,0.0,0.0,0.0,0.0,0.0,0.0,0.0,0.0,0.0,0.0,0.0,0.0,0.0,0.0,0.0,0.0,0.0,0.0,0.0,0.0,0.0,0.0,0.0,0.0,0.0,0.0,0.0,0.0,0.0,0.0,0.0,-1.7238,-1.7098,-1.6603,-1.6085,-1.6163,-1.6141,-1.6149,-1.6511,-1.663,-1.6748,-1.7431,-1.7723,-1.8246,-2.0321,0.0,-2.1386,-2.2959,-2.3434,0.0,-2.3222,-2.3144,-2.3232,0.0,0.0,-2.3989,-2.4345,-2.4415,-2.4647,-2.5218,-2.5149,-2.5241,-2.5586,-2.5664,-2.5684,-2.5732,-2.5742,-2.5742,-2.5742,-2.4815,-2.4196,-2.4088,-2.2291,-2.0987,-2.0885,-2.0159,-1.9711,-1.9711,-1.9974,-2.0142,-2.0179,-2.0186,-2.0201,-2.0237,-2.0523,-2.0669,-2.0669,-2.0962,-2.1101,-2.1101,-2.1137,-2.1159,-2.1159,-2.1196,-2.1211,-2.1211,-2.1211,-2.1211,-2.1211,-2.1211,-2.1211,-2.1211,-2.1211,-2.1211,-2.1211,0.0,0.0,0.0,0.0,0.0,0.0,0.0,0.0,0.0,0.0,0.0,0.0,0.0,0.0,0.0,0.0,0.0,0.0,0.0,0.0,0.0,0.0,0.0,0.0,0.0,0.0,0.0,0.0,0.0,0.0,0.0,0.0,0.0,0.0,0.0,0.0,0.0,0.0,0.0,0.0,0.0,0.0,-1.7033,-1.6908,-1.6572,-1.6264,-1.6771,-1.7023,0.0,0.0,-1.7355,-1.7435,-1.7265,-1.7753,-1.8652,-2.0136,-2.0997,0.0,-2.2911,0.0,0.0,0.0,-2.3604,-2.3752,-2.4008,-2.4295,-2.4615,-2.4615,-2.4861,-2.5031,-2.5303,-2.5464,-2.5518,0.0,-2.5742,-2.5742,-2.5742,-2.5742,-2.5742,-2.5742,-2.4205,-2.3384,-2.4088,-2.2892,-2.1903,-2.1187,-2.0476,-2.004,-2.004,-2.0164,-2.0318,-2.0508,-2.0523,-2.0611,-2.0801,-2.094,-2.1006,-2.1006,-2.1145,-2.1211,-2.1211,-2.1211,-2.1211,-2.1211,-2.1211,-2.1211,-2.1211,-2.1211,-2.1211,-2.1211,-2.1211,-2.1211,-2.1211,-2.1211,-2.1211,-2.1211,0.0,0.0,0.0,0.0,0.0,0.0,0.0,0.0,0.0,0.0,0.0,0.0,0.0,0.0,0.0,0.0,0.0,0.0,0.0,0.0,0.0,0.0,0.0,0.0,0.0,0.0,0.0,0.0,0.0,0.0,0.0,0.0,0.0,0.0,0.0,0.0,0.0,0.0,0.0,0.0,0.0,0.0,-1.685,-1.6845,-1.6862,-1.7153,-1.7746,-1.797,0.0,0.0,-1.8637,-1.8677,-1.8053,-1.8407,-1.933,-2.0322,-2.132,-2.2236,-2.296,0.0,0.0,-2.3711,-2.3967,-2.4215,-2.4438,-2.4789,-2.5063,-2.497,-2.5224,-2.5435,-2.5435,-2.5614,-2.5742,-2.5742,-2.5742,-2.5635,-2.5323,-2.5226,-2.5128,-2.4824,-2.35,-2.295,-2.3754,-2.2792,-2.186,-2.1137,-2.0614,-2.0369,-2.0369,-2.0457,-2.0611,-2.0852,-2.0859,-2.0969,-2.1203,-2.1211,-2.1211,-2.1211,-2.1211,-2.1211,-2.1211,-2.1211,-2.1211,-2.1211,-2.1211,-2.1211,-2.1211,-2.1211,-2.1211,-2.1218,-2.1306,-2.1342,-2.1357,-2.1445,-2.1364,-2.1218,0.0,0.0,0.0,0.0,0.0,0.0,0.0,0.0,0.0,0.0,0.0,0.0,0.0,0.0,0.0,0.0,0.0,0.0,0.0,0.0,0.0,0.0,0.0,0.0,0.0,0.0,0.0,0.0,0.0,0.0,0.0,0.0,0.0,0.0,0.0,0.0,0.0,0.0,0.0,0.0,0.0,0.0,-1.6821,-1.6506,-1.7386,-1.8716,-1.8367,0.0,0.0,0.0,-2.0116,-2.0124,-2.0124,-2.0133,0.0,-2.1329,-2.2325,0.0,0.0,0.0,-2.3769,-2.3789,-2.4092,-2.4496,-2.47,-2.4933,-2.5143,-2.5322,-2.5592,-2.5713,-2.5713,-2.5732,-2.5742,-2.5742,-2.5742,-2.5323,-2.4295,-2.4187,-2.3791,-2.2685,-2.2818,-2.304,0.0,-2.1094,-1.9994,-2.0194,-2.0523,-2.0706,-2.0706,-2.1006,-2.1181,-2.1196,-2.1196,-2.1203,-2.1211,-2.1211,-2.1211,-2.1211,-2.1211,-2.1211,-2.1211,-2.1211,-2.1211,-2.1211,-2.1211,-2.1211,-2.1211,-2.1211,-2.1211,-2.124,-2.1562,-2.1679,-2.1723,-2.2037,-2.1752,-2.1254,0.0,0.0,0.0,0.0,0.0,0.0,0.0,0.0,0.0,0.0,0.0,0.0,0.0,0.0,0.0,0.0,0.0,0.0,0.0,0.0,0.0,0.0,0.0,0.0,0.0,0.0,0.0,0.0,0.0,0.0,0.0,0.0,0.0,0.0,0.0,0.0,0.0,0.0,0.0,0.0,0.0,0.0,-1.6543,-1.6652,-1.7439,-1.8544,0.0,0.0,0.0,0.0,-2.1239,-2.106,-2.0413,0.0,0.0,-2.2325,-2.3075,-2.3386,-2.274,0.0,-2.4084,-2.3702,-2.4258,-2.4724,-2.4411,-2.49,-2.5305,-2.4685,-2.512,-2.5742,-2.5742,-2.5742,-2.5742,-2.5742,-2.5118,-2.4501,-2.4187,-2.3493,-2.299,-2.2835,-2.2258,0.0,0.0,0.0,0.0,-2.1626,-2.1182,-2.105,-2.105,-2.1152,-2.1211,-2.1211,-2.1211,-2.1211,-2.1211,-2.1211,-2.1211,-2.1211,-2.1211,-2.1211,-2.1211,-2.1211,-2.1211,-2.1211,-2.1211,-2.1211,-2.1225,-2.1445,-2.1533,-2.1569,-2.1891,-2.2023,-2.2037,-2.214,-2.2045,-2.1869,0.0,0.0,0.0,0.0,0.0,0.0,0.0,0.0,0.0,0.0,0.0,0.0,0.0,0.0,0.0,0.0,0.0,0.0,0.0,0.0,0.0,0.0,0.0,0.0,0.0,0.0,0.0,0.0,0.0,0.0,0.0,0.0,0.0,0.0,0.0,0.0,0.0,0.0,0.0,0.0,0.0,0.0,-1.7085,-1.7304,-1.8253,0.0,0.0,0.0,0.0,0.0,0.0,-2.1695,-2.132,-2.1686,-2.2264,-2.2682,-2.3019,-2.2985,-2.2104,-2.2617,-2.3361,-2.3042,-2.3505,-2.4078,-2.3628,-2.4402,-2.4913,-2.4196,-2.4913,-2.5742,-2.5742,-2.5742,-2.5528,-2.5216,-2.4501,-2.3791,-2.3085,-2.2391,-2.1926,-2.1884,-2.1309,-2.1187,0.0,0.0,0.0,-2.1877,-2.142,-2.1211,-2.1211,-2.1211,-2.1211,-2.1211,-2.1211,-2.1211,-2.1211,-2.1211,-2.1211,-2.1211,-2.1211,-2.1211,-2.1211,-2.1211,-2.1211,-2.1218,-2.1335,-2.1386,-2.1408,-2.1737,-2.1869,-2.1906,-2.222,-2.2337,-2.2352,-2.2476,-2.2513,-2.2498,0.0,0.0,0.0,0.0,0.0,0.0,0.0,0.0,0.0,0.0,0.0,0.0,0.0,0.0,0.0,0.0,0.0,0.0,0.0,0.0,0.0,0.0,0.0,0.0,0.0,0.0,0.0,0.0,0.0,0.0,0.0,0.0,0.0,0.0,0.0,0.0,0.0,0.0,0.0,0.0,0.0,0.0,-1.824,-1.8255,0.0,0.0,0.0,0.0,0.0,0.0,0.0,0.0,0.0,0.0,-2.2861,-2.2281,-2.2135,-2.205,-2.1293,-2.1485,-2.197,-2.1872,-2.2227,-2.2492,-2.2383,-2.3294,-2.3989,-2.3989,-2.4815,-2.5635,0.0,0.0,-2.5323,-2.4295,-2.3989,-2.3194,-2.1183,-2.0885,-2.0615,0.0,0.0,0.0,0.0,0.0,0.0,-2.1211,0.0,-2.1211,-2.1211,-2.1211,-2.1211,-2.1211,-2.1211,-2.1211,-2.1211,-2.1211,-2.1211,-2.1211,-2.1211,-2.1218,-2.1233,-2.1233,-2.124,-2.1276,-2.1591,-2.1723,-2.1745,-2.2074,-2.2206,-2.2235,-2.2528,-2.2645,-2.2681,-2.2996,-2.3106,-2.3062,0.0,0.0,0.0,0.0,0.0,0.0,0.0,0.0,0.0,0.0,0.0,0.0,0.0,0.0,0.0,0.0,0.0,0.0,0.0,0.0,0.0,0.0,0.0,0.0,0.0,0.0,0.0,0.0,0.0,0.0,0.0,0.0,0.0,0.0,0.0,0.0,0.0,0.0,0.0,0.0,0.0,0.0,-1.7898,0.0,0.0,0.0,0.0,0.0,0.0,0.0,0.0,0.0,0.0,-2.0962,-2.0942,-2.1064,-2.1284,-2.1406,-2.0614,-2.1371,-2.2155,-2.135,-2.182,-2.2282,-2.1481,-2.219,-2.2685,-2.1887,-2.3194,-2.4501,0.0,0.0,0.0,-2.4187,-2.2785,0.0,-2.0987,-2.0181,0.0,-2.0047,0.0,-2.0457,-2.1035,-2.1159,0.0,0.0,-2.1211,-2.1211,-2.1211,-2.1211,-2.1211,-2.1211,-2.1211,-2.1211,-2.1211,-2.1211,-2.1211,-2.1211,-2.1211,-2.1335,-2.1569,-2.1569,-2.1708,-2.1942,-2.2023,-2.2059,-2.2081,-2.2389,-2.2513,-2.2542,-2.2864,-2.2981,-2.2996,-2.3076,-2.3106,-2.3098,0.0,0.0,0.0,0.0,0.0,0.0,0.0,0.0,0.0,0.0,0.0,0.0,0.0,0.0,0.0,0.0,0.0,0.0,0.0,0.0,0.0,0.0,0.0,0.0,0.0,0.0,0.0,0.0,0.0,0.0,0.0,0.0,0.0,0.0,0.0,0.0,0.0,0.0,0.0,0.0,0.0,0.0,0.0,0.0,0.0,0.0,0.0,0.0,0.0,0.0,0.0,-2.0232,-2.0232,-2.0252,-2.0373,-2.0284,0.0,-2.0729,-2.0,-2.0437,-2.0987,-2.0388,-2.068,-2.0987,-2.0388,-2.0987,-2.1785,-2.1591,-2.2885,0.0,0.0,0.0,0.0,0.0,0.0,0.0,-2.0285,-1.968,-1.9513,0.0,-2.0237,0.0,-2.1145,-2.1211,-2.1211,0.0,-2.1211,-2.1211,-2.1211,-2.1211,-2.1211,-2.1211,-2.1211,-2.1211,-2.1211,-2.1211,-2.1284,-2.1423,-2.1423,-2.1598,-2.1913,-2.1913,-2.2008,-2.2191,0.0,-2.2374,-2.2396,-2.271,-2.2835,-2.2857,-2.304,-2.3106,-2.3106,-2.3106,-2.3106,-2.3106,0.0,0.0,0.0,0.0,0.0,0.0,0.0,0.0,0.0,0.0,0.0,0.0,0.0,0.0,0.0,0.0,0.0,0.0,0.0,0.0,0.0,0.0,0.0,0.0,0.0,0.0,0.0,0.0,0.0,0.0,0.0,0.0,0.0,0.0,0.0,0.0,0.0,0.0,0.0,0.0,0.0,0.0,0.0,0.0,0.0,0.0,0.0,0.0,0.0,0.0,-1.8419,-1.9778,-1.9778,-2.0038,-2.0218,-1.9741,-1.9795,-1.9946,-1.9384,-1.9279,-1.9279,-1.9279,-1.9279,-1.9279,-1.9279,-1.9983,-2.0979,-2.2089,0.0,-2.389,-2.389,-2.389,-2.3185,-2.1183,0.0,-2.038,-1.948,-1.9279,-1.9513,-2.0157,-2.0237,-2.0494,-2.1145,-2.1211,-2.1211,-2.1211,-2.1211,-2.1211,-2.1211,-2.1211,-2.1211,-2.1211,-2.1211,-2.1211,-2.1211,-2.1254,-2.1415,-2.1693,-2.1745,-2.1935,-2.2242,-2.2242,-2.2264,-2.2323,-2.2579,-2.2689,-2.271,-2.2988,-2.3106,-2.3106,-2.3106,-2.3106,-2.3106,-2.3106,-2.3106,-2.3106,0.0,0.0,0.0,0.0,0.0,0.0,0.0,0.0,0.0,0.0,-1.966,-2.0205,0.0,0.0,0.0,0.0,0.0,0.0,0.0,0.0,0.0,0.0,0.0,0.0,0.0,0.0,0.0,0.0,0.0,0.0,0.0,0.0,0.0,0.0,0.0,0.0,0.0,0.0,0.0,0.0,0.0,0.0,0.0,0.0,0.0,0.0,0.0,0.0,0.0,0.0,-1.7505,-1.7785,-1.7785,-1.801,-1.8348,-1.8498,-1.8825,-1.9058,-1.9287,-1.9279,-1.9279,-1.9279,-1.9279,-1.9279,-1.9279,-1.948,0.0,0.0,0.0,-2.2785,-2.2785,-2.2785,0.0,-2.1081,0.0,0.0,0.0,0.0,-1.9513,0.0,0.0,0.0,0.0,0.0,0.0,0.0,0.0,-2.1211,-2.1211,-2.1211,-2.1211,-2.1211,-2.1211,-2.1211,-2.1211,-2.1474,-2.1642,-2.1701,-2.1972,-2.2257,-2.255,-2.255,-2.2689,-2.2952,-2.3003,0.0,-2.3025,-2.3084,-2.3106,-2.3106,-2.3106,-2.3106,-2.3106,-2.3106,-2.3106,-2.3106,0.0,0.0,0.0,0.0,0.0,0.0,0.0,-1.8114,-1.9034,-1.9222,-2.0107,-2.0646,-2.0646,-2.0453,-1.9987,0.0,0.0,0.0,0.0,0.0,0.0,0.0,0.0,0.0,0.0,0.0,0.0,0.0,0.0,0.0,0.0,0.0,0.0,0.0,0.0,0.0,0.0,0.0,0.0,0.0,0.0,0.0,0.0,0.0,0.0,0.0,0.0,0.0,0.0,0.0,-1.7326,-1.7326,-1.7326,-1.7669,-1.8101,-1.8255,-1.8657,-1.9074,-1.9235,-1.9279,-1.9279,-1.9279,-1.9279,-1.9279,-1.9279,0.0,0.0,0.0,0.0,-2.1887,-2.2391,0.0,0.0,0.0,0.0,0.0,0.0,0.0,0.0,0.0,0.0,0.0,0.0,0.0,0.0,0.0,0.0,-2.1211,-2.1211,-2.1211,-2.1211,-2.1211,-2.1379,-2.1459,-2.1459,-2.1789,-2.203,-2.2176,-2.2337,-2.2579,-2.2871,-2.2871,-2.2959,-2.3106,-2.3106,-2.3106,-2.3106,-2.3106,-2.3106,-2.3106,-2.3106,-2.3106,-2.3106,-2.3106,-2.3106,-2.3106,0.0,0.0,0.0,0.0,0.0,0.0,0.0,-1.8104,-1.91,-1.941,-2.0549,-2.1158,-2.0775,-2.0635,-2.0237,0.0,0.0,0.0,0.0,0.0,0.0,0.0,0.0,0.0,0.0,0.0,0.0,0.0,0.0,0.0,0.0,0.0,0.0,0.0,0.0,0.0,0.0,0.0,0.0,0.0,0.0,0.0,0.0,0.0,0.0,0.0,0.0,0.0,0.0,0.0,-1.7326,-1.7326,-1.7326,-1.7728,-1.8211,-1.8284,-1.8716,-1.9184,-1.9257,-1.9279,-1.9279,-1.9279,-1.9279,-1.9279,-1.9279,-1.9279,0.0,0.0,0.0,-2.1183,-2.1988,0.0,0.0,0.0,0.0,0.0,0.0,0.0,0.0,0.0,0.0,0.0,0.0,0.0,0.0,0.0,0.0,-2.1211,-2.1211,-2.1211,-2.124,-2.1313,-2.1562,-2.173,-2.1803,-2.2118,-2.2396,-2.2623,-2.2689,-2.2864,-2.3106,-2.3106,-2.3106,-2.3106,-2.3106,-2.3106,-2.3106,-2.3106,-2.3106,-2.3106,-2.3106,-2.3106,-2.3106,-2.3106,-2.3106,-2.3106,0.0,0.0,0.0,0.0,0.0,0.0,0.0,-1.824,-1.911,-1.9299,-2.0677,-2.1526,-2.1158,-2.0828,-2.0172,0.0,0.0,0.0,0.0,0.0,0.0,0.0,0.0,0.0,0.0,0.0,0.0,0.0,0.0,0.0,0.0,0.0,0.0,0.0,0.0,0.0,0.0,0.0,0.0,0.0,0.0,0.0,0.0,0.0,0.0,0.0,0.0,0.0,0.0,0.0,0.0,-1.7326,-1.7326,-1.7574,-1.7918,-1.8218,0.0,0.0,-1.9199,-1.9279,-1.9279,-1.9279,-1.9279,-1.9279,-1.9279,0.0,0.0,0.0,-2.0987,-2.0885,-2.0987,0.0,0.0,0.0,0.0,-1.9279,0.0,0.0,0.0,0.0,0.0,0.0,0.0,0.0,0.0,0.0,0.0,-2.1211,-2.1211,-2.1211,-2.1342,-2.1642,-2.1679,-2.184,-2.2132,-2.2432,-2.2593,-2.2623,-2.2923,-2.3084,-2.3106,-2.3106,-2.3106,-2.3106,-2.3106,-2.3106,0.0,-2.3106,-2.3106,-2.3106,-2.3106,-2.3106,-2.3106,-2.3106,-2.3106,-2.3106,0.0,0.0,0.0,0.0,0.0,0.0,-1.7038,-1.7891,-1.869,-1.9044,-2.0139,-2.0996,-2.1463,-2.0955,-2.0442,-1.9977,0.0,0.0,0.0,0.0,0.0,0.0,0.0,0.0,0.0,0.0,0.0,0.0,0.0,0.0,0.0,0.0,0.0,0.0,0.0,0.0,0.0,0.0,0.0,0.0,0.0,0.0,0.0,0.0,0.0,0.0,0.0,0.0,0.0,0.0,0.0,0.0,-1.7326,-1.801,0.0,0.0,-1.8672,-1.9111,-1.9242,-1.9279,-1.9279,-1.9279,-1.9279,-1.9279,-1.9279,0.0,0.0,-2.0688,-2.0388,-2.0078,-2.0783,-2.038,0.0,0.0,0.0,0.0,0.0,0.0,0.0,0.0,0.0,0.0,0.0,0.0,0.0,0.0,0.0,-2.1211,-2.1211,-2.1211,-2.1357,-2.1686,-2.1891,-2.214,-2.244,-2.2754,-2.2915,-2.2915,-2.3047,-2.3106,-2.3106,-2.3106,-2.3106,-2.3106,-2.3106,-2.3106,0.0,-2.3106,-2.3106,-2.3106,-2.3106,-2.3106,-2.3106,-2.3106,-2.3106,-2.3106,0.0,0.0,0.0,0.0,0.0,-1.6908,-1.6968,-1.756,-1.822,-1.8643,-1.9562,-2.0409,-2.1071,-2.0955,-2.0733,-2.066,-1.9624,0.0,0.0,0.0,0.0,0.0,0.0,0.0,0.0,0.0,0.0,0.0,0.0,0.0,0.0,0.0,0.0,0.0,0.0,0.0,0.0,0.0,0.0,0.0,0.0,0.0,0.0,0.0,0.0,0.0,0.0,0.0,0.0,0.0,0.0,0.0,0.0,0.0,0.0,0.0,-1.8888,-1.9553,-1.9354,-1.9279,-1.9279,-1.9279,-1.9279,-1.9279,0.0,0.0,-1.9472,-2.0285,-1.9783,-1.9576,-2.0285,-1.9783,-1.9279,-1.9279,-1.9279,-1.9279,-1.9279,0.0,0.0,0.0,0.0,0.0,0.0,0.0,0.0,0.0,0.0,-2.1211,-2.1211,-2.1306,-2.1503,-2.1832,-2.2147,-2.2462,-2.2762,-2.2996,-2.3106,-2.3106,-2.3106,-2.3106,-2.3106,-2.3106,-2.3106,-2.3106,-2.3106,-2.3106,0.0,-2.3106,-2.3106,-2.3106,-2.3106,-2.3106,-2.3106,-2.3106,-2.3106,-2.3106,0.0,0.0,0.0,0.0,0.0,0.0,-1.7166,-1.751,-1.7784,-1.8008,-1.9054,-1.9835,-1.9846,-2.0635,-2.1111,-2.085,-2.0367,0.0,0.0,0.0,0.0,0.0,0.0,0.0,0.0,0.0,0.0,0.0,0.0,0.0,0.0,0.0,0.0,0.0,0.0,0.0,0.0,0.0,0.0,0.0,0.0,0.0,0.0,0.0,0.0,0.0,0.0,0.0,0.0,0.0,0.0,0.0,0.0,0.0,0.0,0.0,-1.9308,-2.024,-1.9487,-1.9279,-1.9279,-1.9279,-1.9279,-1.9279,0.0,0.0,-1.9279,-1.9272,-1.9279,-1.9279,-1.9272,-1.9279,-1.9279,-1.9279,-1.9279,-1.9279,-1.9279,0.0,0.0,0.0,0.0,0.0,0.0,0.0,0.0,0.0,0.0,0.0,-2.1211,-2.1511,-2.184,-2.2169,-2.2462,-2.2776,-2.3098,-2.3106,-2.3106,-2.3106,-2.3106,-2.3106,-2.3106,-2.3106,-2.3106,-2.3106,-2.3106,-2.3106,0.0,-2.3106,-2.3106,-2.3106,-2.3106,-2.3106,-2.3106,-2.3106,-2.3106,-2.3106,0.0,0.0,0.0,0.0,0.0,0.0,0.0,-1.7107,-1.7314,-1.7716,-1.8114,-1.8576,-1.9177,-1.9452,-1.9615,-1.979,-1.9961,0.0,0.0,0.0,0.0,0.0,0.0,0.0,0.0,0.0,0.0,-1.6881,-1.6895,0.0,0.0,0.0,0.0,0.0,0.0,0.0,0.0,0.0,0.0,0.0,0.0,0.0,0.0,0.0,0.0,0.0,0.0,0.0,0.0,0.0,0.0,0.0,0.0,0.0,0.0,0.0,0.0,0.0,-1.9346,-1.9279,-1.9279,-1.9279,-1.9279,-1.9279,-1.9279,0.0,-1.9279,-1.9279,-1.9279,-1.9279,-1.9279,-1.9279,-1.9279,-1.9279,-1.9279,-1.9279,-1.9279,0.0,0.0,0.0,0.0,0.0,0.0,0.0,0.0,0.0,-2.1211,-2.1211,-2.1211,-2.173,-2.2081,-2.2184,-2.2469,-2.2776,-2.3106,-2.3106,-2.3106,-2.3106,-2.3106,-2.3106,-2.3106,-2.3106,-2.3106,-2.3106,-2.3106,-2.3106,-2.3106,-2.3106,-2.3106,-2.3106,-2.3106,-2.3106,-2.3106,-2.3106,-2.3106,-2.3106,0.0,0.0,0.0,0.0,0.0,0.0,0.0,-1.6908,-1.7047,-1.7373,-1.7569,-1.791,-1.8442,-1.9044,-1.9274,-1.9116,-1.9687,0.0,0.0,0.0,0.0,0.0,0.0,0.0,0.0,-1.6572,-1.6917,-1.6908,-1.6922,-1.7314,-1.8007,-1.8018,0.0,0.0,0.0,0.0,0.0,0.0,0.0,0.0,0.0,0.0,-1.7025,0.0,0.0,0.0,0.0,0.0,0.0,0.0,0.0,0.0,0.0,0.0,0.0,0.0,-2.0145,0.0,0.0,-1.9279,-1.9279,-1.9279,-1.9279,0.0,0.0,0.0,-1.9279,-1.9279,-1.9279,-1.9279,-1.9279,-1.9279,-1.9279,-1.9279,-1.9279,-1.9279,-1.9279,0.0,0.0,0.0,0.0,0.0,0.0,0.0,0.0,0.0,-2.1211,-2.1211,-2.1211,-2.1832,-2.2184,-2.2184,-2.2586,-2.2901,-2.3106,-2.3106,-2.3106,-2.3106,-2.3106,-2.3106,-2.3106,-2.3106,-2.3106,-2.3106,-2.3106,-2.3106,0.0,-2.3106,-2.3106,-2.3106,-2.3106,-2.3106,-2.3106,-2.3106,-2.3106,-2.3106,0.0,0.0,0.0,0.0,0.0,0.0,0.0,-1.6908,-1.6908,-1.6908,-1.7304,-1.7638,-1.7638,-1.9079,-1.9671,-1.87,0.0,0.0,0.0,0.0,0.0,0.0,0.0,0.0,0.0,-1.6132,-1.6919,-1.6872,-1.689,-1.7292,-1.7929,-1.7988,-1.7949,0.0,0.0,0.0,0.0,0.0,0.0,0.0,0.0,0.0,0.0,0.0,0.0,0.0,0.0,0.0,0.0,0.0,0.0,0.0,0.0,0.0,0.0,0.0,0.0,0.0,0.0,0.0,0.0,0.0,0.0,0.0,0.0,0.0,0.0,0.0,-1.9279,-1.9279,-1.9279,-1.9279,-1.9279,-1.9279,-1.9279,-1.9279,-1.9279,-1.9835,0.0,0.0,0.0,0.0,0.0,0.0,0.0,-2.1211,-2.1211,-2.1211,-2.1211,-2.1803,-2.2162,-2.2184,-2.2762,-2.3084,-2.3106,-2.3106,-2.3106,-2.3106,-2.3106,-2.3106,-2.3106,-2.3106,-2.3106,0.0,-2.3106,-2.3106,-2.3106,-2.3106,-2.3106,-2.3106,-2.3106,-2.3106,-2.3106,-2.3106,-2.3106,-2.3106,0.0,0.0,0.0,0.0,0.0,0.0,0.0,0.0,0.0,0.0,-1.7038,-1.7107,-1.7107,-1.7569,-1.792,0.0,0.0,0.0,0.0,0.0,0.0,0.0,0.0,0.0,0.0,-1.6275,-1.691,-1.69,-1.693,-1.7079,-1.7489,-1.7598,-1.7716,-1.7716,-1.6614,0.0,0.0,0.0,0.0,0.0,0.0,0.0,0.0,0.0,0.0,0.0,-1.8042,-1.7793,0.0,0.0,0.0,0.0,0.0,0.0,0.0,0.0,-2.2195,-2.2785,-2.0086,0.0,-1.9279,-1.9279,-1.9279,0.0,0.0,0.0,0.0,0.0,0.0,-1.9279,-1.9279,-1.9279,-1.9279,-1.9279,-1.9279,-1.9279,-1.9279,0.0,0.0,0.0,0.0,0.0,0.0,0.0,0.0,-2.1211,-2.1211,-2.1211,-2.1211,-2.1591,-2.1928,-2.2176,-2.2542,-2.2857,-2.3106,-2.3106,-2.3106,-2.3106,-2.3106,-2.3106,-2.3106,-2.3106,-2.3106,-2.3106,-2.3106,-2.3106,-2.3106,-2.3106,-2.3106,-2.3106,-2.3106,-2.3106,-2.3106,-2.3106,-2.3106,-2.3106,0.0,0.0,0.0,0.0,0.0,0.0,0.0,0.0,0.0,0.0,0.0,-1.6908,-1.6908,-1.7364,0.0,0.0,0.0,0.0,0.0,0.0,0.0,0.0,0.0,0.0,-1.5378,-1.6723,-1.7223,-1.6902,-1.6884,-1.706,-1.7332,-1.752,-1.7647,-1.7647,-1.6845,0.0,0.0,0.0,0.0,0.0,-1.8567,0.0,0.0,0.0,0.0,0.0,-1.8829,-1.8729,0.0,-2.0597,-2.0331,-1.9786,0.0,0.0,0.0,0.0,-2.2973,-2.2994,-2.1285,-2.0388,-1.9879,-1.9376,-1.9279,-1.9279,0.0,0.0,0.0,0.0,0.0,0.0,-1.9279,0.0,0.0,-1.9279,-1.9279,-1.9381,0.0,0.0,0.0,0.0,0.0,0.0,0.0,0.0,-2.1089,-2.0967,-2.0967,-2.0967,-2.0737,-2.1271,-2.1589,-2.1915,-2.234,-2.2776,-2.3106,-2.3106,-2.2981,-2.2856,-2.2856,-2.2731,-2.2606,-2.2606,-2.2738,-2.2856,-2.2856,-2.2988,-2.3106,-2.3106,-2.3106,-2.3106,-2.3106,-2.3106,-2.3106,-2.3106,-2.2981,-2.2856,0.0,0.0,0.0,0.0,0.0,0.0,0.0,0.0,0.0,0.0,0.0,0.0,0.0,0.0,0.0,0.0,0.0,0.0,0.0,0.0,0.0,0.0,0.0,-1.5412,-1.5425,-1.6974,-1.7471,-1.6807,-1.6924,-1.707,-1.7254,-1.748,-1.7608,-1.7588,-1.7521,-1.7343,0.0,0.0,0.0,0.0,-1.9381,0.0,0.0,0.0,0.0,0.0,0.0,0.0,0.0,-2.0607,-2.0503,-2.0593,-2.1596,0.0,0.0,0.0,0.0,0.0,-2.2391,-2.1582,-2.0688,-1.9583,-1.9279,-1.9279,0.0,0.0,0.0,0.0,0.0,0.0,0.0,0.0,0.0,0.0,0.0,0.0,0.0,0.0,0.0,0.0,0.0,0.0,0.0,-2.0852,-2.0967,-2.0608,-2.0601,-2.0493,-2.027,-2.0748,-2.1289,-2.1661,-2.2168,-2.2732,-2.3106,-2.3106,-2.2863,-2.2606,-2.2606,-2.2355,-2.2111,-2.2111,-2.2237,-2.2487,0.0,0.0,-2.2981,-2.2981,-2.2981,-2.2981,-2.2981,-2.2981,-2.2988,-2.3113,-2.2856,-2.2613,0.0,0.0,0.0,0.0,0.0,0.0,0.0,0.0,0.0,0.0,0.0,0.0,0.0,0.0,0.0,0.0,0.0,0.0,0.0,0.0,0.0,0.0,-1.5679,-1.5374,-1.5409,-1.6396,-1.6782,-1.65,-1.6966,-1.7107,-1.6978,-1.7332,-1.7314,-1.7079,-1.7646,-1.7972,-1.81,-1.8832,-1.8833,-1.8318,-1.9844,0.0,0.0,0.0,0.0,0.0,0.0,0.0,0.0,-2.2138,-2.2148,-2.1606,-2.2599,0.0,0.0,0.0,0.0,0.0,-2.1684,-2.0987,-2.0688,-1.9583,-1.9279,-1.9279,0.0,0.0,0.0,0.0,0.0,0.0,0.0,0.0,0.0,0.0,0.0,0.0,0.0,0.0,0.0,0.0,0.0,0.0,-2.0385,-2.0385,-2.0392,-2.0385,-2.0385,-2.0385,-2.027,-2.0435,-2.0833,-2.1654,-2.1838,-2.2262,-2.3106,-2.2856,-2.2606,-2.2606,-2.2362,-2.2111,-2.2111,-2.2111,-2.2111,-2.223,0.0,-2.248,-2.2237,-2.2613,-2.2487,-2.2237,-2.2606,-2.2738,-2.2738,-2.2981,-2.2856,-2.2606,0.0,0.0,0.0,0.0,0.0,0.0,0.0,0.0,0.0,0.0,0.0,0.0,0.0,0.0,0.0,0.0,0.0,0.0,0.0,0.0,0.0,-1.5937,-1.5716,-1.5517,-1.5244,-1.6214,-1.6587,-1.6313,-1.7072,-1.7254,-1.6908,-1.7323,-1.7245,-1.6742,-1.7817,-1.8276,-1.8193,-1.8704,-1.9135,-1.9441,0.0,0.0,0.0,0.0,0.0,0.0,0.0,0.0,0.0,0.0,-2.2775,-2.2501,-2.296,0.0,0.0,0.0,0.0,0.0,-2.1988,-2.1387,-2.0688,-1.9583,-1.9279,0.0,0.0,0.0,0.0,0.0,0.0,0.0,0.0,0.0,0.0,0.0,0.0,0.0,0.0,0.0,0.0,0.0,0.0,0.0,-2.004,-2.0155,-2.027,-2.004,-2.0046,-1.9931,-1.9822,-1.9931,-2.0323,-2.1173,-2.1314,-2.1847,-2.2606,-2.2237,-2.2111,-2.2362,-2.2111,-2.1859,-2.1607,-2.1607,-2.1607,-2.1859,0.0,-2.2111,-2.2111,-2.2237,-2.223,-2.2111,-2.2237,-2.2362,-2.2362,-2.2362,-2.2362,-2.2237,0.0,0.0,0.0,0.0,0.0,0.0,0.0,0.0,0.0,0.0,0.0,0.0,0.0,0.0,0.0,0.0,0.0,0.0,0.0,0.0,-1.6701,-1.579,-1.5734,-1.5523,-1.5098,-1.6133,-1.6577,-1.622,-1.7063,-1.7332,-1.6968,-1.7323,-1.7245,-1.6899,-1.8088,-1.8438,-1.8193,-1.8446,-1.9158,-1.9923,0.0,0.0,0.0,0.0,0.0,0.0,0.0,0.0,0.0,0.0,0.0,0.0,0.0,0.0,0.0,-2.4098,-2.3391,-2.2381,-2.2458,-2.1481,-2.0285,0.0,0.0,0.0,0.0,0.0,0.0,0.0,0.0,0.0,0.0,0.0,0.0,0.0,0.0,0.0,0.0,0.0,0.0,0.0,0.0,-2.0046,-1.97,-1.9931,-1.9931,-1.97,-1.9461,-1.9229,-1.9004,-1.9113,-1.9606,-2.0194,-2.0825,-2.1366,-2.2104,-2.1859,-2.1859,-2.1985,-2.1859,-2.1607,-2.1109,-2.1109,-2.1235,-2.1488,-2.1607,-2.1734,-2.1859,-2.1985,-2.1727,-2.1468,-2.1853,-2.1853,-2.1594,-2.1215,-2.1215,-2.1468,0.0,0.0,0.0,0.0,0.0,0.0,0.0,0.0,0.0,0.0,0.0,0.0,0.0,0.0,0.0,0.0,0.0,0.0,0.0,0.0,-1.6421,-1.5992,-1.5475,-1.512,-1.498,-1.598,-1.6465,-1.6383,-1.7121,-1.7392,-1.7166,-1.7392,-1.752,-1.7657,-1.8298,-1.8356,-1.8017,-1.8437,-1.8449,-1.8238,-1.8975,0.0,0.0,0.0,0.0,0.0,0.0,0.0,0.0,0.0,0.0,0.0,0.0,0.0,-2.3816,-2.4297,-2.3198,-2.2055,-2.2389,-2.0979,-1.9376,-1.9272,0.0,0.0,0.0,0.0,0.0,0.0,0.0,0.0,0.0,0.0,0.0,0.0,0.0,0.0,0.0,0.0,0.0,0.0,0.0,-1.9482,-1.9482,-1.9482,-1.9482,-1.9482,-1.8286,-1.7689,-1.7689,-1.7689,-1.8046,-1.8947,-2.0086,-2.1121,-2.2104,-2.2111,-2.1859,-2.1607,-2.1362,-2.1109,-2.1109,-2.1109,-2.1109,-2.1109,-2.1481,-2.1488,-2.1235,-2.1488,-2.0709,-1.9419,-2.0963,-2.1082,-2.0163,-1.9789,-1.9668,-1.9668,0.0,0.0,0.0,0.0,0.0,0.0,0.0,0.0,0.0,0.0,0.0,0.0,0.0,0.0,0.0,0.0,0.0,0.0,0.0,0.0,-1.6261,-1.5845,-1.5376,-1.5152,-1.5186,-1.5917,-1.6453,-1.685,-1.7167,-1.7245,-1.7166,-1.7392,-1.7598,-1.7735,-1.865,-1.8976,-1.8803,-1.8942,-1.9233,-1.952,-1.8807,-1.8816,0.0,0.0,0.0,0.0,0.0,0.0,0.0,0.0,-2.3135,-2.3135,-2.3135,-2.3437,-2.3867,-2.4287,-2.318,-2.1923,-2.2189,-2.0688,-1.8966,0.0,0.0,0.0,0.0,0.0,0.0,0.0,0.0,0.0,0.0,0.0,0.0,0.0,0.0,0.0,0.0,0.0,0.0,0.0,-1.9482,-1.9366,-1.9366,-1.9366,-1.9127,-1.8292,-1.7812,-1.7103,-1.6397,-1.6279,-1.6976,-1.8459,-1.8972,-1.9996,-2.1481,-2.1488,-2.1355,-2.1229,-2.1355,-2.1362,-2.1109,-2.1109,-2.1109,-2.1109,-2.1235,-2.1235,-2.0982,-2.0329,-1.9553,-1.9036,-1.878,-1.8512,-1.8127,-1.7999,-1.8005,-1.7871,0.0,0.0,0.0,0.0,0.0,0.0,0.0,0.0,0.0,0.0,0.0,0.0,0.0,0.0,0.0,0.0,0.0,0.0,0.0,-1.634,-1.5936,-1.5642,-1.5182,-1.5099,-1.5545,-1.5996,-1.6529,-1.7091,-1.7243,-1.7245,-1.7166,-1.7392,-1.7527,-1.752,-1.8514,-1.8832,-1.8704,-1.8852,-1.9204,-1.9678,-1.8479,-1.8327,0.0,0.0,0.0,0.0,0.0,0.0,0.0,0.0,-2.2872,-2.2687,-2.3047,-2.335,-2.3602,-2.3871,-2.2804,-2.1573,-2.156,-2.0174,-1.8646,0.0,0.0,0.0,0.0,0.0,0.0,0.0,0.0,0.0,0.0,0.0,0.0,0.0,0.0,0.0,0.0,0.0,0.0,-1.9366,-1.9366,-1.9366,-1.9366,-1.9366,-1.8887,-1.7572,-1.7103,-1.6397,-1.5095,-1.5332,-1.6025,-1.6988,-1.8239,-1.9379,-2.0456,-2.0849,-2.1109,-2.1109,-2.1362,-2.1362,-2.1109,-2.1109,-2.1109,-2.1109,-2.1109,-2.0849,-2.0329,-1.9425,-1.878,-1.8262,-1.6845,-1.6333,-1.6333,-1.6333,-1.6333,-1.6333,0.0,0.0,0.0,0.0,0.0,0.0,0.0,0.0,0.0,0.0,0.0,0.0,0.0,0.0,0.0,0.0,0.0,0.0,0.0,-1.6048,-1.5632,-1.5411,-1.4837,-1.4952,-1.5955,-1.6147,-1.6539,-1.7091,-1.7398,-1.7392,-1.7166,-1.7392,-1.733,-1.7153,-1.7742,-1.7765,-1.7397,-1.7843,-1.7997,-1.7997,-1.7997,-1.7997,-1.8078,0.0,0.0,0.0,0.0,0.0,0.0,0.0,-2.2501,-2.1872,-2.2775,-2.3057,-2.3046,-2.2843,-2.1847,-2.0768,-2.0601,-1.945,0.0,0.0,0.0,0.0,0.0,0.0,0.0,0.0,0.0,0.0,0.0,0.0,0.0,0.0,0.0,0.0,0.0,0.0,-1.9366,-1.9366,-1.9366,-1.9366,-1.9366,-1.9366,-1.8887,-1.7572,-1.6279,-1.5095,-1.3784,-1.4857,-1.5188,-1.4399,-1.8129,-1.9756,-1.9024,-2.0329,-2.1109,-2.1109,-2.1109,-2.1109,-2.1109,-2.1109,-2.1109,-2.1109,-2.1109,-2.0329,-1.9036,-1.8908,-1.8133,-1.6845,-1.5424,-1.4912,-1.4912,-1.4912,-1.4912,-1.4912,0.0,0.0,0.0,0.0,0.0,0.0,0.0,0.0,0.0,0.0,0.0,0.0,0.0,0.0,0.0,0.0,0.0,0.0,0.0,-1.5983,-1.5578,-1.5173,-1.5053,-1.5166,-1.5753,-1.6656,-1.7225,-1.7417,-1.7472,-1.7392,-1.7166,-1.6811,-1.681,-1.7072,0.0,-1.7157,-1.7136,-1.7755,-1.7917,-1.7747,-1.7261,-1.7423,-1.8031,0.0,0.0,0.0,0.0,0.0,0.0,0.0,0.0,0.0,-2.1971,-2.1986,-2.1852,-2.1793,-2.0873,-1.9891,-2.013,-1.9131,0.0,0.0,0.0,0.0,0.0,0.0,0.0,0.0,0.0,0.0,0.0,0.0,0.0,0.0,0.0,0.0,0.0,-1.9366,-1.9366,-1.9366,-1.9366,-1.9366,-1.9366,-1.9366,-1.8532,-1.6279,-1.5806,-1.4624,-1.2487,-1.2728,-1.3318,-1.418,-1.5443,-1.6539,-1.7351,-1.7919,-1.8652,-1.968,-1.968,-2.0202,-2.1109,-2.1109,-2.1109,-2.0982,-2.0075,-1.9425,-1.8908,-1.6974,-1.5294,-1.4006,-1.3617,-1.3486,-1.3486,-1.3486,-1.3486,-1.3486,0.0,0.0,0.0,0.0,0.0,0.0,0.0,0.0,0.0,0.0,0.0,0.0,0.0,0.0,0.0,0.0,0.0,0.0,0.0,0.0,-1.5441,-1.4891,-1.501,-1.5422,-1.6048,-1.6985,-1.7461,-1.7392,-1.7461,-1.7254,-1.6751,-1.6545,-1.6462,-1.6402,0.0,-1.6596,-1.6869,-1.726,-1.735,-1.7261,-1.6854,-1.6868,-1.7193,0.0,0.0,0.0,0.0,0.0,0.0,0.0,0.0,0.0,-2.1882,-2.1798,-2.1357,-2.1069,-2.0165,-1.9216,-1.9243,0.0,0.0,0.0,0.0,0.0,0.0,0.0,0.0,0.0,0.0,0.0,0.0,0.0,0.0,0.0,0.0,0.0,0.0,-1.7941,-1.8058,-1.8648,-1.8648,-1.8887,-1.9366,-1.9366,-1.8298,-1.5806,-1.5575,-1.4505,-1.1897,-1.2251,-1.2807,-1.3237,-1.4547,-1.5383,-1.5849,-1.6594,-1.7367,-1.8267,-1.8267,-1.8908,-2.0329,-2.0849,-2.1109,-2.0982,-1.9036,-1.7876,-1.7232,-1.5038,-1.3617,-1.2836,-1.2836,-1.2836,-1.2836,-1.2836,-1.2836,-1.2836,0.0,0.0,0.0,0.0,0.0,0.0,0.0,0.0,0.0,0.0,0.0,0.0,0.0,0.0,0.0,0.0,0.0,0.0,0.0,0.0,-1.5349,-1.4598,-1.4921,-1.557,-1.6607,-1.7135,-1.7254,-1.7097,-1.7392,-1.6968,-1.5982,0.0,-1.6211,-1.5281,0.0,-1.5963,-1.6535,-1.6386,-1.6386,-1.6535,-1.6535,-1.6346,-1.6078,-1.6846,0.0,0.0,0.0,0.0,0.0,0.0,0.0,0.0,-2.1891,-2.1826,-2.0934,-2.032,-1.9514,-1.876,0.0,0.0,0.0,0.0,0.0,0.0,0.0,0.0,0.0,0.0,0.0,0.0,0.0,0.0,0.0,0.0,0.0,0.0,0.0,-1.5575,-1.6042,-1.722,-1.7337,-1.7812,-1.8894,-1.901,-1.8058,-1.5569,-1.5456,-1.4386,-1.1897,-1.296,-1.3036,-1.2,-1.4513,-1.5472,-1.443,-1.5797,-1.6695,-1.6845,-1.6845,-1.749,-1.8908,-2.0329,-2.0849,-2.0589,-1.8139,-1.6073,-1.4651,-1.3354,-1.2836,-1.2836,-1.2836,-1.2836,-1.2836,-1.2836,-1.2836,-1.2836,0.0,0.0,0.0,0.0,0.0,0.0,0.0,0.0,0.0,0.0,0.0,0.0,0.0,0.0,0.0,0.0,0.0,0.0,0.0,0.0,-1.5478,-1.4992,-1.5071,-1.573,-1.684,-1.6498,-1.6254,-1.6114,-1.7038,0.0,0.0,0.0,0.0,-1.5064,0.0,-1.4938,-1.5144,-1.5325,-1.5242,-1.5144,-1.5492,-1.6187,-1.6923,-1.6684,-1.712,0.0,0.0,0.0,0.0,0.0,0.0,0.0,-1.9803,-1.9593,-1.8769,-1.8262,-1.7985,-1.7914,0.0,0.0,0.0,0.0,0.0,0.0,0.0,0.0,0.0,0.0,0.0,0.0,0.0,0.0,0.0,0.0,0.0,0.0,0.0,-1.5575,-1.5693,-1.5924,-1.6042,-1.6161,-1.6402,-1.6402,-1.5806,-1.4262,-1.4143,-1.3435,-1.1893,-1.2014,-1.2151,-1.1829,-1.2602,-1.291,-1.286,-1.3298,-1.4105,-1.5298,-1.5298,-1.6073,-1.7496,-1.878,-1.8908,-1.7882,-1.7232,-1.5554,-1.3227,-1.2964,-1.2836,-1.2836,-1.2836,-1.2836,-1.2836,-1.2836,-1.2836,-1.2836,0.0,0.0,0.0,0.0,0.0,0.0,0.0,0.0,0.0,0.0,0.0,0.0,0.0,0.0,0.0,0.0,0.0,0.0,0.0,0.0,0.0,-1.4861,-1.5106,-1.5592,-1.6324,-1.6114,-1.5903,-1.5833,0.0,0.0,0.0,0.0,0.0,-1.4518,0.0,-1.4587,-1.4734,-1.4824,-1.4915,-1.4929,-1.5423,-1.6011,-1.6669,-1.6655,-1.707,-1.7659,-1.8003,0.0,0.0,0.0,0.0,0.0,0.0,0.0,-1.8192,-1.7896,-1.7735,-1.7582,0.0,0.0,0.0,0.0,0.0,0.0,0.0,0.0,0.0,0.0,0.0,0.0,0.0,0.0,0.0,0.0,0.0,0.0,-1.3913,-1.3799,-1.4033,-1.4619,-1.4738,-1.4976,-1.5575,-1.5575,-1.5095,-1.3784,-1.3665,-1.3195,-1.1897,-1.1776,-1.1776,-1.1776,-1.1943,-1.2077,-1.2174,-1.2434,-1.2992,-1.3864,-1.3827,-1.4651,-1.6073,-1.7361,-1.7232,-1.5944,-1.5944,-1.4777,-1.2836,-1.2836,-1.2836,-1.2836,-1.2836,-1.2836,-1.2836,-1.2836,-1.2836,-1.2836,0.0,0.0,0.0,0.0,0.0,0.0,0.0,0.0,0.0,0.0,0.0,0.0,0.0,0.0,0.0,0.0,0.0,0.0,0.0,0.0,0.0,0.0,-1.4959,-1.5307,-1.5754,-1.5754,-1.5683,0.0,0.0,0.0,0.0,0.0,0.0,-1.4049,0.0,-1.4482,-1.465,-1.465,-1.486,-1.519,-1.5633,-1.5959,-1.6142,-1.6574,-1.6878,-1.6979,-1.7153,-1.7239,-1.7419,-1.8064,0.0,0.0,0.0,0.0,-1.7903,-1.8059,-1.777,-1.7582,0.0,0.0,0.0,0.0,0.0,0.0,0.0,0.0,0.0,0.0,0.0,0.0,0.0,0.0,0.0,0.0,0.0,-1.296,-1.1893,-1.1776,-1.213,-1.3195,-1.331,-1.3789,-1.4862,-1.4981,-1.4505,-1.343,-1.331,-1.296,-1.1897,-1.1776,-1.1776,-1.1776,-1.1914,-1.2,-1.2028,-1.2324,-1.2503,-1.2564,-1.2747,-1.3354,-1.452,-1.5684,-1.5814,-1.4907,-1.4907,-1.4132,-1.2836,-1.2836,-1.2836,-1.2836,-1.2836,-1.2836,-1.2836,-1.2836,-1.2836,-1.2836,0.0,0.0,0.0,0.0,0.0,0.0,0.0,0.0,0.0,0.0,0.0,0.0,0.0,0.0,0.0,0.0,0.0,0.0,-1.523,0.0,0.0,-1.512,-1.4846,-1.5059,-1.5762,-1.5108,-1.4744,0.0,0.0,0.0,0.0,0.0,0.0,-1.4049,0.0,0.0,-1.4482,-1.465,-1.4895,-1.5233,-1.5447,-1.5913,-1.6442,-1.6288,-1.6508,0.0,0.0,0.0,-1.7426,-1.7986,-1.752,0.0,0.0,0.0,-1.6954,-1.7218,-1.7425,0.0,0.0,0.0,0.0,0.0,0.0,0.0,0.0,0.0,0.0,0.0,0.0,0.0,0.0,0.0,0.0,0.0,-1.3442,-1.2014,-1.1776,-1.1776,-1.1897,-1.2014,-1.2014,-1.2134,-1.2251,-1.2251,-1.2251,-1.2014,-1.2014,-1.2014,-1.1776,-1.1776,-1.1776,-1.1776,-1.1797,-1.1878,-1.2028,-1.2077,-1.2255,-1.2564,-1.2747,-1.2836,-1.3095,-1.3223,-1.3875,-1.4907,-1.4907,-1.4132,-1.2836,-1.2836,-1.2836,-1.2836,-1.2836,-1.2836,-1.2836,-1.2836,-1.2836,-1.2836,0.0,0.0,0.0,0.0,0.0,0.0,0.0,0.0,0.0,0.0,0.0,0.0,0.0,0.0,0.0,-1.6331,-1.6101,-1.5808,-1.545,-1.5147,-1.5035,-1.5206,-1.4779,-1.4752,-1.5108,-1.4744,-1.4386,0.0,0.0,0.0,0.0,-1.3839,-1.4082,0.0,0.0,0.0,0.0,0.0,0.0,-1.5057,-1.5486,-1.5824,0.0,0.0,0.0,0.0,0.0,0.0,0.0,0.0,-1.6784,-1.6455,-1.6856,0.0,0.0,0.0,0.0,0.0,0.0,0.0,0.0,0.0,0.0,0.0,0.0,0.0,0.0,0.0,0.0,0.0,0.0,0.0,0.0,0.0,-1.283,-1.1776,-1.1776,-1.1776,-1.1776,-1.1776,-1.1776,-1.1776,-1.1776,-1.1776,-1.1776,-1.1776,-1.1776,-1.1776,-1.1776,-1.1776,-1.1776,-1.1776,-1.1776,-1.1813,-1.1886,-1.1979,-1.2211,-1.2564,-1.2645,-1.2739,-1.2836,-1.2836,-1.3095,-1.3744,-1.3744,-1.3354,-1.2836,-1.2836,-1.2836,-1.2836,-1.2836,-1.2836,-1.2836,-1.2836,-1.2836,-1.2836,0.0,0.0,0.0,0.0,0.0,0.0,0.0,0.0,0.0,0.0,0.0,0.0,0.0,0.0,0.0,0.0,-1.5964,-1.578,-1.5584,-1.5119,-1.4975,-1.5068,-1.4757,-1.4601,-1.4601,-1.4601,0.0,0.0,0.0,0.0,-1.3327,-1.354,-1.3801,0.0,-1.4088,0.0,0.0,0.0,0.0,0.0,0.0,0.0,0.0,0.0,0.0,0.0,0.0,0.0,0.0,0.0,0.0,0.0,0.0,0.0,0.0,0.0,0.0,0.0,0.0,0.0,0.0,0.0,0.0,0.0,0.0,0.0,0.0,0.0,0.0,0.0,0.0,0.0,0.0,-1.3346,-1.2399,-1.1723,-1.1768,-1.1776,-1.1776,-1.1776,-1.1776,-1.1776,-1.1776,-1.1776,-1.1776,-1.1776,-1.1776,-1.1776,-1.1776,-1.1776,-1.1776,-1.1776,-1.1776,-1.1776,-1.1776,-1.1947,-1.2162,-1.243,-1.2519,-1.2633,-1.2771,-1.2816,-1.2836,-1.2836,-1.2836,-1.2836,-1.2836,-1.2836,-1.2836,-1.2836,-1.2836,-1.2836,-1.2836,-1.2836,-1.2836,-1.2836,0.0,0.0,0.0,0.0,0.0,0.0,0.0,0.0,0.0,0.0,0.0,0.0,0.0,-1.624,-1.656,-1.579,-1.6065,-1.5941,-1.5248,-1.4506,-1.4244,-1.4633,-1.4593,0.0,-1.4601,0.0,0.0,0.0,0.0,0.0,-1.3539,-1.3552,-1.3801,-1.4088,-1.4088,-1.4088,-1.4108,0.0,0.0,0.0,0.0,-1.5923,0.0,0.0,0.0,0.0,0.0,0.0,0.0,0.0,0.0,0.0,0.0,0.0,0.0,0.0,0.0,0.0,0.0,0.0,0.0,0.0,0.0,0.0,0.0,0.0,0.0,0.0,0.0,0.0,0.0,0.0,0.0,-1.3022,-1.2199,-1.1577,-1.1752,-1.1776,-1.1776,-1.1776,-1.1776,-1.1776,-1.1776,-1.1776,-1.1776,-1.1776,-1.1776,-1.1776,-1.1776,-1.1776,-1.1776,-1.1776,-1.1776,-1.1776,-1.1776,-1.1947,-1.2036,-1.206,-1.2402,-1.2568,-1.2584,-1.2755,-1.2836,-1.2836,-1.2836,-1.2836,-1.2836,-1.2836,-1.2836,-1.2836,-1.2836,-1.2836,-1.2836,-1.2836,-1.2836,-1.2836,0.0,0.0,0.0,0.0,0.0,0.0,0.0,0.0,0.0,0.0,0.0,0.0,0.0,-1.5394,-1.5505,-1.4672,-1.4713,-1.4819,-1.4833,-1.4568,-1.4474,-1.4601,-1.4601,-1.4386,-1.389,0.0,0.0,0.0,0.0,-1.3434,-1.3566,-1.3841,-1.3981,-1.4088,-1.4088,-1.4088,-1.4108,-1.4489,0.0,0.0,-1.5369,-1.5665,0.0,0.0,0.0,0.0,0.0,0.0,0.0,0.0,0.0,0.0,0.0,0.0,0.0,0.0,0.0,0.0,0.0,0.0,0.0,0.0,0.0,0.0,0.0,0.0,0.0,0.0,0.0,0.0,0.0,0.0,-1.2427,-1.1833,-1.1434,-1.1386,-1.1573,-1.1602,-1.1642,-1.176,-1.1776,-1.1776,-1.1776,-1.1776,-1.1776,-1.1776,-1.1776,-1.1776,-1.1776,-1.1776,-1.1776,-1.1776,-1.1776,-1.1776,-1.1776,-1.1837,-1.1922,-1.2032,-1.2158,-1.2341,-1.2564,-1.2629,-1.2726,-1.2836,-1.2836,-1.2836,-1.2836,-1.2836,-1.2836,-1.2836,-1.2836,-1.2836,-1.2836,-1.2836,-1.2836,-1.2836,0.0,0.0,0.0,0.0,0.0,0.0,0.0,0.0,0.0,0.0,0.0,0.0,0.0,0.0,-1.4763,-1.4268,-1.4198,-1.4222,-1.4235,-1.425,-1.425,-1.425,-1.425,-1.4015,-1.3616,0.0,0.0,0.0,0.0,0.0,0.0,0.0,-1.4088,-1.4088,-1.4188,0.0,0.0,0.0,0.0,-1.5137,0.0,-1.5658,-1.5832,0.0,0.0,0.0,0.0,0.0,0.0,0.0,0.0,0.0,0.0,0.0,0.0,0.0,0.0,0.0,0.0,0.0,0.0,0.0,0.0,0.0,0.0,0.0,0.0,0.0,0.0,0.0,0.0,0.0,-1.1775,-1.1068,-1.1066,-1.12,-1.1378,-1.1459,-1.1545,-1.1667,-1.174,-1.1776,-1.1776,-1.1776,-1.1776,-1.1776,-1.1776,0.0,-1.1776,-1.1776,-1.1776,-1.1776,-1.1776,-1.1776,-1.1776,-1.1776,-1.1833,-1.1947,-1.2004,-1.2154,-1.2389,-1.2507,-1.2629,-1.2747,-1.2808,-1.2836,-1.2836,-1.2836,-1.2836,-1.2836,-1.2836,-1.2836,-1.2836,-1.2836,-1.2836,-1.2836,0.0,0.0,0.0,0.0,0.0,0.0,0.0,0.0,0.0,0.0,0.0,0.0,0.0,0.0,0.0,-1.453,-1.453,-1.425,-1.3528,-1.347,-1.3477,-1.3477,-1.3484,-1.3631,-1.387,0.0,0.0,0.0,0.0,0.0,0.0,0.0,-1.4088,0.0,-1.4396,-1.4529,-1.4563,0.0,-1.5137,-1.5424,0.0,-1.5737,-1.573,0.0,0.0,0.0,-1.573,-1.573,0.0,0.0,0.0,0.0,0.0,0.0,0.0,0.0,0.0,0.0,0.0,0.0,0.0,0.0,0.0,0.0,0.0,0.0,0.0,0.0,0.0,0.0,0.0,-1.0692,-1.0753,-1.0932,-1.096,-1.1021,-1.1191,-1.137,-1.1488,-1.1492,-1.165,-1.176,-1.1768,-1.1768,-1.1768,-1.1776,-1.1776,-1.1776,-1.1776,-1.1776,-1.1776,-1.1776,-1.1776,-1.1776,-1.1776,-1.1776,-1.1776,-1.178,-1.1943,-1.2024,-1.204,-1.2389,-1.2552,-1.2576,-1.2751,-1.2832,-1.2836,-1.2836,-1.2836,-1.2836,-1.2836,-1.2836,-1.2836,-1.2836,-1.2836,-1.2836,0.0,0.0,0.0,0.0,0.0,0.0,0.0,0.0,0.0,0.0,0.0,0.0,0.0,0.0,-1.2952,-1.2952,-1.2952,-1.2879,-1.2666,-1.3379,-1.3582,-1.2996,-1.3722,-1.3894,-1.3386,0.0,0.0,0.0,0.0,0.0,0.0,0.0,0.0,0.0,-1.4482,-1.4756,-1.5157,-1.5244,0.0,0.0,-1.5712,-1.535,0.0,0.0,0.0,0.0,0.0,-1.4682,-1.4898,0.0,-1.6206,-1.6359,0.0,0.0,0.0,0.0,0.0,0.0,-1.7582,0.0,0.0,0.0,0.0,0.0,0.0,0.0,0.0,0.0,0.0,0.0,-1.0907,-1.0692,-1.0708,-1.0761,-1.0769,-1.0834,-1.1013,-1.1082,-1.1163,-1.1285,-1.1342,-1.1427,-1.1565,-1.1577,-1.163,0.0,-1.1776,-1.1776,-1.1776,-1.1776,-1.1776,-1.1776,-1.1776,-1.1776,-1.1776,-1.1776,-1.1776,-1.1776,-1.1825,-1.191,-1.2032,-1.2134,-1.2316,-1.2564,-1.2617,-1.2714,-1.2836,-1.2836,-1.2836,-1.2836,-1.2836,-1.2836,-1.2836,-1.2836,-1.2836,-1.2836,0.0,0.0,0.0,0.0,0.0,0.0,0.0,0.0,0.0,0.0,0.0,0.0,0.0,0.0,0.0,-1.2478,-1.2485,-1.2538,-1.2672,-1.3293,-1.339,-1.3017,-1.3556,-1.3722,-1.3387,0.0,0.0,0.0,0.0,0.0,0.0,0.0,0.0,0.0,0.0,0.0,0.0,0.0,0.0,0.0,-1.5285,0.0,0.0,-1.3806,-1.3216,0.0,0.0,0.0,-1.443,-1.5284,-1.6137,0.0,-1.7181,0.0,0.0,0.0,0.0,0.0,0.0,0.0,0.0,0.0,0.0,0.0,-1.5535,-1.5102,0.0,0.0,0.0,-1.1446,-1.0798,-1.0692,-1.0692,-1.0692,-1.0692,-1.0729,-1.0838,-1.0919,-1.1005,-1.1106,-1.1179,-1.1265,-1.1374,-1.1382,-1.1459,-1.1646,-1.1663,-1.1695,-1.1772,-1.1776,-1.1776,-1.1776,-1.1776,-1.1776,-1.1776,-1.1776,-1.1776,-1.1776,-1.1776,-1.1829,-1.1926,-1.2,-1.2186,-1.2462,-1.2532,-1.2666,-1.2836,-1.2836,-1.2836,-1.2836,-1.2836,-1.2836,-1.2836,-1.2836,-1.2836,-1.2836,0.0,0.0,0.0,-1.2305,-1.2305,-1.2305,0.0,0.0,0.0,0.0,0.0,0.0,0.0,0.0,0.0,0.0,-1.2876,-1.2913,-1.3193,-1.324,-1.326,-1.326,-1.3293,-1.3427,-1.3687,-1.3948,0.0,0.0,0.0,0.0,0.0,0.0,0.0,0.0,0.0,0.0,0.0,0.0,0.0,-1.554,-1.4682,-1.4202,0.0,0.0,-1.2441,0.0,-1.2533,-1.3238,-1.4286,-1.4678,-1.5714,-1.6924,-1.7285,-1.7371,0.0,0.0,-1.7582,0.0,0.0,0.0,0.0,0.0,0.0,0.0,-1.4995,-1.446,-1.3922,0.0,0.0,-1.1232,-1.1122,-1.1126,-1.1017,-1.0907,-1.0907,-1.0798,-1.0692,-1.0834,-1.094,-1.094,-1.1074,-1.1171,-1.1191,-1.1196,-1.1273,-1.1455,-1.1488,-1.1581,-1.1764,-1.1776,-1.1776,-1.1776,-1.1776,-1.1776,-1.1776,-1.1776,-1.1776,-1.1776,-1.1776,-1.1776,-1.178,-1.1931,-1.2113,-1.2316,-1.2471,-1.2649,-1.2836,-1.2836,-1.2836,-1.2836,-1.2836,-1.2836,-1.2836,-1.2836,-1.2836,-1.2836,0.0,0.0,0.0,-1.2298,-1.2305,-1.2305,0.0,0.0,0.0,0.0,0.0,0.0,0.0,0.0,0.0,0.0,-1.312,-1.3146,-1.3206,-1.3427,-1.3561,-1.3561,-1.3788,-1.3941,-1.4001,-1.4055,-1.4088,0.0,0.0,0.0,0.0,0.0,0.0,0.0,0.0,0.0,0.0,0.0,0.0,-1.4586,-1.4394,0.0,-1.1755,-1.156,-1.0984,-1.0306,-1.1175,-1.2361,-1.3579,0.0,-1.4995,-1.4933,0.0,0.0,0.0,0.0,0.0,0.0,0.0,0.0,0.0,0.0,0.0,0.0,-1.7041,-1.6935,-1.6505,0.0,-1.4888,-1.4567,-1.3599,-1.3491,-1.3166,-1.22,-1.2096,-1.1769,-1.0798,-1.0724,-1.0745,-1.0745,-1.0773,-1.0854,-1.1005,-1.1017,-1.109,-1.1265,-1.1415,-1.1581,-1.1764,-1.1776,-1.1776,-1.1776,-1.1776,-1.1776,-1.1776,-1.1776,-1.1776,-1.1776,-1.1776,-1.1776,-1.178,-1.1809,-1.2,-1.2308,-1.2345,-1.254,-1.2836,-1.2836,-1.2836,-1.2836,-1.2836,-1.2836,-1.2836,-1.2836,-1.2836,-1.2836,-1.1781,0.0,0.0,-1.2305,-1.2305,-1.2305,-1.215,0.0,0.0,0.0,0.0,0.0,0.0,0.0,0.0,0.0,0.0,0.0,0.0,-1.3781,-1.3868,-1.3868,-1.4008,-1.4088,-1.4088,-1.4088,-1.4088,0.0,0.0,0.0,0.0,0.0,0.0,0.0,0.0,0.0,0.0,0.0,-1.3221,-1.2732,-1.2732,0.0,-1.1175,-1.0596,-1.0109,-0.9636,-1.0311,-1.1433,-1.2864,-1.4123,-1.479,0.0,0.0,-1.6293,-1.6829,0.0,-1.7582,-1.7582,0.0,0.0,0.0,-1.7582,0.0,0.0,0.0,-1.6723,-1.6393,-1.5209,-1.4995,-1.4781,-1.4239,0.0,-1.3922,-1.3383,-1.2738,-1.22,-1.1664,-1.1013,-1.0692,-1.0692,-1.0692,-1.0729,-1.0822,-1.083,-1.0903,-1.1082,-1.1346,-1.1541,-1.1634,-1.1727,-1.1776,-1.1776,-1.1776,-1.1776,-1.1776,-1.1776,-1.1776,-1.1776,-1.1776,-1.1776,-1.1776,-1.1776,-1.1971,-1.2308,-1.2308,-1.2507,-1.2836,-1.2836,-1.2836,-1.2836,-1.2836,-1.2836,-1.2836,-1.2836,-1.2836,-1.2836,0.0,0.0,0.0,0.0,-1.215,-1.2157,-1.2003,0.0,0.0,0.0,0.0,0.0,0.0,0.0,0.0,0.0,0.0,0.0,0.0,0.0,-1.3822,-1.4088,-1.4088,-1.4088,-1.4088,-1.4142,-1.4168,-1.4168,0.0,0.0,0.0,0.0,0.0,0.0,0.0,0.0,0.0,0.0,0.0,-1.1072,0.0,-1.0886,-1.0788,-0.9916,-0.9648,-0.9705,-1.0217,-1.1006,-1.2023,-1.3107,0.0,-1.5215,-1.5429,-1.618,0.0,0.0,0.0,0.0,0.0,0.0,0.0,0.0,0.0,-1.7364,0.0,0.0,0.0,-1.4995,-1.4781,0.0,0.0,0.0,0.0,0.0,0.0,0.0,0.0,-1.201,0.0,-1.0802,-1.0692,-1.0692,-1.0692,-1.0692,-1.0769,-1.0956,-1.1236,-1.1427,-1.1496,-1.1642,-1.174,-1.1776,-1.1776,-1.1776,-1.1776,-1.1772,-1.1651,-1.1651,-1.1651,-1.1651,-1.1651,-1.1776,-1.1951,-1.2255,-1.2292,-1.2491,-1.2787,-1.2824,-1.2836,-1.2836,-1.2836,-1.2836,-1.2836,-1.2836,-1.2836,-1.2836,-1.1632,-1.1706,0.0,0.0,-1.1781,-1.1781,-1.1706,0.0,0.0,0.0,0.0,0.0,0.0,0.0,0.0,0.0,0.0,0.0,-1.2498,0.0,0.0,-1.4082,-1.4088,-1.4088,-1.4088,-1.4342,-1.4469,-1.4469,0.0,0.0,0.0,0.0,0.0,0.0,-1.4447,0.0,0.0,0.0,-1.0974,0.0,-0.9817,-0.9529,0.0,-0.9628,-0.9721,-1.0002,-1.149,-1.1345,-1.0774,0.0,-1.2611,-1.295,0.0,-1.4352,-1.4888,0.0,0.0,0.0,0.0,0.0,0.0,0.0,-1.7582,0.0,0.0,0.0,-1.7364,-1.7259,0.0,0.0,0.0,0.0,0.0,0.0,0.0,0.0,-1.4422,-1.394,-1.295,-1.0907,-1.0692,-1.0692,-1.0692,-1.0692,-1.0769,-1.0956,-1.1009,-1.1167,-1.1484,-1.152,-1.1606,-1.1772,-1.1776,-1.1776,-1.1776,-1.1522,-1.1394,-1.1394,-1.1394,-1.1394,-1.1398,-1.1651,-1.1882,-1.2069,-1.2235,-1.2414,-1.2609,-1.2771,-1.2836,-1.2836,-1.2836,-1.2836,-1.2836,-1.2836,-1.2836,-1.2836,-1.1484,0.0,0.0,0.0,-1.1706,-1.1632,-1.1558,0.0,0.0,0.0,0.0,0.0,0.0,0.0,0.0,0.0,0.0,-1.2328,0.0,0.0,0.0,0.0,-1.4342,-1.4416,-1.4589,-1.4716,-1.4776,-1.4776,-1.507,0.0,0.0,0.0,0.0,0.0,-1.3301,0.0,-1.1282,0.0,0.0,0.0,0.0,0.0,0.0,-0.9516,-0.9855,-1.0225,-1.0788,-1.0812,-1.0703,0.0,-1.1878,0.0,0.0,0.0,0.0,0.0,0.0,0.0,0.0,0.0,0.0,0.0,0.0,0.0,-1.747,0.0,-1.7582,0.0,0.0,0.0,0.0,0.0,0.0,0.0,-1.6361,0.0,0.0,0.0,-1.3701,0.0,0.0,0.0,-1.0802,-1.1341,-1.1481,-1.0912,-1.1569,-1.1746,-1.1325,-1.1443,-1.1585,-1.1768,-1.1776,-1.1651,-1.1522,-1.1398,-1.1152,-1.1031,-1.1031,-1.1031,-1.1031,-1.1402,-1.1618,-1.1669,-1.1976,-1.2274,-1.2576,-1.2497,-1.2572,-1.2836,-1.2572,-1.2572,-1.2836,-1.2572,-1.2572,-1.2836,0.0,0.0,0.0,0.0,0.0,0.0,0.0,0.0,0.0,0.0,0.0,0.0,-1.3626,-1.3392,0.0,0.0,0.0,-1.1381,0.0,0.0,-1.2082,0.0,0.0,0.0,0.0,-1.4856,-1.5084,-1.5084,-1.5371,0.0,0.0,0.0,0.0,0.0,0.0,-1.1272,-0.962,0.0,0.0,-0.8976,-0.8976,-0.9102,-0.9275,-0.9465,-0.9781,-1.0222,-1.0046,-1.0252,-1.0582,-1.0582,-1.1446,0.0,-1.2417,0.0,0.0,0.0,0.0,0.0,-1.6287,0.0,0.0,0.0,0.0,0.0,0.0,0.0,0.0,0.0,0.0,0.0,0.0,0.0,0.0,0.0,0.0,-1.6424,0.0,0.0,0.0,0.0,0.0,0.0,0.0,-1.2309,-1.2313,-1.1122,-1.1912,-1.1966,-1.091,-1.1089,-1.1272,-1.1575,-1.1627,-1.1522,-1.1273,-1.1152,-1.1031,-1.0668,-1.0668,-1.0668,-1.0668,-1.1031,-1.1221,-1.1352,-1.1576,-1.1869,-1.2254,-1.2219,-1.2309,-1.2441,-1.2177,-1.2177,-1.2441,-1.2309,-1.2309,-1.2572,-1.1111,-1.1111,0.0,0.0,0.0,0.0,0.0,0.0,0.0,0.0,0.0,0.0,0.0,0.0,0.0,0.0,0.0,-0.8978,-0.8978,0.0,-0.9683,0.0,0.0,-1.3006,0.0,0.0,-1.5384,-1.5384,-1.5671,0.0,0.0,0.0,0.0,0.0,0.0,-1.1755,-1.0685,-0.9312,-0.8725,-0.8674,-0.8674,-0.8859,-0.9237,0.0,-0.9766,-1.0011,-0.9859,0.0,0.0,-1.0257,-1.1227,0.0,0.0,0.0,0.0,0.0,0.0,0.0,0.0,0.0,0.0,-1.5968,0.0,0.0,0.0,0.0,-1.7582,0.0,0.0,0.0,0.0,0.0,0.0,-1.7983,0.0,0.0,0.0,0.0,0.0,0.0,0.0,0.0,0.0,-1.3825,-1.3181,-1.2091,-1.1782,-1.1215,-1.0164,-1.0219,-1.0619,-1.115,-1.1191,-1.1273,-1.1273,-1.1031,-1.0668,-1.0304,-1.0304,-1.0304,-1.0304,-1.0668,-1.0793,-1.0815,-1.1147,-1.1296,-1.1326,-1.165,-1.178,-1.178,-1.1383,-1.1512,-1.178,-1.178,-1.178,-1.178,0.0,0.0,0.0,0.0,0.0,0.0,0.0,-1.1344,0.0,0.0,0.0,0.0,0.0,0.0,-1.0534,0.0,0.0,-0.9063,-0.9063,-0.9146,0.0,0.0,0.0,-1.2697,0.0,0.0,-1.5018,-1.5678,0.0,0.0,0.0,0.0,0.0,0.0,0.0,-1.0485,0.0,0.0,0.0,0.0,0.0,-0.8988,-0.9297,0.0,0.0,-0.9847,-0.9578,-0.9706,0.0,-1.0257,-1.0582,-1.1013,-1.1232,-1.1232,-1.1446,-1.263,-1.263,0.0,0.0,0.0,-1.327,-1.4239,0.0,0.0,0.0,0.0,0.0,0.0,0.0,0.0,0.0,0.0,-1.7397,-1.6744,-1.7218,0.0,0.0,0.0,0.0,0.0,0.0,0.0,0.0,0.0,-1.3171,-1.1778,-1.1664,-1.1084,-1.0156,-1.0211,-1.0495,-1.0787,-1.0947,-1.091,-1.0668,-1.0547,-1.0304,-0.9943,-0.9943,-0.9943,-0.994,-1.0304,-1.0425,-1.0443,-1.0771,-1.1038,-1.1318,-1.1384,-1.1516,-1.178,-1.138,-1.1251,-1.1383,-1.1383,-1.1516,-1.178,-1.0858,0.0,0.0,0.0,0.0,0.0,0.0,0.0,0.0,0.0,-1.0448,0.0,-1.0377,0.0,-0.9535,0.0,-0.8741,-0.8535,-0.8535,-0.8695,0.0,-1.0174,-1.0829,0.0,0.0,-1.3505,-1.419,0.0,0.0,-1.4765,0.0,0.0,0.0,0.0,0.0,0.0,-0.8725,0.0,-0.8536,0.0,0.0,-0.9047,0.0,0.0,-0.9379,-0.9596,0.0,-0.9379,-0.9706,-0.9926,-1.0036,-1.0147,-1.0363,-1.0472,-1.0688,-1.1446,-1.1551,-1.1551,-1.2304,-1.1978,0.0,-1.2729,-1.3264,0.0,-1.4888,0.0,0.0,0.0,0.0,0.0,0.0,0.0,0.0,-1.5968,-1.6505,-1.7153,0.0,-1.7582,0.0,0.0,0.0,0.0,0.0,0.0,-1.3275,-1.1555,-1.1328,-1.0724,-0.9738,-0.9784,-1.0062,-1.0343,-1.0506,-1.0492,-1.0304,-1.0304,-1.0183,-0.9822,-0.9822,-0.9822,-0.9822,-1.0065,-1.0065,-1.0079,-1.052,-1.0788,-1.0937,-1.0992,-1.1118,-1.1383,-1.1118,-1.0986,-1.0986,-1.0986,-1.1251,-1.1383,0.0,0.0,0.0,0.0,-0.9912,0.0,0.0,0.0,-0.9836,0.0,-0.9845,-1.0017,-1.0305,-0.9349,-0.8881,-0.9144,-0.825,0.0,-0.7611,-0.7743,0.0,0.0,-0.9127,-0.9899,-0.9998,-1.2242,0.0,0.0,0.0,0.0,0.0,0.0,0.0,0.0,-1.051,0.0,-0.8695,-0.8855,-0.88,-0.8733,-0.8879,-0.894,-0.894,-0.894,-0.9047,-0.9379,-0.9051,-0.9158,-0.9379,-0.9379,-0.9599,-0.9816,-0.9816,-1.0036,-1.0257,-1.0257,-1.0257,-1.0257,-1.0257,-1.0794,-1.1433,-1.1433,-1.2295,0.0,0.0,0.0,-1.3701,0.0,0.0,0.0,0.0,0.0,0.0,-1.5642,-1.5861,-1.6393,0.0,0.0,0.0,0.0,0.0,0.0,0.0,-1.4888,-1.3599,-1.1324,-1.0891,-1.0131,0.0,-0.9188,-0.945,-0.9838,-0.9998,-1.0155,-1.0304,-1.0304,-1.0065,-0.9822,-0.9822,-0.9822,-0.9822,-0.9822,-0.9822,-0.9839,-1.0148,-1.028,-1.0304,-1.0599,-1.0721,-1.0721,-1.0721,-1.0721,-1.0721,-1.0721,-1.0721,-1.0721,-0.9681,-0.9212,-0.8801,0.0,-0.8871,-0.8748,0.0,0.0,0.0,0.0,-0.8561,-0.8841,-0.8265,-0.8018,-0.7923,-0.8056,-0.7882,0.0,0.0,0.0,0.0,-0.798,-0.8506,-0.9217,-0.9998,-1.0779,0.0,-1.1945,0.0,0.0,-1.1663,0.0,0.0,0.0,0.0,0.0,-0.8863,-0.8807,-0.8743,-0.8882,-0.8923,-0.894,0.0,0.0,-0.8937,-0.9051,-0.8937,-0.894,-0.9051,-0.9268,-0.9489,-0.9489,-0.9706,-0.9816,-0.9926,-0.9926,-0.9816,-0.9599,-0.9599,-0.9592,-0.9592,-0.9923,-1.0785,-1.1755,0.0,0.0,0.0,0.0,0.0,0.0,0.0,0.0,0.0,0.0,0.0,0.0,0.0,0.0,0.0,-1.7279,0.0,0.0,-1.6293,-1.4449,-1.294,-1.2087,-1.1219,-1.0131,-0.8937,0.0,-1.0126,-0.949,-0.9648,-0.9796,-0.994,-0.994,-0.994,-0.9822,-0.9822,-0.9822,-0.9822,-0.9822,-0.9822,-0.9839,-1.0148,-1.028,-1.0304,-1.0599,-1.0721,-1.0721,-1.0721,-1.0721,-1.0721,-1.0721,-1.0721,-1.0721,-0.8707,0.0,0.0,-0.7929,0.0,0.0,-0.794,0.0,0.0,-0.7331,-0.7822,0.0,-0.765,-0.7641,-0.7719,-0.7787,-0.7865,0.0,-0.7913,0.0,0.0,-0.8038,-0.8137,-0.8528,-0.9118,-0.9706,0.0,-1.019,0.0,0.0,-1.0124,0.0,0.0,0.0,0.0,-0.88,0.0,-0.8747,-0.8859,-0.894,-0.894,0.0,0.0,-0.894,-0.894,-0.894,-0.894,-0.894,-0.8937,-0.9158,-0.9158,-0.9158,-0.9379,-0.9489,-0.9596,-0.9596,-0.9489,-0.9379,-0.9379,-0.9158,-0.8937,-0.9158,-0.9702,-1.0241,-1.046,-1.1109,-1.1437,0.0,0.0,0.0,0.0,0.0,0.0,0.0,0.0,0.0,0.0,0.0,0.0,0.0,-1.5986,0.0,-1.6418,-1.3701,-1.2077,-1.2413,-1.1328,-1.0347,-0.9699,0.0,-1.0385,-0.9374,-0.9466,-0.9608,-0.9819,-0.9822,-0.9822,-0.9822,-0.9822,-0.9822,-0.9822,-0.9822,-0.9822,-0.9839,-1.0148,-1.028,-1.0304,-1.0599,-1.0721,-1.0721,-1.0721,-1.0721,-1.0721,-1.0721,-1.0721,-1.0721,0.0,0.0,0.0,0.0,0.0,0.0,0.0,-0.7312,0.0,-0.74,0.0,-0.7675,-0.7797,-0.7828,-0.7896,-0.8028,0.0,-0.8038,-0.8038,-0.8038,-0.8038,-0.8038,-0.8038,-0.8038,-0.8038,-0.892,0.0,0.0,0.0,0.0,0.0,0.0,0.0,0.0,0.0,0.0,0.0,-0.8882,-0.894,-0.894,-0.894,-0.894,-0.894,-0.894,-0.894,-0.894,-0.894,-0.894,-0.894,-0.894,-0.894,-0.894,-0.894,-0.9047,-0.9379,-0.9379,-0.9379,-0.9379,-0.9379,-0.9161,-0.894,-0.894,-0.894,-0.8937,-0.9268,-0.9379,-0.9379,-0.9706,-0.9706,-0.9706,0.0,0.0,0.0,0.0,0.0,0.0,0.0,0.0,0.0,0.0,0.0,0.0,-1.6217,-1.3171,-1.1546,-1.2526,-1.176,-1.1,-1.0672,0.0,-1.0397,-0.9487,-0.9381,-0.9523,-0.9819,-0.9822,-0.9822,-0.9822,-0.9822,-0.9822,-0.9822,-0.9822,-0.9822,-0.9839,-1.0148,-1.028,-1.0304,-1.0599,-1.0721,-1.0721,-1.0721,-1.0721,-1.0721,-1.0721,-1.0721,-1.0721,0.0,0.0,0.0,0.0,0.0,-0.7259,-0.714,-0.7443,-0.756,-0.756,-0.7685,-0.7784,-0.7807,-0.7923,-0.8011,-0.8038,-0.8038,0.0,0.0,0.0,0.0,-0.8038,-0.8038,-0.8038,-0.8038,-0.8137,-0.8299,0.0,0.0,0.0,0.0,0.0,0.0,0.0,0.0,0.0,-0.8899,-0.8927,0.0,-0.894,-0.894,-0.894,-0.894,-0.894,-0.894,-0.894,-0.894,-0.894,-0.894,-0.894,-0.894,-0.894,-0.894,-0.8937,-0.8937,-0.8937,-0.8937,-0.8937,-0.8937,-0.8937,-0.894,-0.894,-0.894,-0.894,-0.894,-0.8937,-0.9047,-0.9379,-0.9489,-0.9489,-0.9706,0.0,0.0,0.0,0.0,0.0,0.0,0.0,0.0,0.0,0.0,-1.3825,0.0,-1.4482,-1.3619,-1.384,-1.3727,-1.2743,0.0,0.0,-1.1283,0.0,-0.9381,0.0,0.0,0.0,-0.9822,-0.9822,-0.9822,-0.9822,-0.9822,-0.9822,-0.9822,-0.9839,-1.0148,-1.028,-1.0304,-1.0599,-1.0721,-1.0721,-1.0721,-1.0721,-1.0721,-1.0721,-1.0721,-1.0721,0.0,0.0,0.0,0.0,0.0,0.0,0.0,-0.7292,0.0,-0.7531,-0.7741,-0.796,-0.8041,-0.8116,-0.8187,-0.8262,-0.8269,-0.8269,-0.8269,-0.8269,-0.8235,-0.8163,-0.816,0.0,-0.8041,-0.8116,-0.8197,-0.8272,0.0,0.0,0.0,0.0,0.0,0.0,0.0,-0.894,0.0,0.0,0.0,-0.894,-0.894,-0.894,-0.894,-0.894,-0.894,-0.894,-0.894,-0.894,-0.894,-0.894,-0.894,-0.894,-0.894,-0.894,-0.894,-0.894,-0.894,-0.894,-0.894,-0.894,-0.894,-0.894,-0.894,-0.894,-0.894,-0.894,-0.8937,-0.9158,-0.9158,-0.9268,-0.9485,-1.0029,0.0,0.0,0.0,0.0,0.0,0.0,0.0,0.0,0.0,0.0,0.0,0.0,0.0,0.0,0.0,0.0,0.0,0.0,-1.1505,0.0,0.0,0.0,-0.9819,0.0,-0.9822,-0.9822,-0.9822,-0.9822,-0.9822,-0.9822,-0.9822,-0.9839,-1.0148,-1.028,-1.0304,-1.0599,-1.0721,-1.0721,-1.0721,-1.0721,-1.0721,-1.0721,-1.0721,-1.0721,0.0,-0.6868,0.0,0.0,-0.7006,0.0,-0.7,-0.7006,-0.7135,-0.7296,-0.7697,-0.8032,-0.8153,-0.8296,-0.836,-0.8472,-0.8482,-0.8482,-0.8482,-0.8482,-0.8431,-0.8319,-0.8316,-0.8258,-0.8136,-0.8252,-0.8333,0.0,0.0,0.0,0.0,0.0,0.0,0.0,0.0,0.0,0.0,0.0,-0.894,-0.894,-0.894,-0.894,-0.894,-0.894,-0.894,-0.894,-0.894,-0.894,-0.894,-0.894,-0.894,-0.894,-0.894,-0.894,-0.894,-0.894,-0.894,-0.894,-0.894,-0.894,-0.894,-0.894,-0.894,-0.894,-0.894,-0.894,-0.894,-0.894,-0.894,-0.9047,-0.9379,-0.9382,0.0,0.0,0.0,0.0,0.0,0.0,0.0,0.0,0.0,0.0,-1.3727,0.0,0.0,0.0,0.0,0.0,-1.1219,0.0,0.0,0.0,0.0,-0.9641,-1.0179,0.0,-0.9822,-0.9822,-0.9822,-0.9822,-0.9822,-0.9822,-0.9822,-0.9839,-1.0148,-1.0317,-1.0392,-1.0626,-1.0721,-1.0721,-1.0721,-1.0721,-1.0721,-1.0721,-1.0721,-1.0721,0.0,0.0,0.0,0.0,0.0,0.0,-0.7163,-0.6757,-0.6677,-0.7138,-0.7639,-0.7939,-0.7952,-0.8277,-0.8469,-0.8479,-0.8482,-0.8482,-0.8482,-0.8482,-0.8476,-0.8462,-0.8462,-0.8455,-0.8442,-0.8455,-0.853,0.0,0.0,-0.8767,0.0,0.0,0.0,0.0,0.0,0.0,0.0,-0.894,-0.894,-0.894,-0.894,-0.894,-0.894,-0.894,-0.894,-0.894,-0.894,-0.894,-0.894,-0.894,-0.894,-0.894,-0.894,-0.894,-0.894,-0.894,-0.894,-0.894,-0.894,-0.894,-0.894,-0.894,-0.894,-0.894,-0.894,-0.894,-0.894,-0.894,-0.894,-0.9051,-0.9382,-0.9161,-0.9161,0.0,0.0,0.0,0.0,0.0,0.0,0.0,0.0,0.0,0.0,-1.3511,0.0,0.0,-1.3619,0.0,0.0,0.0,0.0,-1.1081,-0.995,-1.0108,-1.1507,-1.0425,-0.9822,-0.9822,-0.9822,-0.9822,-0.9822,-0.9822,-0.9822,-0.9839,-1.0148,-1.0432,-1.068,-1.0711,-1.0721,-1.0721,-1.0721,-1.0721,-1.0721,-1.0721,-1.0721,-1.0721,0.0,0.0,0.0,0.0,0.0,0.0,0.0,-0.4642,-0.4562,-0.4777,-0.6378,-0.7599,-0.8101,-0.8268,-0.8444,-0.8747,-0.8757,-0.8757,-0.8757,-0.8757,-0.8716,-0.8621,-0.8618,-0.8577,-0.8482,-0.857,-0.8648,0.0,0.0,0.0,0.0,0.0,0.0,0.0,0.0,-0.894,-0.894,-0.894,-0.894,-0.894,-0.894,-0.894,-0.894,-0.894,-0.894,-0.894,-0.894,-0.894,-0.894,-0.894,-0.894,-0.894,-0.894,-0.894,-0.894,-0.894,-0.894,-0.894,-0.894,-0.894,-0.894,-0.894,-0.894,-0.894,-0.894,-0.894,-0.894,-0.894,-0.894,-0.8937,-0.9158,-0.9047,-0.894,-0.9272,0.0,0.0,0.0,0.0,0.0,0.0,0.0,0.0,0.0,0.0,0.0,0.0,0.0,0.0,0.0,0.0,0.0,-1.017,0.0,-0.9756,-1.0539,-1.0061,-0.9822,-0.9822,-0.9822,-0.9822,-0.9822,-0.9822,-0.992,-1.0103,-1.0229,-1.0446,-1.0721,-1.0721,-1.0721,-1.0721,-1.0721,-1.0721,-1.0721,-1.0721,-1.0721,-1.0721,-0.5443,0.0,-0.5969,0.0,-0.314,-0.245,-0.3104,-0.3243,-0.3173,-0.3208,-0.5491,-0.7265,-0.7852,-0.8109,-0.85,-0.883,-0.883,-0.8826,-0.8937,-0.894,-0.8893,-0.8781,-0.8777,0.0,-0.8618,-0.8723,-0.8777,-0.8777,-0.8886,0.0,0.0,0.0,0.0,0.0,-0.894,-0.894,-0.894,-0.894,-0.894,-0.894,-0.894,-0.894,-0.894,-0.894,-0.894,-0.894,-0.894,-0.894,-0.894,-0.894,-0.894,-0.894,-0.894,-0.894,-0.894,-0.894,-0.894,-0.894,-0.894,-0.894,-0.894,-0.894,-0.894,-0.894,-0.894,-0.894,-0.894,-0.894,-0.894,-0.894,-0.894,-0.894,-0.894,-0.894,0.0,0.0,0.0,0.0,0.0,0.0,-0.894,-0.9265,-1.0131,-1.1219,0.0,0.0,0.0,0.0,0.0,0.0,0.0,0.0,0.0,0.0,-1.0301,-0.994,-0.9822,-0.9822,-0.9822,-0.9822,-0.9822,-0.9869,-1.0032,-1.0283,-1.0324,-1.0487,-1.0721,-1.0721,-1.0721,-1.0721,-1.0721,-1.0721,-1.0721,-1.0721,-1.0721,-1.0721,-0.3224,-0.4951,-0.639,-0.639,-0.2872,-0.0727,-0.2912,-0.3215,-0.3175,-0.3167,-0.5333,-0.6816,-0.6806,-0.7659,-0.8513,-0.886,-0.8611,-0.8598,-0.8937,-0.894,-0.894,0.0,0.0,-0.8933,-0.8933,-0.8933,-0.8937,-0.8937,0.0,0.0,-0.894,0.0,-0.894,-0.894,-0.894,-0.894,-0.894,-0.894,-0.894,-0.894,-0.894,-0.894,-0.894,-0.894,-0.894,-0.894,-0.894,-0.894,-0.894,-0.894,-0.894,-0.894,-0.894,-0.894,-0.894,-0.894,-0.894,-0.894,-0.894,-0.894,-0.894,-0.894,-0.894,-0.894,-0.894,-0.894,-0.894,-0.894,-0.894,-0.894,-0.894,-0.894,-0.894,-0.894,0.0,0.0,0.0,0.0,0.0,0.0,-0.894,-0.894,-0.8937,-1.0021,0.0,0.0,0.0,0.0,0.0,0.0,0.0,-1.131,-1.0069,0.0,-1.1627,-1.0425,-0.9822,-0.9822,-0.9822,-0.9822,-0.9825,-0.9978,-1.0134,-1.0287,-1.0429,-1.0578,-1.0721,-1.0721,-1.0721,-1.0721,-1.0721,-1.0721,-1.0721,-1.0721,-1.0721,-1.0721,-0.1009,-0.1615,-0.2028,-0.2054,-0.0931,-0.0209,-0.0966,-0.0979,-0.0989,-0.0999,-0.1676,-0.2798,-0.4458,-0.491,-0.5929,0.0,-0.8536,-0.8412,0.0,-0.8285,-0.8507,-0.7712,-0.8491,-0.894,-0.894,-0.894,-0.894,-0.894,0.0,0.0,0.0,-0.894,-0.894,-0.894,-0.894,-0.894,-0.894,-0.894,-0.894,-0.894,-0.894,-0.894,-0.894,-0.894,-0.894,-0.894,-0.894,-0.894,-0.894,-0.894,-0.894,-0.894,-0.894,-0.894,-0.894,-0.894,-0.894,-0.894,-0.894,-0.894,-0.894,-0.894,-0.894,-0.894,-0.894,-0.894,-0.894,-0.894,-0.894,-0.894,-0.894,-0.894,-0.894,-0.894,-0.894,0.0,0.0,0.0,0.0,0.0,-0.894,-0.894,-0.894,-1.0025,0.0,0.0,0.0,0.0,0.0,0.0,0.0,0.0,-0.9714,0.0,-1.0422,-0.994,-0.9822,-0.9822,-0.9822,-0.9822,-0.9825,-0.9978,-1.0134,-1.0287,-1.0429,-1.0578,-1.0721,-1.0721,-1.0721,-1.0721,-1.0721,-1.0721,-1.0721,-1.0721,-1.0721,-1.0721,0.0,0.0,0.0,0.0,0.0,0.0,0.0,0.0,0.0,0.0,0.0,-0.0561,-0.2132,-0.224,0.0,-0.4812,-0.6163,-0.6611,-0.5815,-0.6599,-0.7271,-0.7721,-0.8051,-0.8491,-0.8937,-0.894,0.0,-0.894,-0.894,-0.8826,-0.8712,-0.8712,-0.8712,-0.8712,-0.8712,-0.8826,-0.894,-0.894,-0.894,-0.894,-0.894,-0.894,-0.894,-0.894,-0.894,-0.894,-0.894,-0.894,-0.894,-0.894,-0.894,-0.894,-0.894,-0.894,-0.894,-0.894,-0.894,-0.894,-0.894,-0.894,-0.894,-0.894,-0.894,-0.894,-0.894,-0.894,-0.894,-0.894,-0.894,-0.894,-0.894,-0.894,-0.894,-0.894,-0.894,-0.894,-0.894,0.0,0.0,0.0,0.0,0.0,0.0,-0.9588,-1.0021,0.0,0.0,0.0,0.0,0.0,0.0,-0.9374,-0.953,-0.968,-0.9819,-0.9822,-0.9822,-0.9822,-0.9822,-0.9822,-0.9829,-1.0039,-1.0188,-1.029,-1.049,-1.0633,-1.0721,-1.0721,-1.0721,-1.0721,-1.0721,-1.0721,-1.0721,-1.0721,-1.0721,-1.0721,0.0,0.0,0.0,0.0,0.0,0.0,0.0,0.0,0.0,0.0,0.0,0.0,0.0,0.0,0.0,0.0,0.0,0.0,0.0,-0.4018,-0.5248,-0.8291,-0.761,-0.7712,-0.883,-0.883,-0.8826,-0.8826,-0.8826,-0.8712,-0.8484,-0.8484,-0.8484,-0.8484,-0.8484,-0.8598,-0.8826,-0.8826,-0.8826,-0.883,-0.8937,-0.8937,-0.8826,-0.8937,-0.894,-0.894,-0.894,-0.894,-0.894,-0.894,-0.894,-0.894,-0.894,-0.894,-0.894,-0.894,-0.894,-0.894,-0.894,-0.894,-0.894,-0.894,-0.894,-0.894,-0.894,-0.894,-0.894,-0.894,-0.894,-0.894,-0.894,-0.894,-0.894,-0.894,-0.894,-0.894,-0.894,0.0,0.0,0.0,0.0,0.0,-0.894,-0.894,-0.894,0.0,0.0,0.0,0.0,0.0,-1.0379,-0.9391,-0.9544,-0.9686,-0.9819,-0.9822,-0.9822,-0.9822,-0.9822,-0.9825,-0.9846,-1.0144,-1.0287,-1.031,-1.0599,-1.0721,-1.0721,-1.0721,-1.0721,-1.0721,-1.0721,-1.0721,-1.0721,-1.0721,-1.0721,-1.0721,0.0,0.0,0.0,0.0,0.0,0.0,0.0,0.0,0.0,0.0,0.0,0.0,0.0,0.0,0.0,0.0,-0.056,-0.0896,-0.1008,-0.1006,-0.1786,-0.3463,-0.6374,-0.8174,-0.8396,-0.8273,-0.8159,-0.8159,-0.8159,-0.8156,-0.8156,-0.8156,-0.8156,-0.8156,-0.8156,-0.8156,-0.8266,-0.8488,-0.8488,-0.8269,-0.8716,-0.8823,-0.8598,-0.8826,-0.894,-0.894,-0.894,-0.894,-0.894,-0.894,-0.894,-0.894,-0.894,-0.894,-0.894,-0.894,-0.894,-0.894,-0.894,-0.894,-0.894,-0.894,-0.894,-0.894,-0.894,-0.894,-0.894,-0.894,-0.894,-0.894,-0.894,-0.894,-0.894,-0.894,-0.894,-0.894,-0.894,-0.894,-0.894,0.0,-0.894,-0.894,-0.894,-0.894,-0.894,0.0,0.0,0.0,-0.915,-0.9603,-0.9749,-0.9554,-0.9696,-0.9788,-0.9822,-0.9822,-0.9822,-0.9822,-0.9822,-0.9883,-1.0002,-1.0195,-1.0341,-1.0453,-1.0639,-1.0721,-1.0721,-1.0721,-1.0721,-1.0721,-1.0721,-1.0721,-1.0721,-1.0721,-1.0721,-1.0721,0.0,0.0,0.0,0.0,0.0,0.0,0.0,0.0,0.0,0.0,0.0,0.0,0.0,0.0,0.0,0.0,0.0,0.0,0.0,0.0,-0.0447,-0.1341,-0.3685,-0.5926,-0.8078,-0.7949,-0.7937,-0.8045,-0.8045,-0.7937,-0.7826,-0.7826,-0.7826,-0.7826,-0.7826,-0.7937,-0.8045,-0.8156,-0.8156,-0.8045,-0.838,-0.8491,-0.8484,-0.8709,-0.8712,-0.8712,-0.8712,-0.8712,-0.8712,-0.8598,-0.8712,-0.894,-0.894,-0.894,-0.894,-0.894,-0.894,-0.894,-0.894,-0.894,-0.894,-0.894,-0.894,-0.894,-0.894,-0.894,-0.894,-0.894,-0.894,-0.894,-0.894,-0.894,-0.894,-0.894,-0.894,-0.894,-0.894,-0.894,-0.894,-0.894,-0.894,-0.894,-0.894,-0.894,-0.8964,-0.9032,-0.911,0.0,-0.9354,-0.952,-0.9608,-0.9608,-0.9747,-0.9822,-0.9822,-0.9822,-0.9822,-0.9822,-0.9822,-0.99,-1.0056,-1.0209,-1.0358,-1.05,-1.0653,-1.0721,-1.0721,-1.0721,-1.0721,-1.0721,-1.0721,-1.0721,-1.0721,-1.0721,-1.0721,-1.0721,0.0,0.0,0.0,0.0,0.0,0.0,0.0,0.0,0.0,0.0,0.0,0.0,0.0,0.0,0.0,0.0,0.0,0.0,0.0,0.0,-0.0224,-0.0783,-0.0782,-0.2795,-0.7187,-0.7621,-0.7721,-0.7829,-0.7826,-0.7712,-0.7496,-0.7496,-0.7496,-0.7496,-0.7496,-0.7715,-0.7934,-0.7934,-0.7934,-0.7934,-0.7934,-0.8156,-0.8374,-0.8263,-0.826,-0.8374,-0.8263,-0.8374,-0.8488,-0.8374,-0.8602,-0.894,-0.894,-0.894,-0.894,-0.894,-0.894,-0.894,-0.894,-0.894,-0.894,-0.894,-0.894,-0.894,-0.894,-0.894,-0.894,-0.894,-0.894,-0.894,-0.894,-0.894,-0.894,-0.894,-0.894,-0.894,-0.894,0.0,-0.894,-0.894,-0.894,-0.894,-0.894,-0.8957,-0.9022,-0.9144,-0.9195,-0.9337,-0.9595,-0.9632,-0.9642,-0.9642,-0.9758,-0.9822,-0.9822,-0.9822,-0.9822,-0.9822,-0.9822,-0.9914,-1.009,-1.0219,-1.0371,-1.0534,-1.0663,-1.0721,-1.0721,-1.0721,-1.0721,-1.0721,-1.0721,-1.0721,-1.0721,-1.0721,-1.0721,-1.0721,0.0,0.0,0.0,0.0,0.0,0.0,0.0,0.0,0.0,0.0,0.0,0.0,0.0,0.0,0.0,0.0,0.0,0.0,0.0,0.0,-0.0,-0.0112,-0.0112,-0.1455,-0.426,-0.6279,-0.729,-0.729,-0.7274,-0.7265,-0.7265,-0.7265,-0.7265,-0.7265,-0.7265,-0.7265,-0.7376,-0.7604,-0.749,-0.7376,-0.7823,-0.7937,-0.7715,-0.7149,-0.7482,-0.7931,-0.726,-0.7595,-0.8383,-0.8725,-0.8836,-0.894,-0.894,-0.894,-0.894,-0.894,-0.894,-0.894,-0.894,-0.894,-0.894,-0.894,-0.894,-0.894,-0.894,-0.894,-0.894,-0.894,-0.894,-0.894,-0.894,-0.894,-0.894,-0.894,-0.894,-0.894,-0.894,0.0,-0.894,-0.894,-0.894,-0.894,-0.894,-0.9049,-0.913,-0.915,-0.9391,-0.9557,-0.9608,-0.9724,-0.9788,-0.9788,-0.9808,-0.9822,-0.9822,-0.9822,-0.9822,-0.9822,-0.9822,-0.9968,-1.0246,-1.027,-1.0429,-1.0687,-1.0711,-1.0721,-1.0721,-1.0721,-1.0721,-1.0721,-1.0721,-1.0721,-1.0721,-1.0721,-1.0721,-1.0721,0.0,0.0,0.0,0.0,0.0,0.0,0.0,0.0,0.0,0.0,0.0,0.0,0.0,0.0,0.0,0.0,0.0,0.0,0.0,0.0,0.0,0.0,0.0,-0.056,-0.1679,-0.2797,-0.459,-0.719,-0.7176,-0.7173,-0.7176,-0.7163,-0.716,-0.7168,-0.716,-0.7154,-0.7154,-0.7379,-0.7268,-0.7265,-0.7499,-0.7616,-0.7616,-0.7165,-0.6826,-0.671,-0.7168,-0.7504,-0.7724,-0.7949,-0.8393,-0.8947,-0.8947,-0.8944,-0.894,-0.8947,-0.8944,-0.894,-0.894,-0.894,-0.894,-0.894,-0.894,-0.894,-0.894,-0.894,-0.894,-0.894,-0.894,-0.894,-0.894,-0.894,-0.894,-0.894,-0.894,0.0,-0.894,-0.894,-0.894,-0.894,-0.9008,-0.9055,-0.9055,-0.9188,-0.931,-0.9395,-0.953,-0.9642,-0.972,-0.9785,-0.9822,-0.9822,-0.9822,-0.9822,-0.9822,-0.9822,-0.9822,-0.9822,-0.9903,-1.0063,-1.0283,-1.0358,-1.0514,-1.0721,-1.0721,-1.0721,-1.0721,-1.0721,-1.0721,-1.0721,-1.0721,-1.0721,-1.0721,-1.0721,-1.0721,-1.0721,0.0,0.0,0.0,0.0,0.0,0.0,0.0,0.0,0.0,0.0,0.0,0.0,0.0,0.0,0.0,0.0,0.0,0.0,0.0,0.0,0.0,0.0,0.0,0.0,0.0,0.0,-0.1791,-0.5497,-0.6056,-0.6621,-0.7195,-0.6606,-0.6715,-0.7182,-0.7168,-0.716,-0.7154,-0.7154,-0.7154,-0.7157,-0.7176,-0.7404,-0.7513,-0.673,-0.5826,-0.5148,-0.6051,-0.6725,-0.7171,-0.7171,-0.7727,-0.8504,-0.8504,-0.8497,-0.8602,-0.884,-0.8947,-0.894,-0.894,-0.894,-0.894,-0.894,-0.894,-0.894,-0.894,-0.894,-0.894,-0.894,-0.894,-0.894,-0.894,-0.894,-0.894,-0.894,0.0,-0.894,-0.894,-0.894,-0.895,-0.8984,-0.9086,-0.9167,-0.9201,-0.9344,-0.9483,-0.9602,-0.9639,-0.9707,-0.9815,-0.9822,-0.9822,-0.9822,-0.9822,-0.9822,-0.9822,-0.9822,-0.9822,-0.9822,-0.9975,-1.0131,-1.0287,-1.0426,-1.0575,-1.0721,-1.0721,-1.0721,-1.0721,-1.0721,-1.0721,-1.0721,-1.0721,-1.0721,-1.0721,-1.0721,-1.0721,-1.0721,0.0,0.0,0.0,0.0,0.0,0.0,0.0,0.0,0.0,0.0,0.0,0.0,0.0,0.0,0.0,0.0,0.0,0.0,0.0,0.0,0.0,0.0,0.0,0.0,0.0,0.0,-0.0224,-0.0559,-0.2797,-0.5043,-0.7195,-0.4927,-0.5039,-0.7182,-0.7182,-0.7171,-0.7154,-0.7154,-0.7154,-0.7157,-0.7176,-0.7182,-0.6956,-0.4709,-0.3808,-0.358,-0.2014,-0.3917,-0.7182,-0.7182,-0.7279,-0.7376,-0.7376,-0.7371,-0.7479,-0.8615,-0.8947,-0.894,-0.894,-0.894,-0.894,-0.894,-0.894,-0.894,-0.894,-0.894,-0.894,-0.894,-0.894,-0.894,-0.894,-0.894,-0.894,-0.894,0.0,0.0,-0.894,-0.894,-0.8988,-0.912,-0.9147,-0.9208,-0.9351,-0.9503,-0.9598,-0.9608,-0.973,-0.9812,-0.9822,-0.9822,-0.9822,-0.9822,-0.9822,-0.9822,-0.9822,-0.9822,-0.9822,-0.9822,-0.9975,-1.0131,-1.0287,-1.0426,-1.0575,-1.0721,-1.0721,-1.0721,-1.0721,-1.0721,-1.0721,-1.0721,-1.0721,-1.0721,-1.0721,-1.0721,-1.0721,-1.0721,0.0112,0.0,0.0,0.0,0.0,0.0,0.0,0.0,0.0,0.0,0.0,0.0,0.0,0.0,0.0,0.0,0.0,0.0,0.0,0.0,0.0,0.0,0.0,0.0,0.0,0.0,0.0,-0.0,-0.0895,-0.1791,-0.2801,-0.3358,-0.3244,-0.2909,-0.5833,-0.7187,-0.7179,-0.7173,-0.7171,-0.7173,-0.7184,-0.719,-0.6738,-0.2801,-0.1345,-0.1232,-0.056,-0.1343,-0.324,-0.617,-0.7176,-0.7154,-0.7154,-0.7152,-0.726,-0.7706,-0.782,-0.8048,-0.8722,-0.8944,-0.894,-0.894,-0.894,-0.894,-0.894,-0.894,-0.894,-0.894,-0.894,-0.894,-0.894,-0.894,-0.894,-0.894,0.0,-0.894,-0.894,-0.9015,-0.9093,-0.9147,-0.932,-0.9459,-0.9517,-0.9656,-0.9741,-0.9741,-0.9791,-0.9822,-0.9822,-0.9822,-0.9822,-0.9822,-0.9822,-0.9822,-0.9822,-0.9822,-0.9822,-0.9825,-1.0073,-1.0222,-1.029,-1.0524,-1.0666,-1.0721,-1.0721,-1.0721,-1.0721,-1.0721,-1.0721,-1.0721,-1.0721,-1.0721,-1.0721,-1.0721,-1.0721,-1.0721,0.0673,0.0224,0.0,0.0,0.0,0.0,0.0,0.0,0.0,0.0,0.0,0.0,0.0,0.0,0.0,0.0,0.0,0.0,0.0,0.0,0.0,0.0,0.0,0.0,0.0,0.0,0.0,0.0,0.0,0.0,-0.0,-0.168,-0.1567,-0.0112,-0.3471,-0.5835,-0.7195,-0.719,-0.7187,-0.7187,-0.7195,-0.7201,-0.6634,-0.1793,0.0,0.0,0.0,-0.1008,-0.2797,-0.6063,-0.7184,-0.7163,-0.7163,-0.716,-0.7154,-0.7146,-0.7149,-0.7379,-0.8165,-0.8383,-0.8488,-0.883,-0.8944,-0.894,-0.894,-0.894,-0.894,-0.894,-0.894,-0.894,-0.894,-0.894,-0.894,-0.894,-0.894,-0.8954,-0.8998,-0.9089,-0.9188,-0.9286,-0.9483,-0.9629,-0.9673,-0.9764,-0.9822,-0.9822,-0.9822,-0.9822,-0.9822,-0.9822,-0.9822,-0.9822,-0.9822,-0.9822,-0.9822,-0.9822,-0.9846,-0.9897,-1.0158,-1.0304,-1.0354,-1.0605,-1.0721,-1.0721,-1.0721,-1.0721,-1.0721,-1.0721,-1.0721,-1.0721,-1.0721,-1.0721,-1.0721,-1.0721,-1.0721,-1.0721,0.1795,0.0785,0.0,0.0,0.0,0.0,0.0,0.0,0.0,0.0,0.0,0.0,0.0,0.0,0.0,0.0,0.0,0.0,0.0,0.0,0.0,0.0,0.0,0.0,0.0,0.0,0.0,0.0,0.0,0.0,0.0,0.0,0.0,0.0,0.0,-0.2686,-0.7195,-0.7195,-0.7195,-0.7195,-0.7091,-0.7097,-0.6641,-0.1794,0.0,0.0,0.0,-0.3029,-0.7097,-0.7097,-0.7198,-0.7182,-0.7182,-0.7171,-0.7154,-0.7154,-0.7154,-0.7154,-0.7154,-0.7146,-0.7479,-0.8615,-0.8836,-0.8937,-0.894,-0.894,-0.894,-0.894,-0.894,-0.894,-0.894,-0.894,-0.894,-0.894,-0.894,-0.8991,-0.9133,-0.9154,-0.9269,-0.9571,-0.9612,-0.9666,-0.9805,-0.9822,-0.9822,-0.9822,-0.9822,-0.9822,-0.9822,-0.9822,-0.9822,-0.9822,-0.9822,-0.9822,-0.9822,-0.9822,-0.9897,-1.0049,-1.0205,-1.0354,-1.0497,-1.0649,-1.0721,-1.0721,-1.0721,-1.0721,-1.0721,-1.0721,-1.0721,-1.0721,-1.0721,-1.0721,-1.0721,-1.0721,-1.0721,-1.0721,0.1795,0.1458,0.1009,0.0112,0.0,0.0,0.0,0.0,0.0,0.0,0.0,0.0,0.0,0.0,0.0,0.0,0.0,0.0,0.0,0.0,0.0,0.0,0.0,0.0,0.0,0.0,0.0,0.0,0.0,0.0,0.0,0.0,0.0,0.0,0.0,-0.0784,-0.2129,-0.2127,-0.2126,-0.2126,-0.2127,-0.2128,-0.2016,-0.056,0.0,0.0,0.0,-0.0896,-0.2128,-0.2128,-0.437,-0.719,-0.7184,-0.7179,-0.7171,-0.716,-0.7154,-0.7154,-0.7154,-0.7154,-0.7263,-0.7595,-0.7703,-0.7928,-0.8722,-0.895,-0.895,-0.894,-0.894,-0.894,-0.894,-0.894,-0.894,-0.894,-0.9137,-0.9219,-0.926,-0.9337,-0.9507,-0.9598,-0.9696,-0.9774,-0.9819,-0.9822,-0.9822,-0.9822,-0.9822,-0.9822,-0.9822,-0.9822,-0.9822,-0.9822,-0.9822,-0.9822,-0.9822,-0.9822,-0.9897,-1.0049,-1.0205,-1.0354,-1.0497,-1.0649,-1.0721,-1.0721,-1.0721,-1.0721,-1.0721,-1.0721,-1.0721,-1.0721,-1.0721,-1.0721,-1.0721,-1.0721,-1.0721,-1.0721,0.1795,0.1795,0.1458,0.0561,0.0112,0.0,0.0,0.0,0.0,0.0,0.0,0.0,0.0,0.0,0.0,0.0,0.0,0.0,0.0,0.0,0.0,0.0,0.0,0.0,0.0,0.0,0.0,0.0,0.0,0.0,0.0,0.0,0.0,0.0,0.0,0.0,0.0,0.0,0.0,0.0,0.0,0.0,0.0,0.0,0.0,0.0,0.0,0.0,0.0,0.0,-0.1903,-0.4365,-0.436,-0.5704,-0.7168,-0.7157,-0.7154,-0.7154,-0.7154,-0.7154,-0.7154,-0.7146,-0.7146,-0.7371,-0.8054,-0.8276,-0.8269,-0.8263,-0.8377,-0.8605,-0.8826,-0.894,-0.894,-0.894,-0.9126,-0.9226,-0.9343,-0.9401,-0.9561,-0.968,-0.9768,-0.9822,-0.9822,-0.9822,-0.9822,-0.9822,-0.9822,-0.9822,-0.9822,-0.9822,-0.9822,-0.9822,-0.9822,-0.9822,-0.9822,-0.9822,-0.9927,-1.0141,-1.0106,-1.0125,-1.0323,-1.0283,-1.0323,-1.0455,-1.0455,-1.0588,-1.0721,-1.0721,-1.0721,-1.0721,-1.0721,-1.0721,-1.0721,-1.0721,-1.0721,-1.0721,0.1795,0.1795,0.1683,0.1121,0.0449,0.0112,0.0,0.0,0.0,0.0,0.0,0.0,0.0,0.0,0.0,0.0,0.0,0.0,0.0,0.0,0.0,0.0,0.0,0.0,0.0,0.0,0.0,0.0,0.0,0.0,0.0,0.0,0.0,0.0,0.0,0.0,0.0,0.0,0.0,0.0,0.0,0.0,0.0,0.0,0.0,0.0,0.0,0.0,0.0,0.0,0.0,-0.0112,-0.0558,-0.368,-0.7157,-0.7157,-0.7154,-0.7154,-0.7154,-0.7154,-0.7154,-0.7154,-0.7154,-0.7154,-0.7154,-0.7146,-0.7254,-0.7254,-0.7595,-0.8159,-0.8716,-0.8826,-0.883,-0.8826,-0.884,-0.9055,-0.9459,-0.9395,-0.9507,-0.9788,-0.9822,-0.9822,-0.9822,-0.9822,-0.9822,-0.9822,-0.9822,-0.9822,-0.9822,-0.9822,-0.9822,-0.9822,-0.9822,-0.9822,-0.9822,-0.9822,-0.9975,-1.028,-0.9885,-0.9909,-1.0193,-0.9794,-0.9927,-1.0193,-1.0193,-1.0455,-1.0721,-1.0721,-1.0721,-1.0721,-1.0721,-1.0721,-1.0721,-1.0721,-1.0721,-1.0721,0.1795,0.1795,0.1795,0.1683,0.1121,0.0561,0.0112,0.0,0.0,0.0,0.0,0.0,0.0,0.0,0.0,0.0,0.0,0.0,0.0,0.0,0.0,0.0,0.0,0.0,0.0,0.0,0.0,0.0,0.0,0.0,0.0,0.0,0.0,0.0,0.0,0.0,0.0,0.0,0.0,0.0,0.0,0.0,0.0,0.0,0.0,0.0,0.0,0.0,0.0,0.0,0.0,-0.0672,-0.448,-0.6396,-0.7182,-0.7163,-0.7154,-0.7154,-0.7154,-0.7154,-0.7154,-0.7154,-0.7154,-0.7154,-0.7154,-0.7154,-0.7265,-0.7604,-0.7718,-0.794,-0.8159,-0.8273,-0.8494,-0.8598,-0.8581,-0.883,-0.9357,-0.9486,-0.9625,-0.9798,-0.9822,-0.9822,-0.9822,-0.9822,-0.9822,-0.9822,-0.9822,-0.9822,-0.9822,-0.9822,-0.9822,-0.9822,-0.9822,-0.9822,-0.9822,-0.9822,-0.9848,-0.9885,-0.9755,-0.978,-0.9794,-0.9794,-0.9927,-1.0193,-1.0193,-1.0455,-1.0721,-1.0721,-1.0721,-1.0721,-1.0721,-1.0721,-1.0721,-1.0721,-1.0721,-1.0721,0.1795,0.1795,0.1795,0.1795,0.157,0.1234,0.0897,0.0561,0.0336,0.0,0.0,0.0,0.0,0.0,0.0,0.0,0.0,0.0,0.0,0.0,0.0,0.0,0.0,0.0,0.0,0.0,0.0,0.0,0.0,0.0,0.0,0.0,0.0,0.0,0.0,0.0,0.0,0.0,0.0,0.0,0.0,0.0,0.0,0.0,0.0,0.0,0.0,0.0,0.0,0.0,0.0,-0.0448,-0.3023,-0.5382,-0.7187,-0.7173,-0.7163,-0.7154,-0.7154,-0.7154,-0.7154,-0.7154,-0.7154,-0.7154,-0.7154,-0.7154,-0.7265,-0.7493,-0.7493,-0.7604,-0.7826,-0.7826,-0.7937,-0.8156,-0.827,-0.8406,-0.8891,-0.9036,-0.9181,-0.9323,-0.9339,-0.9339,-0.9339,-0.9339,-0.9457,-0.9579,-0.9579,-0.9579,-0.9579,-0.9579,-0.9457,-0.9335,-0.9457,-0.9579,-0.9579,-0.97,-0.9724,-0.9503,-0.9503,-0.9389,-0.9389,-0.9256,-0.9389,-0.9655,-0.9655,-0.9921,-1.019,-1.0455,-1.0455,-1.0455,-1.0588,-1.0721,-1.0721,-1.0721,-1.0721,-1.0721,0.1795,0.1795,0.1795,0.1795,0.1795,0.1795,0.1795,0.1346,0.0897,0.0336,0.0112,0.0,0.0,0.0,0.0,0.0,0.0,0.0,0.0,0.0,0.0,0.0,0.0,0.0,0.0,0.0,0.0,0.0,0.0,0.0,0.0,0.0,0.0,0.0,0.0,0.0,0.0,0.0,0.0,0.0,0.0,0.0,0.0,0.0,0.0,0.0,0.0,0.0,0.0,0.0,0.0,0.0,0.0,-0.3357,-0.7184,-0.7182,-0.7171,-0.7154,-0.7154,-0.7154,-0.7154,-0.7154,-0.7154,-0.7154,-0.7154,-0.7154,-0.7154,-0.7154,-0.7154,-0.7268,-0.7493,-0.7379,-0.7385,-0.7853,-0.7948,-0.807,-0.8338,-0.8573,-0.8699,-0.8839,-0.8854,-0.8854,-0.8854,-0.8854,-0.8976,-0.9217,-0.9217,-0.9217,-0.9217,-0.9217,-0.9095,-0.8854,-0.9095,-0.9214,-0.9335,-0.9579,-0.9588,-0.9218,-0.9236,-0.913,-0.8984,-0.872,-0.8717,-0.9117,-0.9117,-0.9389,-0.9664,-1.006,-1.006,-1.0193,-1.0455,-1.0588,-1.0588,-1.0721,-1.0721,-1.0721,0.1795,0.1795,0.1795,0.1795,0.1795,0.1795,0.1795,0.1683,0.1683,0.157,0.0673,0.0,0.0,0.0,0.0,0.0,0.0,0.0,0.0,0.0,0.0,0.0,0.0,0.0,0.0,0.0,0.0,0.0,0.0,0.0,0.0,0.0,0.0,0.0,0.0,0.0,0.0,0.0,0.0,0.0,0.0,0.0,0.0,0.0,0.0,0.0,0.0,0.0,0.0,0.0,0.0,0.0,0.0,-0.3358,-0.7192,-0.7184,-0.7171,-0.7154,-0.7154,-0.7154,-0.7154,-0.7154,-0.7154,-0.7154,-0.7154,-0.7154,-0.7154,-0.7154,-0.7154,-0.7265,-0.7265,-0.7265,-0.7299,-0.7743,-0.7774,-0.7985,-0.8464,-0.8634,-0.8699,-0.8839,-0.8854,-0.8854,-0.8854,-0.8854,-0.8854,-0.8976,-0.8976,-0.8976,-0.8976,-0.8976,-0.8976,-0.8854,-0.8976,-0.9095,-0.9335,-0.9335,-0.9296,-0.9084,-0.9197,-0.9001,-0.872,-0.8587,-0.8717,-0.9117,-0.9117,-0.9389,-0.9661,-0.9794,-0.9794,-0.9794,-1.0193,-1.0326,-1.0323,-1.0588,-1.0721,-1.0721,0.1795,0.1795,0.1795,0.1795,0.1795,0.1795,0.1795,0.1795,0.1795,0.1795,0.1346,0.0897,0.0561,0.0224,0.0,0.0,0.0,0.0,0.0,0.0,0.0,0.0,0.0,0.0,0.0,0.0,0.0,0.0,0.0,0.0,0.0,0.0,0.0,0.0,0.0,0.0,0.0,0.0,0.0,0.0,0.0,0.0,0.0,0.0,0.0,0.0,0.0,0.0,0.0,0.0,0.0,0.0,0.0,-0.3361,-0.7195,-0.719,-0.7173,-0.7154,-0.7154,-0.7154,-0.7154,-0.7154,-0.7154,-0.7154,-0.7154,-0.7154,-0.7154,-0.7154,-0.7154,-0.7154,-0.7154,-0.7211,-0.7271,-0.7439,-0.7679,-0.7811,-0.8039,-0.8113,-0.8297,-0.8355,-0.8363,-0.8363,-0.8363,-0.8363,-0.8363,-0.8613,-0.8613,-0.8613,-0.8613,-0.8613,-0.8488,-0.8363,-0.8488,-0.8732,-0.8854,-0.8973,-0.8919,-0.8676,-0.8731,-0.8639,-0.8494,-0.856,-0.872,-0.8853,-0.8853,-0.8853,-0.9123,-0.9256,-0.9389,-0.9389,-0.9924,-1.0323,-1.0455,-1.0588,-1.0721,-1.0721]}]]